[[{"header":{"parameterUnit":"m.s-1","parameterCategory":1,"la1":30.6,"la2":28.766,"lo1":-90.7593,"lo2":-88.6598,"dy":0.0162,"dx":0.0183,"nx":116,"ny":114,"refTime":"2024-02-27T18:00:00:Z","depth":0,"parameterNumber":2,"parameterNumberName":"U-component_of_WINDS"},"data":[0.0,0.0,0.0,0.0,0.0,0.0,0.0,0.0,0.0,0.0,0.0,0.0,0.0,0.0,0.0,0.0,0.0,0.0,0.0,0.0,0.0,0.0,0.0,0.0,0.0,0.0,0.0,0.0,0.0,0.0,0.0,0.0,0.0,0.0,0.0,0.0,0.0,0.0,0.0,0.0,0.0,0.0,0.0,0.0,0.0,0.0,0.0,0.0,0.0,0.0,0.0,0.0,0.0,0.0,0.0,0.0,0.0,0.0,0.0,0.0,0.0,0.0,0.0,0.0,0.0,0.0,0.0,0.0,0.0,0.0,0.0,0.0,0.0,0.0,0.0,0.0,0.0,0.0,0.0,0.0,0.0,0.0,0.0,0.0,0.0,0.0,0.0,0.0,0.0,0.0,0.0,0.0,0.0,0.0,0.0,0.0,0.0,0.0,0.0,0.0,0.0,0.0,0.0,0.0,0.0,0.0,0.0,0.0,0.0,0.0,0.0,0.0,0.0,0.0,0.0,0.0,0.0,0.0,0.0,0.0,0.0,0.0,0.0,0.0,0.0,0.0,0.0,0.0,0.0,0.0,0.0,0.0,0.0,0.0,0.0,0.0,0.0,0.0,0.0,0.0,0.0,0.0,0.0,0.0,0.0,0.0,0.0,0.0,0.0,0.0,0.0,0.0,0.0,0.0,0.0,0.0,0.0,0.0,0.0,0.0,0.0,0.0,0.0,0.0,0.0,0.0,0.0,0.0,0.0,0.0,0.0,0.0,0.0,0.0,0.0,0.0,0.0,0.0,0.0,0.0,0.0,0.0,0.0,0.0,0.0,0.0,0.0,0.0,0.0,0.0,0.0,0.0,0.0,0.0,0.0,0.0,0.0,0.0,0.0,0.0,0.0,0.0,0.0,0.0,0.0,0.0,0.0,0.0,0.0,0.0,0.0,0.0,0.0,0.0,0.0,0.0,0.0,0.0,0.0,0.0,0.0,0.0,0.0,0.0,0.0,0.0,0.0,0.0,0.0,0.0,0.0,0.0,0.0,0.0,0.0,0.0,0.0,0.0,0.0,0.0,0.0,0.0,0.0,0.0,0.0,0.0,0.0,0.0,0.0,0.0,0.0,0.0,0.0,0.0,0.0,0.0,0.0,0.0,0.0,0.0,0.0,0.0,0.0,0.0,0.0,0.0,0.0,0.0,0.0,0.0,0.0,0.0,0.0,0.0,0.0,0.0,0.0,0.0,0.0,0.0,0.0,0.0,0.0,0.0,0.0,0.0,0.0,0.0,0.0,0.0,0.0,0.0,0.0,0.0,0.0,0.0,0.0,0.0,0.0,0.0,0.0,0.0,0.0,0.0,0.0,0.0,0.0,0.0,0.0,0.0,0.0,0.0,0.0,0.0,0.0,0.0,0.0,0.0,0.0,0.0,0.0,0.0,0.0,0.0,0.0,0.0,0.0,0.0,0.0,0.0,0.0,0.0,0.0,0.0,0.0,0.0,0.0,0.0,0.0,0.0,0.0,0.0,0.0,0.0,0.0,0.0,0.0,0.0,0.0,0.0,0.0,0.0,0.0,0.0,0.0,0.0,0.0,0.0,0.0,0.0,0.0,0.0,0.0,0.0,0.0,0.0,0.0,0.0,0.0,0.0,0.0,0.0,0.0,0.0,0.0,0.0,0.0,0.0,0.0,0.0,0.0,0.0,0.0,0.0,0.0,0.0,0.0,0.0,0.0,0.0,0.0,0.0,0.0,0.0,0.0,0.0,0.0,0.0,0.0,0.0,0.0,0.0,0.0,0.0,0.0,0.0,0.0,0.0,0.0,0.0,0.0,0.0,0.0,0.0,0.0,0.0,0.0,0.0,0.0,0.0,0.0,0.0,0.0,0.0,0.0,0.0,0.0,0.0,0.0,0.0,0.0,0.0,0.0,0.0,0.0,0.0,0.0,0.0,0.0,0.0,0.0,0.0,0.0,0.0,0.0,0.0,0.0,0.0,0.0,0.0,0.0,0.0,0.0,0.0,0.0,0.0,0.0,0.0,0.0,0.0,0.0,0.0,0.0,0.0,0.0,0.0,0.0,0.0,0.0,0.0,0.0,0.0,0.0,0.0,0.0,0.0,0.0,0.0,0.0,0.0,0.0,0.0,0.0,0.0,0.0,0.0,0.0,0.0,0.0,0.0,0.0,0.0,0.0,0.0,0.0,0.0,0.0,0.0,0.0,0.0,0.0,0.0,0.0,0.0,0.0,0.0,0.0,0.0,0.0,0.0,0.0,0.0,0.0,0.0,0.0,0.0,0.0,0.0,0.0,0.0,0.0,0.0,0.0,0.0,0.0,0.0,0.0,0.0,0.0,0.0,0.0,0.0,0.0,0.0,0.0,0.0,0.0,0.0,0.0,0.0,0.0,0.0,0.0,0.0,0.0,0.0,0.0,0.0,0.0,0.0,0.0,0.0,0.0,0.0,0.0,0.0,0.0,0.0,0.0,0.0,0.0,0.0,0.0,0.0,0.0,0.0,0.0,0.0,0.0,0.0,0.0,0.0,0.0,0.0,0.0,0.0,0.0,0.0,0.0,0.0,0.0,0.0,0.0,0.0,0.0,0.0,0.0,0.0,0.0,0.0,0.0,0.0,0.0,0.0,0.0,0.0,0.0,0.0,0.0,0.0,0.0,0.0,0.0,0.0,0.0,0.0,0.0,0.0,0.0,0.0,0.0,0.0,0.0,0.0,0.0,0.0,0.0,0.0,0.0,0.0,0.0,0.0,0.0,0.0,0.0,0.0,0.0,0.0,0.0,0.0,0.0,0.0,0.0,0.0,0.0,0.0,0.0,0.0,0.0,0.0,0.0,0.0,0.0,0.0,0.0,0.0,0.0,0.0,0.0,0.0,0.0,0.0,0.0,0.0,0.0,0.0,0.0,0.0,0.0,0.0,0.0,0.0,0.0,0.0,0.0,0.0,0.0,0.0,0.0,0.0,0.0,0.0,0.0,0.0,0.0,0.0,0.0,0.0,0.0,0.0,0.0,0.0,0.0,0.0,0.0,0.0,0.0,0.0,0.0,0.0,0.0,0.0,0.0,0.0,0.0,0.0,0.0,0.0,0.0,0.0,0.0,0.0,0.0,0.0,0.0,0.0,0.0,0.0,0.0,0.0,0.0,0.0,0.0,0.0,0.0,0.0,0.0,0.0,0.0,0.0,0.0,0.0,0.0,0.0,0.0,0.0,0.0,0.0,0.0,0.0,0.0,0.0,0.0,0.0,0.0,0.0,0.0,0.0,0.0,0.0,0.0,0.0,0.0,0.0,0.0,0.0,0.0,0.0,0.0,0.0,0.0,0.0,0.0,0.0,0.0,0.0,0.0,0.0,0.0,0.0,0.0,0.0,0.0,0.0,0.0,0.0,0.0,0.0,0.0,0.0,0.0,0.0,0.0,0.0,0.0,0.0,0.0,0.0,0.0,0.0,0.0,0.0,0.0,0.0,0.0,0.0,0.0,0.0,0.0,0.0,0.0,0.0,0.0,0.0,0.0,0.0,0.0,0.0,0.0,0.0,0.0,0.0,0.0,0.0,0.0,0.0,0.0,0.0,0.0,0.0,0.0,0.0,0.0,0.0,0.0,0.0,0.0,0.0,0.0,0.0,0.0,0.0,0.0,0.0,0.0,0.0,0.0,0.0,0.0,0.0,0.0,0.0,0.0,0.0,0.0,0.0,0.0,0.0,0.0,0.0,0.0,0.0,0.0,0.0,0.0,0.0,0.0,0.0,0.0,0.0,0.0,0.0,0.0,0.0,0.0,0.0,0.0,0.0,0.0,0.0,0.0,0.0,0.0,0.0,0.0,0.0,0.0,0.0,0.0,0.0,0.0,0.0,0.0,0.0,0.0,0.0,0.0,0.0,0.0,0.0,0.0,0.0,0.0,0.0,0.0,0.0,0.0,0.0,0.0,0.0,0.0,0.0,0.0,0.0,0.0,0.0,0.0,0.0,0.0,0.0,0.0,0.0,0.0,0.0,0.0,0.0,0.0,0.0,0.0,0.0,0.0,0.0,0.0,0.0,0.0,0.0,0.0,0.0,0.0,0.0,0.0,0.0,0.0,0.0,0.0,0.0,0.0,0.0,0.0,0.0,0.0,0.0,0.0,0.0,0.0,0.0,0.0,0.0,0.0,0.0,0.0,0.0,0.0,0.0,0.0,0.0,0.0,0.0,0.0,0.0,0.0,0.0,0.0,0.0,0.0,0.0,0.0,0.0,0.0,0.0,0.0,0.0,0.0,0.0,0.0,0.0,0.0,0.0,0.0,0.0,0.0,0.0,0.0,0.0,0.0,0.0,0.0,0.0,0.0,0.0,0.0,0.0,0.0,0.0,0.0,0.0,0.0,0.0,0.0,0.0,0.0,0.0,0.0,0.0,0.0,0.0,0.0,0.0,0.0,0.0,0.0,0.0,0.0,0.0,0.0,0.0,0.0,0.0,0.0,0.0,0.0,0.0,0.0,0.0,0.0,0.0,0.0,0.0,0.0,0.0,0.0,0.0,0.0,0.0,0.0,0.0,0.0,0.0,0.0,0.0,0.0,0.0,0.0,0.0,0.0,0.0,0.0,0.0,0.0,0.0,0.0,0.0,0.0,0.0,0.0,0.0,0.0,0.0,0.0,0.0,0.0,0.0,0.0,0.0,0.0,0.0,0.0,0.0,0.0,0.0,0.0,0.0,0.0,0.0,0.0,0.0,0.0,0.0,0.0,0.0,0.0,0.0,0.0,0.0,0.0,0.0,0.0,0.0,0.0,0.0,0.0,0.0,0.0,0.0,0.0,0.0,0.0,0.0,0.0,0.0,0.0,0.0,0.0,0.0,0.0,0.0,0.0,0.0,0.0,0.0,0.0,0.0,0.0,0.0,0.0,0.0,0.0,0.0,0.0,0.0,0.0,0.0,0.0,0.0,0.0,0.0,0.0,0.0,0.0,0.0,0.0,0.0,0.0,0.0,0.0,0.0,0.0,0.0,0.0,0.0,0.0,0.0,0.0,0.0,0.0,0.0,0.0,0.0,0.0,0.0,0.0,0.0,0.0,0.0,0.0,0.0,0.0,0.0,0.0,0.0,0.0,0.0,0.0,0.0,0.0,0.0,0.0,0.0,0.0,0.0,0.0,0.0,0.0,0.0,0.0,0.0,0.0,0.0,0.0,0.0,0.0,0.0,0.0,0.0,0.0,0.0,0.0,0.0,0.0,0.0,0.0,0.0,0.0,0.0,0.0,0.0,0.0,0.0,0.0,0.0,0.0,0.0,0.0,0.0,0.0,0.0,0.0,0.0,0.0,0.0,0.0,0.0,0.0,0.0,0.0,0.0,0.0,0.0,0.0,0.0,0.0,0.0,0.0,0.0,0.0,0.0,0.0,0.0,0.0,0.0,0.0,0.0,0.0,0.0,0.0,0.0,0.0,0.0,0.0,0.0,0.0,0.0,0.0,0.0,0.0,0.0,0.0,0.0,0.0,0.0,0.0,0.0,0.0,0.0,0.0,0.0,0.0,0.0,0.0,0.0,0.0,0.0,0.0,0.0,0.0,0.0,0.0,0.0,0.0,0.0,0.0,0.0,0.0,0.0,0.0,0.0,0.0,0.0,0.0,0.0,0.0,0.0,0.0,0.0,0.0,0.0,0.0,0.0,0.0,0.0,0.0,0.0,0.0,0.0,0.0,0.0,0.0,0.0,0.0,0.0,0.0,0.0,0.0,0.0,0.0,0.0,0.0,0.0,0.0,0.0,0.0,0.0,0.0,0.0,0.0,0.0,0.0,0.0,0.0,0.0,0.0,0.0,0.0,0.0,0.0,0.0,0.0,0.0,0.0,0.0,0.0,0.0,0.0,0.0,0.0,0.0,0.0,0.0,0.0,0.0,0.0,0.0,0.0,0.0,0.0,0.0,0.0,0.0,0.0,0.0,0.0,0.0,0.0,0.0,0.0,0.0,0.0,0.0,0.0,0.0,0.0,0.0,0.0,0.0,0.0,0.0,0.0,0.0,0.0,0.0,0.0,0.0,0.0,0.0,0.0,0.0,0.0,0.0,0.0,0.0,0.0,0.0,0.0,0.0,0.0,0.0,0.0,0.0,0.0,0.0,-3.4164,-3.4884,0.0,0.0,0.0,0.0,0.0,0.0,0.0,0.0,0.0,0.0,0.0,0.0,0.0,0.0,0.0,0.0,0.0,0.0,0.0,0.0,0.0,0.0,0.0,0.0,0.0,0.0,-4.1043,-4.1001,-4.0845,-4.0562,0.0,0.0,0.0,0.0,-3.9522,-3.8893,-3.8516,-3.8432,-3.8088,-3.7672,-3.7263,-3.837,-3.9014,-3.924,0.0,0.0,0.0,0.0,0.0,0.0,0.0,0.0,0.0,0.0,0.0,0.0,0.0,0.0,0.0,0.0,0.0,0.0,0.0,0.0,0.0,0.0,0.0,0.0,0.0,0.0,0.0,0.0,0.0,0.0,0.0,0.0,0.0,0.0,0.0,0.0,0.0,0.0,0.0,0.0,0.0,0.0,0.0,0.0,0.0,0.0,0.0,0.0,0.0,0.0,0.0,0.0,0.0,0.0,0.0,0.0,0.0,0.0,0.0,0.0,0.0,0.0,0.0,0.0,0.0,0.0,0.0,0.0,0.0,0.0,-3.2801,-3.325,0.0,0.0,0.0,0.0,0.0,0.0,0.0,0.0,0.0,0.0,0.0,0.0,0.0,0.0,0.0,0.0,0.0,0.0,0.0,0.0,0.0,0.0,0.0,-4.0631,-4.0417,-4.0319,-4.0162,-4.0034,-3.9923,-3.945,-3.9172,-3.9172,-3.8155,-3.7502,-3.7263,-3.6631,-3.6204,-3.6031,-3.5752,-3.5613,-3.5613,-3.5496,-3.5613,-3.6032,-3.6532,0.0,0.0,0.0,0.0,0.0,0.0,0.0,0.0,0.0,0.0,0.0,0.0,0.0,0.0,0.0,0.0,0.0,0.0,0.0,0.0,0.0,0.0,0.0,0.0,0.0,0.0,0.0,0.0,0.0,0.0,0.0,0.0,0.0,0.0,0.0,0.0,0.0,0.0,0.0,0.0,0.0,0.0,0.0,0.0,0.0,0.0,0.0,0.0,0.0,0.0,0.0,0.0,0.0,0.0,0.0,0.0,0.0,0.0,0.0,0.0,0.0,0.0,0.0,-3.1011,-3.1011,-3.1011,-3.1011,-3.1011,-3.1011,-3.1011,-3.1216,-3.1575,-3.1575,0.0,0.0,0.0,0.0,0.0,0.0,0.0,0.0,0.0,0.0,0.0,0.0,0.0,0.0,0.0,0.0,0.0,0.0,0.0,0.0,0.0,-3.994,-3.9226,-3.8751,-3.7956,-3.729,-3.683,-3.6737,-3.6684,-3.6684,-3.6532,-3.6392,-3.6349,-3.5775,-3.544,-3.544,-3.408,-3.3409,-3.3422,-3.2667,-3.234,-3.2497,-3.5123,-3.6262,-3.6218,0.0,0.0,0.0,0.0,0.0,0.0,0.0,0.0,0.0,0.0,0.0,0.0,0.0,0.0,0.0,0.0,0.0,0.0,0.0,0.0,0.0,0.0,0.0,0.0,0.0,0.0,0.0,0.0,0.0,0.0,0.0,0.0,0.0,0.0,0.0,0.0,0.0,0.0,0.0,0.0,0.0,-3.1779,-3.1626,0.0,0.0,0.0,0.0,0.0,0.0,0.0,0.0,0.0,0.0,0.0,0.0,0.0,-2.8761,-2.8761,-2.8761,-2.8761,-2.8761,-2.8761,-2.8761,-2.8761,-2.8761,-2.8761,-2.8761,-2.8761,0.0,-3.1575,-3.1575,0.0,0.0,0.0,0.0,0.0,0.0,0.0,0.0,0.0,0.0,0.0,0.0,0.0,0.0,0.0,0.0,0.0,0.0,0.0,0.0,0.0,-3.8726,-3.7925,-3.7224,-3.6775,-3.645,-3.6201,-3.5873,-3.569,-3.569,-3.4861,-3.4392,-3.4392,-3.3656,-3.3283,-3.3283,-3.2611,-3.2283,-3.2239,-3.1881,-3.1705,-3.1773,-3.3083,-3.3677,-3.3677,-3.3677,0.0,0.0,0.0,0.0,0.0,0.0,0.0,0.0,0.0,0.0,0.0,0.0,0.0,0.0,0.0,0.0,0.0,0.0,0.0,0.0,0.0,0.0,0.0,0.0,0.0,0.0,0.0,0.0,0.0,0.0,0.0,0.0,0.0,0.0,0.0,0.0,0.0,0.0,0.0,-3.0141,-2.9733,-2.9733,-2.9313,-2.9217,0.0,0.0,0.0,0.0,0.0,0.0,0.0,0.0,0.0,-2.8067,-2.8237,-2.8291,-2.8291,-2.8291,-2.8291,-2.8291,-2.8291,-2.8291,-2.8291,-2.8291,-2.8291,-2.8291,-2.8291,-2.8857,-2.9733,-2.9733,-2.9733,-2.9733,0.0,0.0,0.0,0.0,-2.9733,-2.9733,0.0,0.0,0.0,0.0,0.0,0.0,0.0,0.0,0.0,0.0,0.0,0.0,-3.7952,-3.731,-3.6628,-3.5674,-3.5399,-3.5216,-3.5061,-3.4619,-3.4388,-3.4388,-3.3305,-3.2661,-3.2661,-3.2033,-3.1673,-3.1617,-3.1617,-3.1617,-3.1617,-3.1617,-3.1617,-3.1705,-3.1705,-3.1705,-3.1705,-3.1705,-3.1705,-3.1705,0.0,0.0,0.0,0.0,0.0,0.0,0.0,0.0,0.0,0.0,0.0,0.0,0.0,0.0,0.0,0.0,0.0,0.0,0.0,0.0,0.0,0.0,0.0,0.0,0.0,0.0,0.0,0.0,0.0,0.0,0.0,0.0,0.0,0.0,0.0,0.0,0.0,-2.8741,-2.8184,-2.8184,-2.813,-2.8077,0.0,0.0,0.0,0.0,0.0,0.0,-2.7906,-2.8077,-2.813,-2.7906,-2.8184,-2.8291,-2.8184,-2.8291,-2.8291,-2.8291,-2.8291,-2.8291,-2.8291,-2.8291,-2.8291,-2.8291,-2.8291,-2.8291,-2.8291,-2.8291,-2.8291,-2.8291,-2.8291,-2.8291,-2.8291,-2.8291,-2.8291,-2.8291,0.0,0.0,0.0,0.0,0.0,0.0,0.0,0.0,0.0,0.0,0.0,-3.7473,-3.6433,-3.5897,-3.5151,-3.4111,-3.3199,-3.249,-3.1946,-3.1886,-3.1874,-3.1874,-3.1805,-3.1749,-3.1749,-3.1705,-3.1572,-3.1306,-3.1306,-3.1306,-3.1306,-3.1306,-3.1439,-3.1705,-3.1705,-3.1705,-3.1705,-3.1705,-3.1705,-3.1705,-3.1705,0.0,0.0,0.0,0.0,0.0,0.0,0.0,0.0,0.0,0.0,0.0,0.0,0.0,0.0,0.0,0.0,0.0,0.0,0.0,0.0,0.0,0.0,0.0,0.0,0.0,0.0,0.0,0.0,0.0,0.0,0.0,0.0,0.0,0.0,0.0,0.0,0.0,0.0,-2.7906,-2.7638,0.0,0.0,0.0,0.0,-2.7431,-2.7431,-2.7584,-2.7906,-2.7906,-2.7906,-2.7906,-2.8184,-2.8184,-2.7906,-2.8184,-2.8291,-2.8291,-2.8291,-2.8291,-2.8291,-2.8291,-2.8291,-2.8291,-2.8291,-2.8291,-2.8291,-2.8291,-2.8291,-2.8291,-2.8291,-2.8291,-2.8291,-2.8291,-2.8291,-2.8291,0.0,0.0,0.0,0.0,0.0,0.0,0.0,0.0,-3.7723,-3.7511,-3.6757,-3.5835,-3.484,-3.4224,-3.3514,-3.257,-3.2026,-3.1744,-3.1673,-3.1528,-3.1528,-3.1705,-3.1705,-3.1617,-3.1439,-3.1439,-3.1306,-3.1107,-3.1107,-3.1107,-3.1107,-3.1107,-3.1151,-3.1241,-3.1241,-3.1241,-3.1241,-3.1407,-3.1439,-3.1439,-3.1318,-3.1318,0.0,0.0,0.0,0.0,0.0,0.0,0.0,0.0,0.0,0.0,0.0,0.0,0.0,0.0,0.0,0.0,0.0,0.0,0.0,0.0,0.0,0.0,0.0,0.0,0.0,0.0,0.0,0.0,0.0,0.0,0.0,0.0,0.0,0.0,0.0,0.0,0.0,-2.7555,-2.7638,0.0,-2.7431,-2.726,-2.7206,-2.7377,-2.726,-2.7206,-2.7314,-2.7476,-2.7584,-2.7584,-2.7853,-2.8067,-2.8184,-2.8237,-2.8291,-2.8291,-2.8291,-2.8291,-2.8291,-2.8291,-2.8291,-2.8291,-2.8291,-2.8291,-2.8291,-2.8291,-2.8291,-2.8291,-2.8291,-2.8291,-2.8291,-2.8291,-2.8291,-2.8291,0.0,0.0,0.0,0.0,0.0,0.0,0.0,0.0,-3.6828,-3.6276,-3.5307,-3.4237,-3.3276,-3.2959,-3.2535,-3.1773,-3.1528,-3.1528,-3.1705,-3.1528,-3.1484,-3.1572,-3.1496,-3.1362,-3.1184,-3.0836,-3.0746,-3.0883,-3.0544,-3.0363,-3.0363,-3.0691,-3.0724,-3.0487,-3.0838,-3.0781,-3.0442,-3.0521,-3.0599,-3.0689,-3.0916,-3.0859,-3.0689,0.0,0.0,0.0,0.0,0.0,0.0,0.0,0.0,0.0,0.0,0.0,0.0,0.0,0.0,0.0,0.0,0.0,0.0,0.0,0.0,0.0,0.0,0.0,0.0,0.0,0.0,0.0,0.0,0.0,0.0,0.0,0.0,0.0,0.0,-2.6807,-2.6864,-2.7059,-2.716,-2.7217,-2.7152,-2.6944,-2.6781,-2.6545,-2.6382,-2.6318,-2.6364,-2.6645,-2.6926,-2.726,-2.7745,-2.8014,-2.8023,-2.8184,-2.8291,-2.8291,-2.8291,-2.8291,-2.8291,-2.8291,-2.8291,-2.8291,-2.8291,-2.8291,-2.8291,-2.8291,-2.8291,-2.8291,-2.8291,-2.8291,-2.8291,-2.8291,-2.8291,-2.8291,0.0,0.0,0.0,0.0,0.0,0.0,-3.9343,-3.7874,-3.6359,-3.4881,-3.3857,-3.2827,-3.1825,-3.2154,-3.2262,-3.1753,-3.1705,-3.1705,-3.1705,-3.1705,-3.1572,-3.1306,-3.105,-3.0927,-3.0939,-2.9897,-2.9749,-3.0532,-2.9543,-2.9084,-2.913,-3.0057,-3.0091,-2.9361,-3.0442,-3.0295,-2.9315,-2.9108,-2.9154,-2.9372,-3.0442,-3.0238,-2.9361,0.0,0.0,0.0,0.0,0.0,0.0,0.0,0.0,0.0,0.0,0.0,0.0,0.0,0.0,0.0,0.0,0.0,0.0,0.0,0.0,0.0,0.0,0.0,0.0,0.0,0.0,0.0,0.0,0.0,0.0,0.0,0.0,0.0,-2.5988,-2.5975,-2.5945,-2.6346,-2.6127,-2.6133,-2.6491,-2.6527,-2.6026,-2.4834,-2.4778,-2.488,-2.5131,-2.5406,-2.6018,-2.6935,-2.7745,-2.797,-2.7431,-2.797,-2.8237,-2.8291,-2.8291,-2.8291,-2.8291,-2.8291,-2.8291,-2.8291,-2.8291,-2.8291,-2.8291,-2.8291,-2.8291,-2.8291,-2.8291,-2.8291,-2.8291,-2.8291,-2.8291,-2.8291,0.0,0.0,0.0,0.0,0.0,0.0,-3.8387,-3.656,-3.4949,-3.3814,-3.2768,-3.2042,-3.1741,-3.1849,-3.1874,-3.1717,-3.1528,-3.1484,-3.1705,-3.1362,-3.1151,-3.1107,-3.0283,-2.9761,-2.9646,-2.8609,-2.847,-2.9233,-2.8956,-2.8817,-2.8817,-2.9095,-2.8702,-2.784,-2.8121,-2.8075,-2.7793,-2.7757,-2.7332,-2.6819,-2.7851,-2.8179,-2.8085,0.0,0.0,0.0,0.0,0.0,0.0,0.0,0.0,0.0,0.0,0.0,0.0,0.0,0.0,0.0,0.0,0.0,0.0,0.0,0.0,0.0,0.0,0.0,0.0,0.0,0.0,0.0,0.0,0.0,0.0,0.0,-2.3777,-2.3598,-2.5177,-2.5633,-2.5884,-2.6072,-2.5703,-2.5364,-2.5276,-2.5284,-2.4778,-2.36,-2.4334,-2.4437,-2.364,-2.4484,-2.5212,-2.5689,-2.6154,-2.6826,-2.7745,-2.7241,-2.7403,-2.8291,-2.8291,-2.8291,-2.8291,-2.8291,-2.8291,-2.8291,-2.8291,-2.8291,-2.8291,-2.8291,-2.8291,-2.8291,-2.8291,-2.8291,-2.8291,-2.8291,-2.8291,-2.8291,0.0,0.0,0.0,0.0,0.0,0.0,-3.8554,-3.6655,-3.4997,-3.4007,-3.2625,-3.1705,-3.1705,-3.1705,-3.1705,-3.1705,-3.1572,-3.1528,-3.1705,-3.0836,-3.0352,-3.0375,-2.9165,-2.8495,-2.847,-2.74,-2.721,-2.8049,-2.7636,-2.7447,-2.7447,-2.7861,-2.7531,-2.658,-2.6999,-2.6962,-2.658,-2.658,-2.5964,-2.5118,-2.5722,-2.6302,-2.6839,-2.6935,-2.7295,-2.7652,-2.6798,-2.6416,-2.633,-2.5761,0.0,0.0,0.0,0.0,0.0,0.0,0.0,0.0,0.0,0.0,0.0,0.0,0.0,0.0,0.0,0.0,0.0,0.0,0.0,0.0,0.0,0.0,0.0,0.0,-2.307,-2.2756,-2.3417,-2.4204,-2.4559,-2.4287,-2.4561,-2.4581,-2.4086,-2.4047,-2.3544,-2.2361,-2.2926,-2.2982,-2.2305,-2.3472,-2.4309,-2.4467,-2.5377,-2.6263,-2.7133,-2.6744,-2.7133,-2.8291,-2.8291,-2.8291,-2.8291,-2.8291,-2.8291,-2.8291,-2.8291,-2.8291,-2.8291,-2.8291,-2.8291,-2.8291,0.0,0.0,0.0,0.0,-2.8291,-2.8291,0.0,0.0,0.0,0.0,0.0,0.0,-3.9431,-3.7628,-3.6,-3.4984,-3.3079,-3.1825,-3.1825,-3.1749,-3.1705,-3.1705,-3.1705,-3.1705,-3.1661,-3.0351,-2.9624,-2.9669,-2.8096,-2.7342,-2.7589,-2.6264,-2.6022,-2.7047,-2.6167,-2.5693,-2.5742,-2.6628,-2.6484,-2.5548,-2.6484,-2.6388,-2.5548,-2.5548,-2.502,-2.4202,-2.4202,-2.4735,-2.5548,-2.58,-2.6456,-2.6972,-2.5109,-2.5197,-2.6003,-2.4864,0.0,0.0,0.0,0.0,0.0,0.0,0.0,0.0,0.0,0.0,0.0,0.0,0.0,0.0,0.0,0.0,0.0,0.0,0.0,0.0,0.0,0.0,0.0,0.0,-2.2384,-2.1933,-2.1197,-2.2102,-2.2634,-2.2041,-2.3099,-2.3563,-2.2886,-2.2813,-2.2305,-2.106,-2.1117,-2.1117,-2.101,-2.2507,0.0,0.0,0.0,-2.5917,-2.6082,-2.6245,-2.6961,-2.8291,-2.8291,-2.8291,-2.8291,-2.8291,-2.8291,-2.8291,-2.8291,-2.8291,-2.8291,-2.8291,-2.8291,-2.8291,-2.8291,-2.8291,-2.8291,-2.8291,-2.8291,-2.8291,0.0,0.0,0.0,0.0,0.0,0.0,-3.9722,-3.8406,-3.7149,-3.5957,-3.402,-3.2735,-3.2735,-3.212,-3.1705,-3.1705,-3.1705,-3.1617,-3.1395,-3.0949,-3.0691,-3.0703,-2.847,-2.7342,-2.7589,-2.5548,-2.4971,-2.5974,-2.579,-2.5693,-2.5693,-2.5877,-2.545,-2.4489,-2.4677,-2.4677,-2.4489,-2.4489,-2.439,-2.4202,-2.4202,-2.4301,-2.4489,-2.4548,-2.4686,-2.4775,-2.439,-2.444,-2.4578,-2.4341,-2.4301,-2.435,-2.435,-2.435,0.0,0.0,0.0,0.0,0.0,0.0,0.0,0.0,0.0,0.0,0.0,0.0,0.0,0.0,0.0,0.0,0.0,0.0,0.0,-2.1336,-2.0701,-2.0167,-2.0022,-2.0708,-2.1454,-2.2213,-2.1988,-2.1718,-2.1566,-2.1574,-2.1067,-1.9815,-2.0666,-2.078,-1.9822,-2.1843,-2.2749,-2.1957,-2.348,-2.4927,-2.6091,-2.5406,-2.6118,-2.8291,-2.8291,0.0,-2.8291,-2.8291,-2.8291,-2.8291,-2.8291,-2.8291,-2.8291,-2.8291,-2.8291,-2.8291,-2.8291,-2.8291,-2.8291,-2.8291,-2.8291,-2.8291,0.0,0.0,0.0,0.0,0.0,0.0,-4.0631,-3.928,-3.8012,-3.7104,-3.5342,-3.3854,-3.3104,-3.2618,-3.2164,-3.1749,-3.1705,-3.1572,-3.1306,-3.0713,-3.0397,-3.0397,-2.847,-2.7295,-2.701,-2.5635,-2.4971,-2.4971,-2.4971,-2.4971,-2.4971,-2.4971,-2.4686,-2.4202,-2.4202,-2.4202,-2.4202,-2.4202,-2.4202,-2.4202,-2.4202,-2.4202,-2.4202,-2.4202,-2.4202,-2.4202,-2.4202,-2.4202,-2.4202,-2.4202,-2.4202,-2.4202,-2.4202,-2.4202,-2.4202,0.0,0.0,0.0,0.0,0.0,0.0,0.0,0.0,0.0,0.0,0.0,0.0,0.0,0.0,-2.0597,-2.103,0.0,-2.0264,-2.0277,-1.9978,-1.9613,-1.9352,-1.9612,-2.0082,-2.0795,-2.109,-2.1002,-2.0551,-2.0493,-2.027,-1.9649,-2.0155,-2.0213,-1.9649,-2.1892,-2.2507,-2.1002,-2.2974,-2.4531,-2.5397,-2.4948,-2.5891,-2.8291,-2.8291,-2.8291,-2.8291,-2.8291,-2.8291,-2.8291,-2.8291,-2.8291,-2.8291,-2.8291,-2.8291,-2.8291,-2.8291,-2.8291,-2.8291,-2.8291,-2.8291,-2.8291,0.0,0.0,0.0,0.0,0.0,0.0,0.0,-4.0182,-3.8962,-3.8311,-3.675,-3.5128,-3.3755,-3.328,-3.2692,-3.1793,-3.1705,-3.1617,-3.1395,-3.0554,-3.0091,-3.0181,-2.8738,-2.7662,-2.7084,-2.6436,-2.5732,-2.4913,-2.4913,-2.4913,-2.4873,-2.4873,-2.4735,-2.4489,-2.4489,-2.439,-2.4202,-2.4202,-2.4202,-2.4202,-2.4202,-2.4202,-2.4202,-2.4202,-2.4202,-2.4202,-2.4202,-2.4202,-2.4202,-2.4202,-2.4202,-2.4202,-2.4202,-2.4202,-2.4202,-2.4202,-2.4202,0.0,0.0,0.0,0.0,0.0,0.0,0.0,0.0,-2.1853,-2.1548,-2.0475,-1.9539,-1.9176,-2.0107,-1.9539,-1.9043,-1.9355,-1.9452,-1.9391,-1.8964,-1.9028,-1.9176,-1.946,-2.0288,-2.0551,-1.9815,-1.9758,-1.9815,-1.9815,-1.9815,-1.9815,-1.9866,-2.1885,-2.2217,-2.0436,-2.2692,-2.4086,-2.4339,-2.4394,-2.5562,-2.796,-2.796,-2.8067,-2.8291,-2.8067,-2.8067,-2.8291,-2.8291,-2.8291,-2.8291,-2.8291,-2.8291,-2.8291,-2.8291,-2.8291,-2.8291,-2.8291,-2.8291,-2.8291,0.0,0.0,0.0,0.0,0.0,0.0,0.0,0.0,-4.0277,-3.9446,-3.7972,-3.6647,-3.575,-3.4223,-3.2852,-3.1781,-3.1705,-3.1705,-3.1661,-3.135,-3.125,-3.1472,-3.0022,-2.928,-2.9441,-2.8251,-2.7594,-2.75,-2.75,-2.7369,-2.721,-2.721,-2.6648,-2.5548,-2.5548,-2.502,-2.4202,-2.4202,-2.4202,-2.4202,-2.4202,-2.4202,-2.4202,-2.4202,-2.4202,-2.4202,-2.4202,-2.4202,-2.4202,-2.4202,-2.4202,-2.4202,-2.4202,-2.4202,-2.4202,-2.4202,-2.4202,-2.4202,-2.4202,-2.3438,-2.2677,-2.2677,-2.1954,-2.0987,0.0,-1.9583,-1.928,-1.8206,-1.7898,-1.7845,-1.7943,-1.8055,-1.8138,-1.8171,-1.863,-1.8957,-1.8918,-1.9368,-1.9703,-1.9768,-1.9686,-1.954,-1.9424,-1.9649,-1.9815,-1.9815,-1.9815,-1.9931,-2.0213,-2.1224,-2.1445,-2.0658,-2.2013,-2.2854,-2.3199,-2.3199,-2.4364,-2.669,-2.669,-2.7241,-2.8237,-2.7187,-2.7295,-2.8291,-2.8291,-2.8291,-2.8291,-2.8291,-2.8291,-2.8291,-2.8291,-2.8291,-2.8291,-2.8291,-2.8291,-2.8291,0.0,0.0,0.0,0.0,0.0,0.0,0.0,0.0,0.0,-4.0368,-3.9238,-3.8064,-3.682,-3.4656,-3.3096,-3.2649,-3.2077,-3.1705,-3.1705,-3.1617,-3.1572,-3.1705,-3.0913,-3.0272,-2.9806,-2.9143,-2.8473,-2.7913,-2.7913,-2.7876,-2.7746,-2.7746,-2.751,-2.6989,-2.6989,-2.6751,-2.6368,-2.6244,-2.6157,-2.6109,-2.5353,-2.5069,-2.502,-2.4449,-2.4202,-2.4202,-2.4202,-2.4202,0.0,-2.4202,-2.4202,-2.4202,-2.4202,-2.4202,-2.4202,-2.4202,-2.4202,-2.4053,-2.3388,-2.2878,-2.2375,-2.1709,-2.1242,-2.0621,-1.9487,-1.9176,-1.8916,-1.7838,-1.7582,-1.7582,-1.7582,-1.7829,-1.8035,-1.8263,-1.8812,-1.9262,-1.9381,-1.9618,-1.9873,-2.004,-1.9815,-1.9707,-1.9873,-2.0155,-2.0321,-2.0321,-2.0321,-2.0378,-2.0551,-2.1566,-2.1672,-2.0716,-2.207,-2.2862,-2.2974,-2.2805,-2.3631,-2.5452,-2.5113,-2.5287,-2.5954,-2.5223,-2.5287,-2.6009,-2.6509,-2.6907,-2.7295,-2.7853,-2.8184,-2.8291,-2.8291,-2.8291,-2.8291,-2.8291,-2.8291,-2.8291,0.0,0.0,0.0,0.0,0.0,0.0,0.0,0.0,0.0,0.0,-4.0323,-3.9249,-3.749,-3.5381,-3.4014,-3.3804,-3.2778,-3.2164,-3.2164,-3.1869,-3.1705,-3.1705,-3.1528,-3.1059,-3.0317,-3.0113,-2.9692,-2.8947,-2.8947,-2.8901,-2.8855,-2.8855,-2.8669,-2.8333,-2.8333,-2.8147,-2.7876,-2.7757,-2.7673,-2.7626,-2.6675,-2.6109,-2.5674,-2.4952,-2.4414,-2.3987,-2.3987,-2.411,-2.4183,-2.4073,-2.411,-2.4202,-2.4202,-2.4202,-2.4183,-2.4015,-2.3904,-2.3644,-2.2588,-2.2113,-2.1677,-2.07,-2.021,-1.9753,-1.8975,-1.8767,-1.8558,-1.7733,-1.7582,-1.7582,-1.7582,-1.7903,-1.8237,-1.8561,-1.9135,-1.9626,-1.9897,-1.9982,-2.0097,-2.027,-2.022,-2.0277,-2.0385,-2.0608,-2.0666,-2.0608,-2.0658,-2.0716,-2.0716,-2.1502,-2.1623,-2.0838,-2.1915,-2.2482,-2.2482,-2.2248,-2.2854,-2.4228,-2.3671,-2.3727,-2.4283,-2.4275,-2.4283,-2.4236,-2.5516,-2.6354,-2.6808,-2.7466,-2.7906,-2.8184,-2.8184,-2.8237,-2.8291,-2.8291,-2.8291,-2.8291,0.0,0.0,0.0,0.0,0.0,0.0,0.0,0.0,0.0,0.0,0.0,0.0,0.0,-3.6719,-3.5883,-3.502,-3.3901,-3.3267,-3.3267,-3.2283,-3.1705,-3.1705,-3.1705,-3.1661,-3.1661,-3.1617,-3.1617,-3.1572,-3.1572,-3.1439,-3.1217,-3.1217,-3.0543,-2.9361,-2.9361,-2.8797,-2.7913,-2.7876,-2.7876,-2.7876,-2.7829,-2.7111,-2.5983,-2.5983,-2.4929,-2.3508,-2.3508,-2.3813,-2.4137,-2.3694,-2.3822,-2.4202,-2.4202,-2.4202,-2.4128,-2.3627,-2.3242,-2.2786,-2.2111,-2.1156,-2.0189,-1.9457,-1.8454,-1.7687,-1.7635,-1.7635,-1.7635,-1.7635,-1.7582,-1.7582,-1.7582,-1.807,-1.8588,-1.8857,-1.9412,-1.9917,-2.0213,-2.0493,-2.0608,-2.0328,-2.0802,-2.1031,-2.0723,-2.0716,-2.0601,-2.0328,-2.0551,-2.0716,-2.0716,-2.0716,-2.0895,-2.1211,-2.1211,-2.1261,-2.1261,-2.1268,-2.1873,-2.303,-2.2685,-2.3183,-2.4339,-2.5177,-2.4965,-2.4047,-2.6373,-2.7377,-2.7368,-2.7377,-2.7584,-2.7906,-2.7906,-2.8067,-2.8291,-2.8291,-2.8291,-2.8291,0.0,0.0,0.0,0.0,0.0,0.0,0.0,0.0,0.0,0.0,0.0,0.0,0.0,0.0,0.0,0.0,-3.5047,-3.443,-3.443,-3.3395,-3.2766,-3.2766,-3.2077,-3.1705,-3.1705,-3.1705,-3.1705,-3.1705,-3.1705,-3.1661,-3.1572,-3.1572,-3.1339,-3.0913,-3.0913,-3.0722,-3.0396,-3.0215,-3.017,-3.0079,-2.9223,-2.8659,-2.8183,-2.7537,-2.6506,-2.541,0.0,-2.4459,-2.3767,-2.3904,-2.4082,-2.4202,-2.4202,-2.3969,-2.3675,-2.3224,-2.3197,-2.2922,-2.1303,-2.0771,-2.0268,-1.8589,-1.8408,-1.8461,-1.7733,-1.8146,-1.8454,-1.774,-1.7582,-1.7695,-1.8116,-1.8482,-1.8932,-1.9403,-1.9997,-2.0436,-2.0551,-2.0658,-2.0723,-2.0859,-2.091,-2.0902,-2.1024,-2.1024,-2.0967,-2.0917,-2.0974,-2.1024,-2.1024,-2.1024,-2.1089,-2.1211,-2.1211,-2.1211,-2.1211,-2.0967,-2.1189,-2.1816,-2.146,-2.1331,-2.1323,-2.2451,-2.2733,-2.2523,-2.4706,-2.5889,-2.6336,-2.6881,-2.7314,-2.7593,-2.7593,-2.7745,-2.8014,-2.8014,-2.813,-2.8291,0.0,0.0,0.0,0.0,0.0,0.0,0.0,0.0,0.0,0.0,0.0,0.0,0.0,0.0,0.0,0.0,0.0,-3.5548,-3.5548,-3.4513,-3.3888,-3.3888,-3.295,-3.2413,-3.2413,-3.2101,-3.1893,-3.1805,-3.1805,-3.1749,-3.1705,-3.1705,-3.1705,-3.1705,-3.1705,-3.1705,-3.1705,-3.1528,-3.1439,-3.1395,-3.0543,-2.9977,-2.9464,-2.8819,-2.7817,0.0,-2.6175,-2.5279,-2.4316,-2.4133,-2.4131,-2.4174,-2.3978,-2.3556,-2.3014,-2.2757,-2.2767,-2.2443,-2.0427,-2.0481,-2.0535,-1.8522,-1.894,-1.9539,-1.8401,-1.8715,-1.8916,-1.7838,-1.7687,-1.7894,-1.8413,-1.8823,-1.9292,-1.9871,-2.0402,-2.0716,-2.0845,-2.0902,-2.0967,-2.1153,-2.1024,-2.0967,-2.1211,-2.1211,-2.1146,-2.1024,-2.1146,-2.1146,-2.1024,-2.1146,-2.1375,-2.1816,-2.1816,-2.1816,-2.1816,-2.1631,-2.1574,-2.1645,-2.101,-2.0881,-2.1266,-2.207,-2.2628,-2.3119,-2.4816,-2.5835,-2.6172,-2.6673,-2.6999,-2.726,-2.726,-2.7422,-2.7691,-2.7691,-2.7916,-2.8184,0.0,0.0,0.0,0.0,0.0,0.0,0.0,0.0,0.0,0.0,0.0,0.0,0.0,0.0,0.0,0.0,0.0,0.0,-3.6702,-3.5682,-3.5061,-3.5061,-3.4249,-3.3746,-3.3746,-3.2957,-3.2431,-3.2157,-3.2113,-3.1981,-3.1793,-3.1749,-3.1705,-3.1705,-3.1705,-3.1705,-3.1705,-3.1705,-3.1705,-3.1705,-3.1705,-3.097,-2.9897,-2.9897,-2.8888,-2.7377,-2.6777,-2.6286,-2.5641,-2.4374,-2.4026,-2.4128,-2.3599,-2.2931,-2.23,-2.2263,-2.1998,-2.1383,-1.9733,-2.0283,-2.0895,-1.9268,-1.9898,-2.0656,-1.9531,-1.928,-1.902,-1.7996,-1.7957,-1.8211,-1.8521,-1.9082,-1.9651,-2.0256,-2.0501,-2.0823,-2.1146,-2.1211,-2.1211,-2.1211,-2.1211,-2.1211,-2.1211,-2.1211,-2.1089,-2.078,-2.1024,-2.1089,-2.0716,-2.1024,-2.1759,-2.2982,-2.2974,-2.2974,-2.2974,-2.2974,-2.2862,-2.2572,-2.1445,-2.1941,-2.3822,-2.3975,-2.4586,-2.5626,-2.6591,-2.7043,-2.6989,-2.6736,-2.6791,-2.6989,-2.6989,-2.7152,-2.7377,-2.7377,-2.7584,-2.7906,0.0,0.0,0.0,0.0,0.0,0.0,0.0,0.0,0.0,0.0,0.0,0.0,0.0,0.0,0.0,0.0,0.0,0.0,-3.781,-3.6805,-3.6201,-3.6201,-3.5224,-3.4664,-3.4664,-3.4457,-3.429,-3.4249,-3.359,-3.3262,-3.3164,-3.2307,-3.1937,-3.1906,-3.1761,-3.1705,-3.1705,-3.1705,-3.1705,-3.1705,-3.1705,-3.1528,-3.1205,-3.1205,-3.0506,-2.9432,-2.9282,-2.8082,-2.6313,-2.4849,-2.4258,-2.4082,-2.3279,-2.2913,-2.2629,-2.2025,-2.198,-2.1871,-2.064,-2.0805,-2.1088,-2.0158,-2.0816,-2.1454,-2.066,-2.0467,-2.0364,-2.0107,-1.9591,-1.9382,-1.9947,-2.0332,-2.0518,-2.0562,-2.0674,-2.0812,-2.1174,-2.1211,-2.1211,-2.1211,-2.1211,-2.1211,-2.1211,-2.1211,-2.1153,-2.1089,-2.1146,-2.1153,-2.1089,-2.1146,-2.1759,-2.2982,-2.2974,-2.2974,-2.2974,-2.2974,-2.3359,-2.4117,-2.3838,-2.383,-2.422,-2.5131,-2.558,-2.568,-2.6808,-2.7323,-2.726,-2.6999,-2.6944,-2.6989,-2.6989,-2.7152,-2.7377,-2.7377,-2.7584,-2.7853,0.0,0.0,0.0,0.0,0.0,0.0,0.0,0.0,0.0,0.0,0.0,0.0,0.0,0.0,0.0,0.0,0.0,0.0,0.0,-3.7644,-3.7285,-3.7285,-3.636,-3.5829,-3.5829,-3.5467,-3.5224,-3.5142,-3.465,-3.4361,-3.4249,-3.3632,-3.3104,-3.2729,-3.263,-3.2295,-3.1849,-3.1849,-3.1761,0.0,0.0,-3.1705,-3.1705,-3.1705,-3.1339,-3.0824,-3.0351,-2.9004,-2.7247,-2.5964,-2.4676,-2.3547,-2.305,-2.2666,-2.2282,-2.1824,-2.1851,-2.1835,-2.0795,-2.1128,-2.1613,-2.0963,-2.1718,-2.2449,-2.1769,-2.1599,-2.1497,-2.114,-2.0416,-2.0007,-2.0619,-2.0582,-2.049,-2.0674,-2.072,-2.0837,-2.1167,-2.1211,-2.1211,-2.1211,-2.1211,-2.1211,-2.1211,-2.1211,-2.1211,-2.1211,-2.1211,-2.1211,-2.1211,-2.1211,-2.1979,-2.3687,-2.3743,-2.4022,-2.4531,-2.4022,-2.4347,-2.5452,-2.4948,-2.5168,-2.6063,-2.6191,-2.6463,-2.6789,-2.7359,-2.7638,-2.7593,-2.7152,-2.6989,-2.6989,-2.6989,-2.7098,-2.726,-2.7377,-2.7584,-2.7853,0.0,0.0,0.0,0.0,0.0,0.0,0.0,0.0,0.0,0.0,0.0,0.0,0.0,0.0,0.0,0.0,0.0,0.0,0.0,0.0,-3.8202,-3.8202,-3.7491,-3.7053,-3.7053,-3.6346,-3.5855,-3.5655,-3.5588,-3.5427,-3.5264,-3.5102,-3.465,-3.3914,-3.3872,-3.3305,-3.2407,-3.2276,-3.2145,-3.1957,-3.1793,-3.1749,-3.1761,0.0,-3.1705,-3.1572,-3.0543,-2.9475,-2.8366,-2.7342,-2.5336,-2.3251,-2.3007,-2.2428,-2.1805,-2.175,-2.1696,-2.1508,-2.0718,-2.1327,-2.2116,-2.1768,-2.2568,-2.3284,-2.2833,-2.2627,-2.2417,-2.1844,-2.1089,-2.0671,-2.1013,-2.0566,-2.0262,-2.0549,-2.0633,-2.0772,-2.1101,-2.1181,-2.1211,-2.1211,-2.1211,-2.1211,-2.1211,-2.1211,-2.1211,-2.1211,-2.1211,-2.1211,-2.1211,-2.1211,-2.2256,-2.4616,-2.4837,-2.5507,-2.6744,-2.5562,-2.5562,-2.6744,-2.5672,-2.6282,-2.8237,-2.7187,-2.7241,-2.8237,-2.796,-2.7853,-2.7799,-2.7206,-2.6989,-2.6989,-2.7043,-2.7043,-2.7098,-2.7368,-2.7638,-2.7906,0.0,0.0,0.0,0.0,0.0,0.0,0.0,0.0,0.0,0.0,-4.4433,-4.3319,0.0,0.0,0.0,0.0,0.0,0.0,0.0,0.0,0.0,-3.8202,-3.8037,-3.7962,-3.7962,-3.7834,-3.772,-3.7682,-3.6975,-3.661,-3.657,-3.5669,-3.5183,-3.502,-3.4856,-3.465,-3.4415,-3.3716,-3.3377,-3.325,-3.232,-3.1937,-3.195,-3.1761,0.0,0.0,-3.0543,-2.9943,-2.9395,-2.8366,-2.6837,-2.5051,-2.3683,-2.2926,-2.2435,-2.1877,-2.1696,-2.1651,-2.1508,-2.1652,-2.1925,-2.2525,-2.2817,-2.3149,-2.3781,-2.337,-2.3053,-2.3768,-2.3502,-2.2802,-2.2021,-2.1978,-2.1564,-2.0178,-2.015,-2.038,-2.0757,-2.1042,-2.1211,-2.1211,-2.1211,-2.1211,-2.1211,-2.1211,-2.1211,-2.1211,-2.1211,-2.1211,-2.1211,-2.1211,-2.2256,-2.4616,-2.568,-2.6799,-2.796,-2.6799,-2.6799,-2.796,-2.7789,-2.7897,-2.8291,-2.7853,-2.7789,-2.796,-2.7647,-2.7485,-2.7476,-2.7152,-2.6989,-2.7043,-2.726,-2.7314,-2.7368,-2.7691,-2.7853,-2.7853,0.0,0.0,0.0,0.0,0.0,0.0,0.0,-4.7671,-4.7404,-4.7287,-4.5992,-4.4644,-4.3626,-4.2798,-4.2,0.0,0.0,0.0,0.0,0.0,0.0,0.0,-3.8202,-3.8202,-3.8202,-3.8202,-3.8202,-3.8202,0.0,-3.7567,-3.7567,-3.7039,-3.6557,-3.6122,-3.6042,-3.5669,-3.5102,-3.4236,-3.3788,-3.3619,-3.2612,-3.2213,-3.2169,0.0,0.0,0.0,-3.1149,-3.0913,-3.0644,-2.9612,-2.8427,-2.6973,-2.4792,-2.3309,-2.2303,-2.184,-2.1696,-2.1696,-2.1696,-2.1696,-2.1833,-2.2428,-2.2748,-2.3059,-2.3703,-2.3781,-2.3917,-2.4578,-2.4174,-2.361,-2.3194,-2.2793,-2.2257,-2.1563,-2.1231,-2.1146,-2.1488,-2.1331,-2.1211,-2.1211,-2.1211,-2.1432,-2.2093,-2.1546,-2.1489,-2.2101,-2.1539,-2.1211,-2.1211,-2.2361,-2.3855,-2.5571,-2.6799,-2.7736,-2.8291,-2.7745,-2.7745,-2.8291,-2.8291,-2.8291,-2.8291,-2.8184,-2.8014,-2.7906,-2.7745,-2.7584,-2.7377,-2.7098,-2.6989,-2.6989,-2.7152,-2.726,-2.7431,-2.7584,-2.7862,-2.8077,0.0,0.0,0.0,0.0,0.0,0.0,0.0,-4.8001,-4.8001,-4.8001,-4.7303,-4.6134,-4.4342,-4.3937,-4.3211,0.0,0.0,0.0,0.0,0.0,0.0,0.0,0.0,0.0,-3.8202,0.0,0.0,-3.8202,-3.8202,0.0,0.0,0.0,0.0,0.0,-3.7169,-3.6713,-3.5855,-3.5007,-3.4513,0.0,0.0,-3.2754,-3.2711,0.0,0.0,0.0,0.0,-3.1761,-3.1572,-3.0779,-2.9737,-2.8407,-2.6241,-2.4138,-2.2388,-2.2122,-2.1909,-2.1696,-2.1696,-2.1696,-2.1787,-2.2181,-2.2529,-2.2876,-2.3327,-2.3973,-2.4555,-2.4809,-2.4473,-2.4125,-2.4097,-2.3384,-2.2839,-2.2886,-2.2476,-2.2282,-2.2564,-2.1994,-2.1653,-2.1923,-2.1482,-2.1759,-2.3191,-2.2312,-2.1987,-2.2926,-2.1873,-2.1318,-2.1596,-2.3575,-2.5223,-2.6472,-2.7682,-2.8291,-2.8291,-2.8291,-2.8291,-2.8291,-2.8291,-2.8291,-2.8291,-2.8184,-2.796,-2.7799,-2.7691,-2.7485,-2.7215,-2.6999,-2.6881,-2.6944,-2.6989,-2.7152,-2.7323,-2.7377,-2.7755,-2.8184,0.0,0.0,0.0,0.0,0.0,0.0,0.0,-4.8001,-4.8001,-4.8001,-4.7935,-4.7438,-4.6327,-4.5306,-4.4319,0.0,0.0,0.0,0.0,0.0,0.0,0.0,0.0,0.0,0.0,0.0,0.0,-3.8202,-3.8202,0.0,0.0,0.0,0.0,0.0,0.0,-3.8037,-3.7886,-3.7,0.0,0.0,0.0,0.0,0.0,0.0,0.0,0.0,0.0,-3.1849,-3.1705,-3.1617,-3.0331,-2.872,-2.8211,-2.6011,-2.3584,-2.3304,-2.2501,-2.1696,-2.1696,-2.1696,-2.1787,-2.2181,-2.2309,-2.2539,-2.3158,-2.3852,-2.4382,-2.4679,-2.5121,-2.5226,-2.4295,-2.4038,-2.3651,-2.2686,-2.3039,-2.3464,-2.3498,-2.3096,-2.3191,-2.4283,-2.2474,-2.2093,-2.4339,-2.3528,-2.2869,-2.2974,-2.1873,-2.1653,-2.2757,-2.4014,-2.5223,-2.6472,-2.7682,-2.8291,-2.8291,-2.8291,-2.8291,-2.8291,-2.8291,-2.8291,-2.8291,-2.7755,-2.7485,-2.7431,-2.6954,-2.6691,-2.6691,-2.6646,-2.6636,-2.6636,-2.689,-2.7043,-2.7043,-2.7314,-2.7638,-2.7906,0.0,0.0,0.0,0.0,0.0,0.0,-4.8001,-4.8001,-4.8001,-4.8001,-4.8001,-4.7853,-4.7454,-4.6896,-4.5937,-4.4395,0.0,0.0,0.0,0.0,0.0,0.0,0.0,0.0,0.0,0.0,-3.8202,-3.8202,-3.8202,0.0,0.0,0.0,0.0,0.0,0.0,-3.8202,-3.8127,-3.7246,0.0,0.0,0.0,0.0,0.0,0.0,0.0,0.0,0.0,0.0,-3.1705,-3.1705,-3.0778,-2.9555,-2.9459,-2.766,-2.5347,-2.4039,-2.3323,-2.2853,-2.2255,-2.2043,-2.2,-2.2158,-2.238,-2.2667,-2.3168,-2.3928,-2.4641,-2.4986,-2.5421,-2.5586,-2.5118,-2.5069,-2.4913,-2.452,-2.4321,-2.4284,-2.4524,-2.4068,-2.3938,-2.4646,-2.3902,-2.3966,-2.5626,-2.4735,-2.4014,-2.4014,-2.3575,-2.3855,-2.5029,-2.4846,-2.5617,-2.752,-2.8077,-2.8291,-2.8291,-2.8291,-2.8291,-2.8291,-2.813,-2.8067,-2.8014,-2.7584,-2.7314,-2.7152,-2.6944,-2.6736,-2.6591,-2.6591,-2.6591,-2.6591,-2.6745,-2.6836,-2.6989,-2.6954,-2.7215,-2.7584,0.0,0.0,0.0,0.0,0.0,-4.8001,-4.8001,-4.8001,-4.8001,-4.8001,-4.8001,-4.8001,-4.8001,-4.7853,-4.722,-4.5794,-4.4939,0.0,0.0,0.0,0.0,0.0,0.0,0.0,0.0,0.0,-3.8202,-3.8202,-3.8202,-3.8202,0.0,0.0,-3.8202,-3.8202,0.0,0.0,0.0,0.0,0.0,0.0,0.0,0.0,0.0,0.0,0.0,0.0,0.0,0.0,0.0,0.0,0.0,-3.0086,-3.0086,-2.8793,-2.6905,-2.4893,-2.4049,-2.3584,-2.2652,-2.2309,-2.2185,-2.2097,-2.244,-2.2914,-2.3195,-2.4013,-2.4794,-2.5179,-2.5499,-2.5693,-2.5693,-2.5693,-2.5693,-2.5693,-2.5372,-2.5219,-2.5498,-2.5047,-2.4877,-2.5522,-2.5044,-2.5287,-2.6907,-2.5954,-2.5223,-2.5223,-2.4893,-2.5232,-2.6418,-2.568,-2.6173,-2.8237,-2.8291,-2.8291,-2.8291,-2.8291,-2.8291,-2.8291,-2.8014,-2.7906,-2.7906,-2.7476,-2.7152,-2.6989,-2.6944,-2.6791,-2.6591,-2.6591,-2.6591,-2.6591,-2.6591,-2.6745,-2.6836,-2.6691,-2.6899,-2.7251,0.0,0.0,0.0,0.0,0.0,0.0,-4.8001,-4.8001,-4.8001,-4.8001,-4.8001,-4.8001,-4.8001,-4.8001,-4.7886,-4.7704,-4.6742,0.0,0.0,0.0,0.0,0.0,0.0,0.0,0.0,0.0,-3.8202,-3.8202,-3.8202,-3.8202,-3.8202,-3.8202,-3.8202,-3.8202,0.0,0.0,0.0,0.0,0.0,0.0,0.0,0.0,0.0,0.0,0.0,0.0,0.0,0.0,0.0,0.0,0.0,0.0,0.0,-2.9364,-2.8087,-2.608,-2.4681,-2.3584,-2.2652,-2.2397,-2.2353,-2.2141,-2.2584,-2.3112,-2.3121,-2.3934,-2.4774,-2.5068,-2.543,-2.5693,-2.5693,-2.5693,-2.5693,-2.5693,-2.6103,-2.6387,-2.6396,-2.6121,-2.6321,-2.7509,-2.5937,-2.5663,-2.8067,-2.7187,-2.6472,-2.6472,-2.5397,-2.5232,-2.6418,-2.6472,-2.7025,-2.8237,-2.8291,-2.8291,-2.8291,-2.8291,-2.8291,-2.8291,-2.8014,-2.7906,-2.7906,-2.726,-2.6989,-2.6989,-2.6745,-2.6591,-2.6591,-2.6591,-2.6591,-2.6591,-2.6591,-2.6591,-2.6591,-2.6591,-2.6791,-2.6987,0.0,0.0,0.0,0.0,0.0,0.0,0.0,-4.8001,-4.8001,-4.8001,-4.8001,-4.8001,-4.8001,-4.8001,-4.7968,-4.7886,-4.7488,0.0,0.0,0.0,0.0,0.0,0.0,0.0,0.0,0.0,-3.8202,-3.8202,-3.8202,-3.8202,-3.8202,-3.8202,-3.8202,-3.8202,-3.8202,-3.8202,0.0,0.0,0.0,0.0,0.0,0.0,-3.4314,0.0,0.0,0.0,0.0,0.0,0.0,0.0,0.0,0.0,0.0,0.0,0.0,-2.7154,-2.5955,-2.4808,-2.3299,-2.2794,-2.2729,-2.2926,-2.3143,-2.3482,-2.4057,-2.4581,-2.5061,-2.5421,-2.5586,-2.5693,-2.5693,-2.5693,-2.5693,-2.5693,-2.5801,-2.6045,-2.6348,-2.6309,-2.6583,-2.7598,-2.737,-2.7457,-2.8237,-2.796,-2.7736,-2.7736,-2.7403,-2.734,-2.7736,-2.7736,-2.7906,-2.8291,-2.8291,-2.8291,-2.8291,-2.8291,-2.8291,-2.8291,-2.7809,-2.7539,-2.7539,-2.7008,-2.6745,-2.6745,-2.6636,-2.6591,-2.6591,-2.6591,-2.6591,-2.6591,-2.6591,-2.6591,-2.6591,-2.6591,-2.6453,-2.6347,0.0,0.0,0.0,0.0,0.0,0.0,0.0,-4.8001,-4.8001,-4.8001,-4.8001,-4.8001,-4.8001,-4.8001,-4.8001,-4.8001,-4.7886,0.0,0.0,0.0,0.0,0.0,0.0,0.0,-3.932,-3.8863,-3.8486,-3.8202,-3.8202,-3.8202,-3.8202,-3.8202,-3.8202,-3.8202,-3.8202,-3.8202,0.0,0.0,0.0,0.0,0.0,0.0,-3.4772,0.0,0.0,0.0,0.0,0.0,0.0,0.0,0.0,0.0,0.0,0.0,0.0,0.0,-2.6805,-2.5913,-2.4112,-2.3517,-2.3408,-2.3403,-2.358,-2.3924,-2.4572,-2.5005,-2.54,-2.5635,-2.5693,-2.5693,-2.5693,-2.5693,-2.5693,-2.5693,-2.5693,-2.5781,-2.6103,-2.6279,-2.6709,-2.7611,-2.79,-2.8115,-2.8281,-2.8291,-2.8291,-2.8291,-2.8291,-2.8291,-2.8291,-2.8291,-2.8291,-2.8291,-2.8291,-2.8291,-2.8291,-2.8291,-2.8291,-2.8291,-2.7809,-2.7539,-2.7377,-2.6954,-2.6691,-2.6591,-2.6591,-2.6591,0.0,-2.6591,-2.6591,-2.6591,-2.6591,-2.6591,-2.6564,-2.6408,-2.6241,-2.6019,0.0,0.0,0.0,0.0,0.0,0.0,0.0,-4.8001,-4.8001,-4.8001,-4.8001,-4.8001,-4.8001,-4.8001,-4.8001,-4.8001,0.0,0.0,0.0,0.0,0.0,0.0,0.0,0.0,-3.9484,-3.9412,-3.903,-3.8375,-3.83,-3.8277,-3.8277,-3.824,-3.8202,-3.8202,-3.8202,-3.8202,-3.8202,-3.8202,-3.8202,-3.8127,-3.7246,-3.6399,0.0,0.0,0.0,0.0,0.0,0.0,0.0,0.0,0.0,0.0,0.0,0.0,0.0,0.0,0.0,0.0,0.0,-2.4616,-2.4354,-2.3746,-2.3984,-2.4495,-2.4716,-2.5237,0.0,-2.5693,-2.5693,-2.5693,-2.5693,-2.5693,-2.5693,-2.5693,-2.5693,-2.5693,-2.5693,-2.6113,-2.668,-2.7532,-2.765,-2.7826,-2.8164,-2.8203,-2.8203,-2.8203,-2.8203,-2.8203,-2.8203,-2.8203,-2.8203,-2.8203,-2.8203,-2.8232,-2.8291,-2.8291,-2.8291,-2.8291,-2.8014,-2.7745,-2.7431,-2.7152,-2.689,-2.6646,-2.6646,-2.6646,-2.6591,-2.6591,-2.6591,-2.6591,-2.6591,-2.6573,-2.649,-2.6159,-2.5975,-2.5862,0.0,0.0,0.0,0.0,0.0,0.0,0.0,0.0,0.0,0.0,-4.8001,-4.8001,-4.8001,-4.8001,-4.8001,0.0,0.0,0.0,0.0,0.0,0.0,0.0,0.0,0.0,-4.1211,-4.0519,-4.0069,-3.9859,-3.932,-3.903,-3.903,-3.8472,-3.8202,-3.8202,-3.8202,-3.8202,-3.8202,-3.8202,-3.8202,-3.8127,-3.7246,-3.6766,0.0,0.0,0.0,0.0,-3.3283,-3.2853,0.0,0.0,0.0,0.0,0.0,0.0,0.0,0.0,-2.8179,-2.7966,-2.6846,0.0,-2.4598,-2.509,-2.483,-2.4573,0.0,-2.5615,-2.5693,-2.5693,-2.5693,-2.5693,-2.5693,-2.5693,-2.5693,-2.5693,-2.5693,-2.5693,-2.5693,-2.6113,-2.6465,-2.667,-2.6973,-2.7207,-2.7305,-2.7314,-2.7314,-2.7314,-2.7314,-2.7314,-2.7314,-2.7314,-2.7314,-2.7314,-2.7314,-2.7627,-2.8281,-2.8291,-2.8291,-2.8291,-2.8014,-2.7853,-2.7745,-2.7422,-2.7161,-2.689,-2.689,-2.6791,-2.6591,-2.6591,-2.6591,-2.6591,-2.6591,-2.6389,-2.6149,-2.6048,-2.5712,-2.5345,0.0,0.0,0.0,0.0,0.0,0.0,0.0,0.0,0.0,0.0,0.0,0.0,0.0,0.0,0.0,0.0,0.0,0.0,0.0,0.0,0.0,0.0,0.0,-4.2912,-4.1672,-4.1178,-4.0554,-3.9894,-3.9484,-3.9139,-3.8789,-3.8375,-3.8202,-3.8202,-3.8202,-3.8202,-3.8202,-3.8202,-3.8202,-3.8165,-3.7682,0.0,0.0,0.0,0.0,0.0,-3.4021,-3.3501,0.0,-3.2308,-3.1834,-3.1411,0.0,0.0,0.0,0.0,-2.851,-2.8391,-2.7926,-2.6464,-2.5221,-2.5661,-2.5083,-2.4648,-2.5489,-2.5693,-2.5693,-2.5693,-2.5693,-2.5693,-2.5693,-2.5693,-2.5693,-2.5693,-2.5693,-2.5693,-2.5693,-2.5937,-2.6162,-2.6367,-2.6592,-2.6807,-2.6992,-2.7012,-2.7012,-2.7012,-2.7012,-2.7012,-2.7012,-2.7012,-2.7012,-2.7012,-2.7012,-2.7236,-2.7705,-2.7705,-2.7705,-2.7705,-2.7742,-2.7733,-2.7564,-2.7605,-2.7476,-2.7152,-2.7152,-2.7107,-2.6963,-2.6845,-2.6845,-2.6935,-2.665,-2.6375,-2.6134,-2.585,-2.5475,-2.5157,0.0,0.0,0.0,0.0,0.0,0.0,0.0,0.0,0.0,0.0,0.0,0.0,0.0,0.0,0.0,0.0,0.0,0.0,0.0,0.0,0.0,0.0,-4.4751,-4.3588,-4.1912,-4.1753,-4.101,-3.9626,-3.952,-3.9103,-3.8375,-3.824,-3.8202,-3.8202,-3.8202,-3.8202,-3.8202,-3.8202,-3.8202,-3.8202,-3.8202,0.0,0.0,0.0,0.0,0.0,0.0,0.0,0.0,-3.2193,-3.1429,-3.0949,-2.9716,0.0,0.0,0.0,0.0,0.0,-2.851,-2.7284,-2.5995,-2.5923,-2.526,-2.4815,-2.5449,-2.5635,-2.5693,-2.5693,-2.5693,-2.5693,-2.5693,-2.5693,-2.5693,-2.5693,-2.5693,-2.5693,-2.5693,-2.5693,-2.583,-2.625,-2.6289,-2.6435,-2.6787,-2.6816,-2.6816,-2.6816,-2.6816,-2.6816,-2.6816,-2.6816,-2.6816,-2.6816,-2.6816,-2.6816,-2.6816,-2.6953,-2.7012,-2.7021,-2.7393,-2.7454,-2.7184,-2.7603,-2.7607,-2.7296,-2.7296,-2.7242,-2.7188,-2.6964,-2.7027,-2.7151,-2.6589,-2.6315,-2.6218,-2.5701,-2.5349,-2.5145,0.0,0.0,0.0,0.0,0.0,0.0,0.0,0.0,0.0,0.0,0.0,0.0,0.0,0.0,0.0,0.0,0.0,0.0,0.0,0.0,0.0,-4.6291,-4.5504,-4.4656,-4.3621,-4.2846,-4.2013,-4.1178,-4.0519,-3.9859,-3.9103,-3.8472,-3.8202,-3.8202,-3.8202,-3.8202,-3.8202,-3.8202,-3.8202,-3.8202,-3.8202,0.0,0.0,0.0,0.0,0.0,0.0,0.0,0.0,-3.2437,-3.1553,-3.0695,-2.9841,0.0,0.0,0.0,0.0,0.0,-2.851,-2.7765,-2.69,-2.6475,-2.5999,-2.5544,-2.5238,-2.5469,-2.5693,-2.5693,-2.5693,-2.5693,-2.5693,-2.5693,-2.5693,-2.5693,-2.5693,-2.5693,-2.5693,-2.5693,-2.5713,-2.5781,-2.5791,-2.581,-2.5879,-2.5888,-2.5888,-2.5888,-2.5888,-2.5888,-2.5888,-2.5888,-2.5888,-2.5888,-2.5888,-2.5888,-2.5888,-2.665,-2.7012,-2.7012,-2.708,-2.7058,-2.7007,-2.7126,-2.7001,-2.6733,-2.6733,-2.6578,-2.6277,-2.6277,-2.6277,-2.6267,-2.621,-2.5956,-2.5616,-2.5535,-2.5379,-2.5321,0.0,0.0,0.0,0.0,0.0,0.0,0.0,0.0,0.0,0.0,0.0,0.0,0.0,0.0,0.0,0.0,0.0,0.0,0.0,0.0,-4.7605,-4.7028,-4.5897,-4.482,-4.3863,-4.3038,-4.2045,-4.0909,-4.0554,-3.9824,-3.8694,-3.8375,-3.8202,-3.8202,-3.8202,-3.8202,-3.8202,-3.8202,-3.8202,-3.8202,0.0,0.0,0.0,0.0,0.0,0.0,0.0,0.0,0.0,0.0,-3.0798,-3.0249,-2.9419,0.0,0.0,0.0,0.0,0.0,-2.851,-2.8219,-2.7679,-2.6729,-2.6167,-2.5706,-2.5196,-2.541,-2.5693,-2.5693,-2.5693,-2.5693,-2.5693,-2.5693,-2.5693,-2.5693,-2.5693,-2.5693,-2.5693,-2.5693,-2.5693,-2.5693,-2.5693,-2.5693,-2.5693,-2.5693,-2.5693,-2.5693,-2.5693,-2.5693,-2.5693,-2.5693,-2.5693,-2.5693,-2.5693,-2.5693,-2.5693,-2.6074,-2.6328,-2.6278,-2.6562,-2.668,-2.668,-2.6914,-2.691,-2.6807,-2.6807,-2.6756,-2.6551,-2.6448,-2.6448,-2.6532,-2.6139,-2.5879,-2.5729,-2.55,-2.5447,-2.5538,0.0,0.0,0.0,0.0,0.0,0.0,0.0,0.0,0.0,0.0,0.0,0.0,0.0,0.0,0.0,0.0,0.0,0.0,0.0,0.0,-4.7803,-4.7504,-4.6209,-4.5016,-4.3978,-4.2912,-4.1689,-4.0382,-4.0243,-3.9484,-3.8202,-3.8202,-3.8202,-3.8202,-3.8202,-3.8202,-3.8202,-3.8202,-3.8202,-3.8202,0.0,0.0,0.0,0.0,0.0,0.0,0.0,0.0,0.0,0.0,0.0,0.0,0.0,0.0,0.0,-2.851,-2.851,-2.851,-2.851,-2.851,-2.8177,-2.6814,-2.6299,-2.5923,-2.5243,-2.541,-2.5693,-2.5693,-2.5693,-2.5693,-2.5693,-2.5693,-2.5693,-2.5693,-2.5693,-2.5693,-2.5693,-2.5693,-2.5693,-2.5693,-2.5693,-2.5693,-2.5693,-2.5693,-2.5693,-2.5693,-2.5693,-2.5693,-2.5693,-2.5693,-2.5693,-2.5693,-2.5693,-2.5693,-2.5693,-2.5693,-2.5693,-2.5693,-2.6074,-2.624,-2.625,-2.6572,-2.6719,-2.6719,-2.6719,-2.6719,-2.6668,-2.6456,-2.6507,-2.6629,-2.6089,-2.5873,-2.5894,-2.5507,-2.5538,-2.5693,0.0,0.0,0.0,0.0,0.0,0.0,0.0,0.0,0.0,0.0,0.0,0.0,0.0,0.0,0.0,0.0,0.0,0.0,0.0,0.0,-4.7654,-4.752,-4.6567,-4.5635,-4.4723,-4.265,-4.1178,-4.0382,-3.9718,-3.8957,-3.8202,-3.8202,-3.8202,-3.8202,-3.8202,-3.8202,-3.8202,-3.8202,-3.8202,-3.8202,-3.8202,0.0,0.0,0.0,0.0,0.0,0.0,0.0,0.0,0.0,0.0,0.0,0.0,0.0,-2.851,-2.851,-2.851,-2.851,-2.851,-2.851,-2.8177,-2.6814,-2.678,-2.6668,-2.5374,-2.541,-2.5693,-2.5693,-2.5693,-2.5693,-2.5693,-2.5693,-2.5693,-2.5693,-2.5693,-2.5693,-2.5693,-2.5693,-2.5693,-2.5693,-2.5693,-2.5693,-2.5693,-2.5693,-2.5693,-2.5693,-2.5693,-2.5693,-2.5693,-2.5693,-2.5693,-2.5693,-2.5693,-2.5693,-2.5693,-2.5693,-2.5693,-2.5693,-2.5713,-2.5732,-2.5732,-2.5762,-2.5781,-2.5781,-2.5781,-2.5781,-2.5781,-2.5781,-2.5781,-2.5771,-2.5742,-2.5732,-2.5732,-2.5693,-2.5684,-2.5693,0.0,0.0,0.0,0.0,0.0,0.0,0.0,0.0,0.0,0.0,0.0,0.0,0.0,0.0,0.0,0.0,0.0,0.0,0.0,-4.7935,-4.777,-4.7504,-4.6699,-4.5815,-4.4804,-4.3064,-4.1617,-4.0382,-3.9211,-3.8472,-3.8202,-3.8202,-3.8202,-3.8202,-3.8202,-3.8202,-3.8202,-3.8202,-3.8202,-3.8173,-3.7796,-3.7506,0.0,0.0,0.0,0.0,0.0,0.0,0.0,0.0,-3.019,-2.9275,-2.9131,-2.8934,-2.8657,-2.855,-2.851,-2.851,-2.851,-2.851,-2.8381,-2.7918,-2.7425,-2.6758,-2.5431,-2.541,-2.5693,-2.5693,-2.5693,-2.5693,-2.5693,-2.5693,-2.5693,-2.5693,-2.5693,-2.5693,-2.5693,-2.5693,-2.5693,-2.5693,-2.5693,-2.5693,-2.5693,-2.5693,-2.5693,-2.5693,-2.5693,-2.5693,-2.5693,-2.5693,-2.5693,-2.5693,-2.5693,-2.5693,-2.5693,-2.5693,-2.5693,-2.5693,-2.5693,-2.5693,-2.5693,-2.5693,-2.5693,-2.5693,-2.5693,-2.5693,-2.5693,-2.5693,-2.5693,-2.5693,-2.5693,-2.5693,-2.5693,-2.5693,-2.5693,-2.5693,0.0,0.0,0.0,0.0,0.0,0.0,0.0,0.0,0.0,0.0,0.0,0.0,0.0,0.0,0.0,0.0,0.0,0.0,-4.8001,-4.7935,-4.777,-4.7504,-4.6962,-4.6077,-4.4853,-4.3591,-4.2103,-4.0382,-3.8936,-3.8202,-3.8202,-3.8202,-3.8202,-3.8202,-3.8202,-3.8202,-3.8202,-3.8202,-3.8086,-3.7883,-3.7476,-3.7056,0.0,0.0,0.0,0.0,0.0,0.0,0.0,0.0,-3.0228,-2.9341,-2.917,-2.8961,-2.8764,-2.8538,-2.851,-2.851,-2.851,-2.8631,-2.8724,-2.863,-2.7986,-2.7061,-2.5987,-2.5738,-2.5693,-2.5693,-2.5693,-2.5693,-2.5693,-2.5693,-2.5693,-2.5693,-2.5693,-2.5693,-2.5693,-2.5693,-2.5693,-2.5693,-2.5693,-2.5693,-2.5693,-2.5693,-2.5693,-2.5693,-2.5693,-2.5693,-2.5693,-2.5693,-2.5693,-2.5693,-2.5693,-2.5693,-2.5693,-2.5693,-2.5693,-2.5693,-2.5693,-2.5693,-2.5693,-2.5693,-2.5693,-2.5693,-2.5693,-2.5693,-2.5693,-2.5693,-2.5693,-2.5693,-2.5693,-2.5693,-2.5693,-2.5693,-2.5693,-2.5693,0.0,0.0,0.0,0.0,0.0,0.0,0.0,0.0,0.0,0.0,0.0,0.0,0.0,0.0,0.0,0.0,0.0,0.0,-4.8001,-4.782,-4.7654,-4.752,-4.7301,-4.6448,-4.482,-4.4054,-4.2592,-4.0382,-3.8936,-3.8202,-3.8202,-3.8202,-3.8202,-3.8202,-3.8202,-3.8202,-3.8202,-3.8188,-3.7854,-3.7302,-3.7302,-3.6519,-3.5392,0.0,0.0,0.0,0.0,0.0,0.0,0.0,-3.0228,-2.938,-2.917,-2.8961,-2.8764,-2.8538,-2.851,-2.851,-2.851,-2.8895,-2.9194,-2.8722,-2.8232,-2.7761,-2.7311,-2.6418,-2.5693,-2.5693,-2.5693,-2.5693,-2.5693,-2.5693,-2.5693,-2.5693,-2.5693,-2.5693,-2.5693,-2.5693,-2.5693,-2.5693,-2.5693,-2.5693,-2.5693,-2.5693,-2.5693,-2.5693,-2.5693,-2.5693,-2.5693,-2.5693,-2.5693,-2.5693,-2.5693,-2.5693,-2.5693,-2.5693,-2.5693,-2.5693,-2.5693,-2.5693,-2.5693,-2.5693,-2.5693,-2.5693,-2.5693,-2.5693,-2.5693,-2.5693,-2.5693,-2.5693,-2.5693,-2.5693,-2.5693,-2.5693,-2.5693,-2.5693,0.0,0.0,0.0,0.0,0.0,0.0,0.0,0.0,0.0,0.0,0.0,0.0,0.0,0.0,0.0,0.0,0.0,0.0,-4.8001,-4.782,-4.7654,-4.752,-4.7301,-4.6448,-4.482,-4.2545,-4.0782,-3.9626,-3.8694,-3.8202,-3.8202,-3.8202,-3.8202,-3.8202,-3.8202,-3.8202,-3.8173,-3.7752,-3.7476,-3.723,-3.6315,-3.5741,-3.5348,0.0,0.0,0.0,0.0,0.0,0.0,0.0,0.0,0.0,-2.9392,-2.9052,-2.8934,-2.859,-2.851,-2.851,-2.851,-2.8631,-2.8874,-2.9511,-2.8509,-2.7496,-2.8114,-2.6924,-2.5693,-2.5693,-2.5693,-2.5693,-2.5693,-2.5693,-2.5693,-2.5693,-2.5693,-2.5693,-2.5693,-2.5693,-2.5693,-2.5693,-2.5693,-2.5693,-2.5693,-2.5693,-2.5693,-2.5693,-2.5693,-2.5693,-2.5693,-2.5693,-2.5693,-2.5693,-2.5693,-2.5693,-2.5693,-2.5693,-2.5693,-2.5693,-2.5693,-2.5693,-2.5693,-2.5693,-2.5693,-2.5693,-2.5693,-2.5693,-2.5693,-2.5693,-2.5693,-2.5693,-2.5693,-2.5693,-2.5693,-2.5693,-2.5693,-2.5693,0.0,0.0,0.0,0.0,0.0,0.0,0.0,0.0,0.0,0.0,-4.8001,-4.8001,0.0,0.0,0.0,0.0,0.0,0.0,0.0,-4.7754,-4.7588,-4.7504,-4.7217,-4.6228,-4.4422,-4.2063,-4.0344,-3.9305,-3.8546,-3.8202,-3.8202,-3.8202,-3.8202,-3.8202,-3.8202,-3.8202,-3.8159,-3.7564,-3.7157,-3.6823,-3.5813,-3.5247,-3.4951,0.0,0.0,0.0,0.0,0.0,0.0,0.0,0.0,0.0,-2.9392,-2.9091,-2.9013,-2.863,-2.851,-2.851,-2.851,-2.8667,-2.9027,-2.9881,-2.8729,-2.7426,-2.7494,-2.6562,-2.5693,-2.5693,-2.5693,-2.5693,-2.5693,-2.5693,-2.5693,-2.5693,-2.5693,-2.5693,-2.5693,-2.5693,-2.5693,-2.5693,-2.5693,-2.5693,-2.5693,-2.5693,-2.5693,-2.5693,-2.5693,-2.5693,-2.5693,-2.5693,-2.5693,-2.5693,-2.5693,-2.5693,-2.5693,-2.5693,-2.5693,-2.5693,-2.5693,-2.5693,-2.5693,-2.5693,-2.5693,-2.5693,-2.5693,-2.5693,-2.5693,-2.5693,-2.5693,-2.5693,-2.5693,-2.5693,-2.5693,-2.5693,-2.5693,-2.5693,0.0,0.0,-4.8049,-4.8001,0.0,0.0,0.0,0.0,0.0,0.0,-4.8001,-4.8001,0.0,0.0,0.0,-4.8001,-4.8001,-4.8001,-4.8001,-4.7671,-4.752,-4.752,-4.7033,-4.5824,-4.3762,-4.2245,-4.0792,-3.9305,-3.8546,-3.8202,-3.8202,-3.8202,-3.8202,-3.8202,-3.8202,-3.8173,-3.8086,-3.7476,-3.6838,-3.617,-3.5566,-3.4936,-3.4414,-3.4414,0.0,0.0,0.0,0.0,0.0,0.0,0.0,0.0,-2.9248,-2.9091,-2.9013,-2.863,-2.851,-2.851,-2.851,-2.8859,-2.9364,-2.9941,-2.9036,-2.7551,-2.6059,-2.5693,-2.5693,-2.5693,-2.5693,-2.5693,-2.5693,-2.5693,-2.5693,-2.5693,-2.5693,-2.5693,-2.5693,-2.5693,-2.5693,-2.5693,-2.5693,-2.5693,-2.5693,-2.5693,-2.5693,-2.5693,-2.5693,-2.5693,-2.5693,-2.5693,-2.5693,-2.5693,-2.5693,-2.5693,-2.5693,-2.5693,-2.5693,-2.5693,-2.5693,-2.5693,-2.5693,-2.5693,-2.5693,-2.5693,-2.5693,-2.5693,-2.5693,-2.5693,-2.5693,-2.5693,-2.5693,-2.5693,-2.5693,-2.5693,-2.5693,-2.5693,0.0,0.0,-4.856,-4.8082,0.0,0.0,0.0,0.0,0.0,0.0,0.0,0.0,0.0,-4.8001,0.0,-4.8001,-4.8001,-4.8001,-4.8001,-4.7671,-4.752,-4.752,-4.6562,-4.5309,-4.3712,-4.2245,-4.0792,-3.9305,-3.8546,-3.8202,-3.8202,-3.8202,-3.8202,-3.8202,-3.8202,-3.7941,-3.7462,-3.6794,-3.6156,-3.5552,-3.4878,-3.453,-3.4414,-3.4414,-3.4414,0.0,0.0,0.0,0.0,0.0,0.0,0.0,-2.9431,-2.9091,-2.9013,-2.863,-2.851,-2.851,-2.851,-2.8595,-2.8907,-2.9845,-2.9299,-2.805,-2.6129,-2.5693,-2.5693,-2.5693,-2.5693,-2.5693,-2.5693,-2.5693,-2.5693,-2.5693,-2.5693,-2.5693,-2.5693,-2.5693,-2.5693,-2.5693,-2.5693,-2.5693,-2.5693,-2.5693,-2.5693,-2.5693,-2.5693,-2.5693,-2.5693,-2.5693,-2.5693,-2.5693,-2.5693,-2.5693,-2.5693,-2.5693,-2.5693,-2.5693,-2.5693,-2.5693,-2.5693,-2.5693,-2.5693,-2.5693,-2.5693,-2.5693,-2.5693,-2.5693,-2.5693,-2.5693,-2.5693,-2.5693,-2.5693,-2.5693,-2.5693,-2.5693,0.0,0.0,0.0,0.0,0.0,0.0,0.0,0.0,0.0,0.0,0.0,0.0,0.0,-4.8001,0.0,0.0,-4.8001,-4.7968,-4.7853,-4.7637,-4.7403,-4.7217,-4.6639,-4.5349,-4.3208,-4.243,-4.0969,-3.8752,-3.8375,-3.8202,-3.8202,-3.8202,-3.8202,-3.8202,-3.8202,-3.7868,-3.7259,-3.6483,-3.5796,-3.5195,-3.447,-3.421,-3.4264,-3.4264,-3.4312,-3.4298,-3.3485,0.0,0.0,0.0,0.0,0.0,0.0,0.0,-2.9157,-2.8776,-2.8657,-2.8618,-2.855,-2.851,-2.8642,-2.9241,-2.9058,-2.8308,-2.6791,-2.6052,-2.5693,-2.5693,-2.5693,-2.5693,-2.5693,-2.5693,-2.5693,-2.5693,-2.5693,-2.5693,-2.5693,-2.5693,-2.5693,-2.5693,-2.5693,-2.5693,-2.5693,-2.5693,-2.5693,-2.5693,-2.5693,-2.5693,-2.5693,-2.5693,-2.5693,-2.5693,-2.5693,-2.5693,-2.5693,-2.5693,-2.5693,-2.5693,-2.5693,-2.5693,-2.5693,-2.5693,-2.5693,-2.5693,-2.5693,-2.5693,-2.5693,-2.5693,-2.5693,-2.5693,-2.5693,-2.5693,-2.5693,-2.5693,-2.5693,-2.5693,0.0,0.0,0.0,0.0,0.0,0.0,0.0,0.0,0.0,0.0,0.0,0.0,0.0,-4.8001,-4.8001,0.0,0.0,0.0,-4.7704,-4.7521,-4.7285,-4.6927,-4.6876,-4.5543,-4.2674,-4.2608,-4.1137,-3.8202,-3.8202,-3.8202,-3.8202,-3.8202,-3.8202,-3.8202,-3.8202,-3.7796,-3.7063,-3.6317,-3.5582,-3.4862,-3.4166,-3.3985,-3.4094,-3.4094,-3.423,-3.4298,-3.3485,-3.2684,-3.1928,-3.1119,0.0,0.0,0.0,0.0,-2.9302,-2.891,-2.8791,-2.8764,-2.855,-2.8643,-2.8736,-2.8641,-2.8791,-2.8634,-2.7463,-2.6552,-2.5917,-2.5732,-2.5693,-2.5693,-2.5693,-2.5693,-2.5693,-2.5693,-2.5693,-2.5693,-2.5693,-2.5693,-2.5693,-2.5693,-2.5693,-2.5693,-2.5693,-2.5693,-2.5693,-2.5693,-2.5693,-2.5693,-2.5693,-2.5693,-2.5693,-2.5693,-2.5693,-2.5693,-2.5693,-2.5693,-2.5693,-2.5693,-2.5693,-2.5693,-2.5693,-2.5693,-2.5693,-2.5693,-2.5693,-2.5693,-2.5693,-2.5693,-2.5693,-2.5693,-2.5693,-2.5693,-2.5693,-2.5693,-2.5693,-2.5693,0.0,0.0,0.0,0.0,0.0,0.0,0.0,0.0,0.0,0.0,-4.8001,-4.8001,0.0,-4.8001,-4.8001,-4.8001,-4.7853,-4.7737,-4.7704,0.0,0.0,-4.6927,-4.6876,-4.5543,-4.2674,-4.2608,-4.1137,-3.8202,-3.8202,-3.8202,-3.8202,-3.8202,-3.8202,-3.8202,-3.8202,-3.7549,-3.6396,-3.6115,-3.5323,-3.4209,-3.398,-3.3985,-3.4094,-3.4094,-3.423,-3.4298,-3.3485,-3.2613,-3.1723,-3.0895,-3.0126,0.0,0.0,0.0,-2.9302,-2.891,-2.8791,-2.8764,-2.855,-2.9184,-2.9696,-2.8815,-2.9291,-2.951,-2.7652,-2.7105,-2.6733,-2.5868,-2.5693,-2.5693,-2.5693,-2.5693,-2.5693,-2.5693,-2.5693,-2.5693,-2.5693,-2.5693,-2.5693,-2.5693,-2.5693,-2.5693,-2.5693,-2.5693,-2.5693,-2.5693,-2.5693,-2.5693,-2.5693,-2.5693,-2.5693,-2.5693,-2.5693,-2.5693,-2.5693,-2.5693,-2.5693,-2.5693,-2.5693,-2.5693,-2.5693,-2.5693,-2.5693,-2.5693,-2.5693,-2.5693,-2.5693,-2.5693,-2.5693,-2.5693,-2.5693,-2.5693,-2.5693,-2.5693,-2.5693,-2.5693,0.0,0.0,0.0,0.0,0.0,0.0,0.0,0.0,0.0,0.0,0.0,-4.8001,0.0,-4.7886,-4.782,-4.782,-4.7688,-4.7521,-4.742,-4.7167,-4.6996,-4.6911,-4.6477,-4.5258,-4.3158,-4.2334,-4.0883,-3.8754,-3.8391,-3.8202,-3.8202,-3.8202,-3.8202,-3.8202,-3.8202,-3.7491,-3.6301,-3.6086,-3.5224,-3.3985,-3.3813,-3.3779,-3.3833,-3.3833,-3.3937,-3.3971,-3.2712,-3.1978,-3.1429,-3.0165,-2.9613,-2.938,-2.9314,0.0,0.0,0.0,-2.8961,-2.8895,-2.859,-2.9063,-2.963,-2.9484,-2.9622,-2.959,-2.903,-2.8028,-2.7047,-2.6648,-2.61,-2.5693,-2.5693,-2.5693,-2.5693,-2.5693,-2.5693,-2.5693,-2.5693,-2.5693,-2.5693,-2.5693,-2.5693,-2.5693,-2.5693,-2.5693,-2.5693,-2.5693,-2.5693,-2.5693,-2.5693,-2.5693,-2.5693,-2.5693,-2.5693,-2.5693,-2.5693,-2.5693,-2.5693,-2.5693,-2.5693,-2.5693,-2.5693,-2.5693,-2.5693,-2.5693,-2.5693,-2.5693,-2.5693,-2.5693,-2.5693,-2.5693,-2.5693,-2.5693,-2.5693,-2.5693,-2.5693,-2.5693,0.0,0.0,0.0,0.0,0.0,0.0,0.0,0.0,0.0,0.0,0.0,0.0,0.0,0.0,0.0,0.0,-4.7504,-4.7335,-4.7149,-4.6996,-4.6807,-4.6582,-4.6036,-4.4914,-4.324,-4.2017,-4.0685,-3.9204,-3.8536,-3.8202,-3.8202,-3.8202,-3.8202,-3.8202,-3.8202,-3.7454,-3.6194,-3.6014,-3.5117,-3.3827,-3.3605,-3.3536,-3.3605,-3.364,-3.3779,-3.3764,-3.2354,-3.1686,-3.1281,-2.9871,-2.9353,-2.9341,-2.938,-2.956,0.0,0.0,0.0,-2.8895,-2.859,-2.8895,-2.9424,-2.9953,-2.9945,-2.9871,-3.0145,-2.905,-2.784,-2.7332,-2.66,-2.6004,-2.5732,-2.5693,-2.5693,-2.5693,-2.5693,-2.5693,-2.5693,-2.5693,-2.5693,-2.5693,-2.5693,-2.5693,-2.5693,-2.5693,-2.5693,-2.5693,-2.5693,-2.5693,-2.5693,-2.5693,-2.5693,-2.5693,-2.5693,-2.5693,-2.5693,-2.5693,-2.5693,-2.5693,-2.5693,-2.5693,-2.5693,-2.5693,-2.5693,-2.5693,-2.5693,-2.5693,-2.5693,-2.5693,-2.5693,-2.5693,-2.5693,-2.5693,-2.5693,-2.5693,-2.5693,-2.5693,0.0,0.0,0.0,0.0,0.0,0.0,0.0,0.0,0.0,0.0,0.0,0.0,-4.752,-4.752,-4.7504,-4.7504,-4.7319,-4.7132,-4.6927,-4.6927,-4.6547,-4.5805,-4.5733,0.0,-4.2421,-4.173,-4.0685,-3.9204,-3.8536,-3.8202,-3.8202,-3.8202,-3.8202,-3.8202,-3.8202,-3.738,-3.6014,-3.5848,-3.4954,-3.3605,-3.3396,-3.3431,-3.3605,-3.3827,-3.3985,-3.3991,-3.3122,-3.2277,-3.1352,-3.0532,-2.9729,-2.917,-2.9341,-2.9419,-2.938,0.0,0.0,0.0,-2.851,-2.8895,-2.9424,-2.9953,-3.0482,-3.0696,-3.028,-3.0125,-2.951,-2.7605,-2.7142,-2.6829,-2.5868,-2.5693,-2.5693,-2.5693,-2.5693,-2.5693,-2.5693,-2.5693,-2.5693,-2.5693,-2.5693,-2.5693,-2.5693,-2.5693,-2.5693,-2.5693,-2.5693,-2.5693,-2.5693,-2.5693,-2.5693,-2.5693,-2.5693,-2.5693,-2.5693,-2.5693,-2.5693,-2.5693,-2.5693,-2.5693,-2.5693,-2.5693,-2.5693,-2.5693,-2.5693,-2.5693,-2.5693,-2.5693,-2.5693,-2.5693,-2.5693,-2.5693,-2.5693,-2.5693,-2.5693,-2.5693,0.0,0.0,0.0,0.0,0.0,0.0,0.0,0.0,0.0,0.0,0.0,0.0,0.0,-4.7403,-4.7301,-4.7301,-4.7098,-4.6772,-4.6179,-4.6143,-4.5769,-4.4962,-4.4434,-4.3775,-4.2965,-4.1361,-4.03,-3.977,-3.8725,-3.8202,-3.8202,-3.8202,-3.8202,-3.8202,-3.8202,-3.738,-3.6,-3.5942,-3.5011,-3.3605,-3.3536,-3.3466,-3.3431,-3.3501,-3.3213,-3.2698,-3.1915,-3.1068,-3.0215,-2.9406,-2.904,-2.8922,-2.8988,-2.9106,-2.9157,-2.8961,-2.8697,-2.851,-2.851,-2.8655,-2.8919,-2.9448,-2.9977,-3.0421,-3.062,-3.04,-2.9988,-2.928,-2.8634,-2.784,-2.6829,-2.6149,-2.5693,-2.5693,-2.5693,-2.5693,-2.5693,-2.5693,-2.5693,-2.5693,-2.5693,-2.5693,-2.5693,-2.5693,-2.5693,-2.5693,-2.5693,-2.5693,-2.5693,-2.5693,-2.5693,-2.5693,-2.5693,-2.5693,-2.5693,-2.5693,-2.5693,-2.5693,-2.5693,-2.5693,-2.5693,-2.5693,-2.5693,-2.5693,-2.5693,-2.5693,-2.5693,-2.5693,-2.5693,-2.5693,-2.5693,-2.5693,-2.5693,-2.5693,-2.5693,-2.5693,0.0,0.0,0.0,0.0,0.0,0.0,0.0,0.0,0.0,0.0,0.0,0.0,0.0,0.0,-4.6285,-4.6285,-4.6179,-4.5893,-4.5332,-4.5295,-4.4962,-4.4128,-4.36,-4.3165,-4.2915,-4.1075,-4.0104,-4.0104,-3.8826,-3.8202,-3.8202,-3.8202,-3.8202,-3.8202,-3.8202,-3.7358,-3.5942,-3.5942,-3.4975,-3.3501,-3.3501,-3.3431,-3.3326,-3.3361,-3.3086,-3.2461,-3.1378,-3.0707,-3.0152,-2.9079,-2.8855,-2.8988,-2.8988,-2.9,-2.8973,-2.8764,-2.8618,-2.851,-2.851,-2.851,-2.8643,-2.9172,-2.9556,-3.0013,-3.0766,-3.064,-3.0378,-3.0226,-2.9658,-2.8912,-2.7887,-2.6877,-2.61,-2.5732,-2.5693,-2.5693,-2.5693,-2.5693,-2.5693,-2.5693,-2.5693,-2.5693,-2.5693,-2.5693,-2.5693,-2.5693,-2.5693,-2.5693,-2.5693,-2.5693,-2.5693,-2.5693,-2.5693,-2.5693,-2.5693,-2.5693,-2.5693,-2.5693,-2.5693,-2.5693,-2.5693,-2.5693,-2.5693,-2.5693,-2.5693,-2.5693,-2.5693,-2.5693,-2.5693,-2.5693,-2.5693,-2.5693,-2.5693,-2.5693,-2.5693,-2.5693,0.0,0.0,0.0,0.0,0.0,0.0,0.0,0.0,0.0,-4.451,0.0,0.0,0.0,0.0,0.0,-4.451,-4.451,-4.4472,-4.4472,-4.4472,-4.409,-4.3284,-4.3245,-4.2915,-4.2133,-4.0786,-4.0104,-4.0104,-3.8826,-3.8202,-3.8202,-3.8202,-3.8202,-3.8202,-3.8202,-3.7321,-3.579,-3.579,-3.4846,-3.3326,-3.329,-3.329,-3.329,-3.3501,-3.3536,-3.3262,-3.1709,-3.1267,-3.1169,-2.9613,-2.9197,-2.938,-2.938,-2.9106,-2.8764,-2.8538,-2.851,-2.851,0.0,0.0,0.0,-2.9148,-2.9292,-2.9569,-3.0633,-3.0898,-3.0795,-3.0325,-3.0249,-2.9943,-2.8912,-2.7934,-2.6962,-2.5917,-2.5742,-2.5693,-2.5693,-2.5693,-2.5693,-2.5693,-2.5693,-2.5693,-2.5693,-2.5693,-2.5693,-2.5693,-2.5693,-2.5693,-2.5693,-2.5693,-2.5693,-2.5693,-2.5693,-2.5693,-2.5693,-2.5693,-2.5693,-2.5693,-2.5693,-2.5693,-2.5693,-2.5693,-2.5693,-2.5693,-2.5693,-2.5693,-2.5693,-2.5693,-2.5693,-2.5693,-2.5693,-2.5693,-2.5693,-2.5693,-2.5693,-2.5693,0.0,0.0,0.0,0.0,0.0,0.0,-4.4624,-4.4548,-4.451,0.0,0.0,0.0,-4.451,-4.451,-4.451,-4.451,-4.451,-4.4243,-4.3663,-4.3639,-4.326,-4.2474,-4.2433,-4.2325,-4.2092,-4.0786,-4.0104,-4.0104,-3.8826,-3.8202,-3.8202,-3.8202,-3.8202,-3.8202,-3.8202,-3.7321,-3.579,-3.579,-3.4932,-3.3501,-3.3361,-3.2931,-3.2426,-3.2497,-3.1796,-3.0707,-3.0253,-2.9781,-2.9263,-2.8816,-2.8697,-2.8736,-2.8736,-2.8657,-2.8578,-2.851,-2.851,-2.851,-2.851,0.0,0.0,0.0,0.0,0.0,-2.9665,-3.0326,-3.0872,-3.0743,-3.1021,-3.0958,-2.9977,-2.9567,-2.8819,-2.7057,-2.6187,-2.5693,-2.5693,-2.5693,-2.5693,-2.5693,-2.5693,-2.5693,-2.5693,-2.5693,-2.5693,-2.5693,-2.5693,-2.5693,-2.5693,-2.5693,-2.5693,-2.5693,-2.5693,-2.5693,-2.5693,-2.5693,-2.5693,-2.5693,-2.5693,-2.5693,-2.5693,-2.5693,-2.5693,-2.5693,-2.5693,-2.5693,-2.5693,-2.5693,-2.5693,-2.5693,-2.5693,-2.5693,-2.5693,-2.5693,-2.5693,-2.5693,0.0,0.0,0.0,-4.4051,0.0,0.0,-4.3536,-4.3497,-4.3497,0.0,0.0,0.0,-4.3497,-4.3497,-4.3497,-4.3497,-4.3497,-4.3299,-4.285,-4.2809,-4.2581,-4.2133,-4.2092,-4.2092,-4.2092,-4.0786,-4.0104,-4.0104,-3.8826,-3.8202,-3.8202,-3.8202,-3.8202,-3.8202,-3.8202,-3.7395,-3.5956,-3.5506,-3.458,-3.3431,-3.2966,-3.2511,-3.2074,-3.1746,-3.1082,-3.0266,-2.9961,-2.96,-2.9223,-2.8961,-2.8816,-2.8736,-2.8736,-2.863,-2.851,-2.851,-2.851,-2.851,-2.851,-2.851,-2.851,-2.851,0.0,0.0,-2.9256,-2.9941,-3.0645,-3.0874,-3.1344,-3.1516,-3.0913,-3.0486,-2.9795,-2.8634,-2.7247,-2.6187,-2.5781,-2.5693,-2.5693,-2.5693,-2.5693,-2.5693,-2.5693,-2.5693,-2.5693,-2.5693,-2.5693,-2.5693,-2.5693,-2.5693,-2.5693,-2.5693,-2.5693,-2.5693,-2.5693,-2.5693,-2.5693,-2.5693,-2.5693,-2.5693,-2.5693,-2.5693,-2.5693,-2.5693,-2.5693,-2.5693,-2.5693,-2.5693,-2.5693,-2.5693,-2.5693,-2.5693,-2.5693,-2.5693,-2.5693,-2.5693,0.0,0.0,-4.4028,-4.3284,-4.318,-4.2915,-4.2201,-4.2092,-4.2092,0.0,-4.2092,-4.2092,-4.2092,-4.2092,-4.2092,-4.2092,-4.2092,-4.2092,-4.2092,-4.2092,-4.2092,-4.2092,-4.2092,-4.2092,-4.2092,-4.0786,-4.0104,-4.0104,-3.8826,-3.8202,-3.8202,-3.8202,-3.8202,-3.8202,-3.8165,-3.738,-3.605,-3.5022,-3.3956,-3.298,-3.2232,-3.1928,-3.1746,-3.1044,-3.0833,-3.0809,-3.0075,-2.9973,-3.0024,-2.9535,-2.9223,-2.9052,-2.9052,-2.8816,-2.855,-2.851,-2.851,-2.851,-2.851,-2.851,-2.851,-2.851,-2.851,0.0,-2.91,-2.9629,-3.0134,-3.0603,-3.1211,-3.1621,-3.1621,-3.0923,-3.0351,-3.0215,-2.868,-2.7152,-2.6004,-2.5781,-2.5732,-2.5868,-2.5781,-2.5732,-2.5878,-2.5781,-2.5693,-2.5693,-2.5693,-2.5693,-2.5693,-2.5693,-2.5693,-2.5693,-2.5693,-2.5693,-2.5693,-2.5693,-2.5693,-2.5693,-2.5693,-2.5693,-2.5693,-2.5693,-2.5693,-2.5693,-2.5693,-2.5693,-2.5693,-2.5693,-2.5693,-2.5693,-2.5693,-2.5693,-2.5693,-2.5693,-2.5693,-2.5693,-4.3506,-4.2996,-4.2514,-4.2351,-4.231,-4.2284,0.0,-4.2092,-4.2092,-4.2092,-4.2092,-4.2092,-4.2092,-4.2092,-4.2092,-4.2092,-4.2092,-4.2092,-4.2092,-4.2092,-4.2092,-4.2092,-4.2092,-4.2092,-4.2092,-4.0786,-4.0104,-4.0104,-3.8826,-3.8202,-3.8202,-3.8202,-3.8202,-3.8202,-3.8028,-3.6821,-3.491,-3.4537,-3.3186,-3.1341,-3.1193,-3.0745,-3.0152,-2.9999,-2.9561,-2.9,-2.8843,-2.8803,-2.8855,-2.891,-2.8882,-2.8882,-2.8882,-2.8803,-2.8724,-2.855,-2.851,-2.851,-2.851,-2.851,-2.851,-2.851,-2.851,0.0,-2.8643,-2.9076,-2.9484,-2.9581,-3.0362,-3.1079,-3.1079,-3.1241,-3.1149,-3.0351,-2.9886,-2.8958,-2.7142,-2.6187,-2.6004,-2.6829,-2.6187,-2.6014,-2.6829,-2.6187,-2.5693,-2.5693,-2.5693,-2.5693,-2.5693,-2.5693,-2.5693,-2.5693,-2.5693,-2.5693,-2.5693,-2.5693,-2.5693,-2.5693,-2.5693,-2.5693,-2.5693,-2.5693,-2.5693,-2.5693,-2.5693,-2.5693,-2.5693,-2.5693,-2.5693,-2.5693,-2.5693,-2.5693,-2.5693,-2.5693,-2.5693,-2.5693,-4.2688,-4.2392,-4.2092,-4.2092,0.0,0.0,0.0,0.0,-4.2092,-4.2092,-4.2092,-4.2092,-4.2092,-4.2092,-4.2092,-4.2092,-4.2092,-4.2092,-4.2092,-4.2092,-4.2092,-4.2092,-4.2092,-4.2092,-4.2092,-4.0786,-4.0104,-4.0104,-3.8826,-3.8202,-3.8202,-3.8202,-3.7962,-3.7567,-3.7801,-3.6467,-3.4055,-3.384,-3.2454,-3.0443,-3.0329,-3.0075,-2.9665,-2.925,-2.8922,-2.8657,-2.8657,-2.8697,-2.8776,-2.8803,-2.8791,-2.8791,-2.8791,-2.8724,-2.8618,-2.855,-2.851,-2.851,-2.851,-2.851,-2.851,-2.851,-2.851,0.0,0.0,-2.8919,-2.9304,-2.9304,-2.9929,-3.0555,-3.0874,-3.1139,-3.1217,-3.1012,-3.0543,-2.9841,-2.8819,-2.7851,-2.7389,-2.7887,-2.7057,-2.6648,-2.7142,-2.6284,-2.5693,-2.5693,-2.5693,-2.5693,-2.5693,-2.5693,-2.5693,-2.5693,-2.5693,-2.5693,-2.5693,-2.5693,-2.5693,-2.5693,-2.5693,-2.5693,-2.5693,-2.5693,-2.5693,-2.5693,-2.5693,-2.5693,-2.5693,-2.5693,-2.5693,-2.5693,-2.5693,-2.5693,-2.5693,-2.5693,-2.5693,-2.5693,-4.2009,-4.2009,-4.2009,-4.2092,0.0,0.0,0.0,0.0,-4.1968,-4.1968,-4.2009,-4.1995,-4.1995,-4.2092,-4.2092,-4.2092,-4.2092,-4.2092,-4.2092,-4.2092,-4.2092,-4.2092,-4.2092,-4.2092,-4.2092,-4.0786,-4.0104,-4.0104,-3.8788,-3.8127,-3.8127,-3.8089,-3.7606,-3.6819,-3.7327,-3.6011,-3.3355,-3.2935,-3.1668,-2.9842,-2.9599,-2.9484,-2.9406,-2.8736,-2.8618,-2.8724,-2.8724,-2.8855,-2.8973,-2.8843,-2.8791,-2.8791,-2.8791,-2.8685,-2.855,-2.851,-2.851,-2.851,-2.851,-2.851,-2.851,-2.851,-2.851,-2.851,0.0,0.0,0.0,-2.9148,-2.9569,-3.0098,-3.0669,-3.085,-3.1055,-3.1488,-3.0944,-3.0463,-3.0358,-2.9727,-2.9189,-2.9004,-2.8121,-2.7463,-2.7463,-2.6418,-2.5693,-2.5693,-2.5693,-2.5693,-2.5693,-2.5693,-2.5693,-2.5693,-2.5693,-2.5693,-2.5693,-2.5693,-2.5693,-2.5693,-2.5693,-2.5693,-2.5693,-2.5693,-2.5693,-2.5693,-2.5693,-2.5693,-2.5693,-2.5693,-2.5693,-2.5693,-2.5693,-2.5693,-2.5693,-2.5693,-2.5693,-2.5693,-4.1702,-4.1591,-4.162,-4.2009,0.0,0.0,0.0,0.0,0.0,-4.148,-4.1633,-4.1744,-4.1744,-4.1953,-4.2092,-4.2092,-4.2092,-4.2092,-4.2092,-4.2092,-4.2092,-4.2092,-4.2092,-4.2092,-4.2092,-4.0786,-4.0104,-4.0104,-3.8664,-3.7929,-3.7929,-3.7739,-3.7197,-3.6373,-3.6269,-3.4862,-3.2593,-3.1904,-3.0726,-2.9322,-2.8851,-2.863,-2.8618,-2.855,-2.851,-2.855,-2.855,-2.855,-2.859,-2.8764,-2.8791,-2.8791,-2.8791,-2.8803,-2.8724,-2.855,-2.851,-2.851,-2.851,-2.851,-2.851,-2.851,-2.851,-2.851,-2.851,0.0,-2.8595,-2.8595,0.0,-2.9544,-3.0074,0.0,0.0,-3.0995,-3.1304,-3.136,-3.0893,-3.1129,-3.1015,-3.0125,-2.9143,-2.8541,-2.8541,-2.6791,-2.5693,-2.5693,-2.5693,-2.5693,-2.5693,-2.5693,-2.5693,-2.5693,-2.5693,-2.5693,-2.5693,-2.5693,-2.5693,-2.5693,-2.5693,-2.5693,-2.5693,-2.5693,-2.5693,-2.5693,-2.5693,-2.5693,-2.5693,-2.5693,-2.5693,-2.5693,-2.5693,-2.5693,-2.5693,-2.5693,-2.5693,-2.5693,-4.1465,-4.148,-4.1438,-4.1662,0.0,0.0,0.0,0.0,0.0,-4.1396,-4.1465,-4.1577,-4.1702,-4.1785,-4.1717,-4.1254,-4.124,-4.124,-4.124,-4.0575,-4.0774,-4.2051,-4.1451,-4.0915,-4.0588,-4.0167,-3.9427,-3.8416,-3.7451,-3.695,-3.695,-3.6373,-3.5642,-3.4815,-3.5047,-3.391,-3.1732,-3.183,-3.1071,-2.9737,-2.9508,-2.9244,-2.8931,-2.8631,-2.851,-2.851,-2.851,-2.851,-2.851,-2.8618,-2.8618,-2.8618,-2.8618,-2.8618,-2.8618,-2.851,-2.851,-2.851,-2.851,-2.851,-2.851,-2.851,-2.851,-2.851,-2.851,-2.851,-2.851,-2.851,0.0,0.0,0.0,0.0,0.0,0.0,-3.1356,-3.1633,-3.1404,-3.1573,-3.1516,-3.1104,-3.017,-2.9096,-2.7934,-2.7568,-2.6982,-2.5781,-2.6235,-2.6332,-2.5732,-2.5693,-2.5693,-2.5693,-2.5693,-2.5693,-2.5693,-2.5693,-2.5693,-2.5693,-2.5693,-2.5693,-2.5693,-2.5693,-2.5693,-2.5693,-2.5693,-2.5693,-2.5693,-2.5693,-2.5693,-2.5693,-2.5693,-2.5693,-2.5693,-2.5693,-2.5693,-2.5693,-4.0716,-4.1043,-4.1269,-4.1396,-4.1311,0.0,0.0,-4.0802,-4.0716,-4.0459,-4.0445,-4.056,-4.0816,-4.0887,-4.0703,-4.026,-4.0202,-4.0202,-4.0202,-3.9404,-3.9555,-4.1026,-4.0305,-3.9569,-3.8879,-3.8919,-3.8251,-3.6852,-3.6156,-3.5883,-3.5923,-3.5142,-3.4361,-3.3645,-3.3985,-3.3123,-3.1362,-3.1704,-3.1252,-3.029,-3.0146,-2.9773,-2.9244,-2.8715,-2.851,-2.851,-2.851,-2.851,-2.851,-2.851,-2.851,-2.851,-2.851,-2.851,-2.851,-2.851,-2.851,-2.851,-2.851,-2.851,-2.851,-2.851,-2.851,-2.851,-2.851,-2.851,-2.851,-2.851,-2.851,0.0,0.0,0.0,-3.0218,-3.0603,0.0,-3.1657,-3.1512,-3.1621,-3.1705,-3.1705,-3.0824,-2.9612,-2.8168,-2.8448,-2.7992,-2.6235,-2.6781,-2.6781,-2.5732,-2.5693,-2.5693,-2.5693,-2.5693,-2.5693,-2.5693,-2.5693,-2.5693,-2.5693,-2.5693,-2.5693,-2.5693,-2.5693,-2.5693,-2.5693,-2.5693,-2.5693,-2.5693,-2.5693,-2.5693,-2.5693,-2.5693,-2.5693,-2.5693,-2.5693,-2.5693,-2.5693,-3.9254,-4.0041,-4.0873,-4.1311,-4.1001,-4.0416,-3.9431,-3.9254,-3.8944,-3.8024,-3.8088,-3.8302,-3.8585,-3.8783,-3.8992,-3.9197,-3.9241,-3.9241,-3.9241,-3.921,-3.8996,-3.8542,-3.8739,-3.8351,-3.7319,-3.6981,-3.6503,-3.593,-3.5067,-3.4802,-3.502,-3.4555,-3.4011,-3.3386,-3.3177,-3.2519,-3.1645,-3.1139,-3.091,-3.085,-3.029,-2.9773,-2.9244,-2.8715,-2.851,-2.851,-2.851,-2.851,-2.851,-2.851,-2.851,-2.851,-2.851,-2.851,-2.851,-2.851,-2.851,-2.851,-2.851,-2.851,-2.851,-2.851,-2.851,-2.851,-2.851,-2.851,-2.851,-2.851,-2.851,-2.8667,-2.9208,-2.9737,-3.0098,-3.011,-3.1031,0.0,0.0,-3.138,-3.1705,-3.1705,-3.0824,-3.017,-3.0125,-2.9235,-2.8262,-2.7237,-2.7189,-2.6781,-2.5732,-2.5693,-2.5693,-2.5693,-2.5693,-2.5693,-2.5693,-2.5693,-2.5693,-2.5693,-2.5693,-2.5693,-2.5693,-2.5693,-2.5693,-2.5693,-2.5693,-2.5693,-2.5693,-2.5693,-2.5693,-2.5693,-2.5693,-2.5693,-2.5693,-2.5693,-2.5693,-2.5693,-3.8283,-3.8567,-3.885,-3.897,-3.8895,-3.8671,-3.8342,-3.8283,-3.8206,-3.8069,-3.8102,-3.8225,-3.8464,-3.8734,-3.8541,-3.7789,-3.8088,-3.8192,-3.7997,-3.7428,-3.7488,-3.8342,-3.7714,-3.6778,-3.5525,-3.5926,-3.5466,-3.4003,-3.3696,-3.3606,-3.3649,-3.2907,-3.2457,-3.2276,-3.2164,-3.1957,-3.1705,-3.1524,-3.144,-3.1392,-3.0862,-3.029,-2.9761,-2.9232,-2.8823,-2.851,-2.851,-2.851,-2.851,-2.851,-2.851,-2.851,-2.851,-2.851,-2.851,-2.851,-2.851,-2.851,-2.851,-2.851,-2.851,-2.851,-2.851,-2.851,-2.851,-2.851,-2.851,-2.851,-2.851,-2.857,-2.8751,-2.9208,-2.9677,-3.0025,-3.0718,-3.1247,0.0,-3.1597,-3.1705,-3.1705,-3.1383,-3.0913,-3.026,-2.9886,-2.9004,-2.7332,-2.7189,-2.6781,-2.5732,-2.5693,-2.5693,-2.5693,-2.5693,-2.5693,-2.5693,-2.5693,-2.5693,-2.5693,-2.5693,-2.5693,-2.5693,-2.5693,-2.5693,-2.5693,-2.5693,-2.5693,-2.5693,-2.5693,-2.5693,-2.5693,-2.5693,-2.5693,-2.5693,-2.5693,-2.5693,-2.5693,-3.7256,-3.6977,-3.6977,-3.7671,-3.7808,-3.7671,-3.7335,-3.7256,-3.7196,-3.701,-3.7044,-3.7243,-3.7415,-3.7717,-3.7579,-3.6871,-3.7116,-3.7222,-3.707,-3.6216,-3.6084,-3.6955,-3.6052,-3.499,-3.3832,-3.4374,-3.4023,-3.263,-3.2575,-3.2575,-3.263,-3.2001,-3.1749,-3.1805,-3.1705,-3.1705,-3.1705,-3.1705,-3.1705,-3.1681,-3.1332,-3.0874,-3.0338,-2.9989,-2.9304,-2.851,-2.851,-2.851,-2.851,-2.851,-2.851,-2.851,-2.851,-2.851,-2.851,-2.851,-2.851,-2.851,-2.851,-2.851,-2.851,-2.851,-2.851,-2.851,-2.851,-2.851,-2.851,-2.851,-2.851,-2.851,-2.851,-2.8943,-2.9472,-3.0001,-3.053,-3.1103,0.0,-3.1705,-3.1705,-3.1705,-3.1705,-3.1427,-3.0824,-3.0722,-3.0022,-2.8402,-2.7934,-2.7426,-2.6791,-2.611,-2.5868,-2.6235,-2.5868,-2.5868,-2.6235,-2.5868,-2.5868,-2.6235,-2.5868,-2.5693,-2.5693,-2.5693,-2.5693,-2.5693,-2.5693,-2.5693,-2.5693,-2.5693,-2.5693,-2.5693,-2.5693,-2.5693,-2.5693,-2.5693,-2.5693,-2.5693,-3.6225,-3.5488,-3.5391,-3.7302,-3.7671,-3.7348,-3.6367,-3.6225,-3.5906,-3.492,-3.5078,-3.532,-3.5572,-3.586,-3.6086,-3.6273,-3.632,-3.6355,-3.6282,-3.5594,-3.4931,-3.4363,-3.387,-3.3198,-3.2425,-3.2459,-3.2292,-3.1994,-3.1805,-3.1805,-3.1981,-3.1805,-3.1805,-3.1994,-3.1805,-3.1705,-3.1705,-3.1705,-3.1705,-3.1705,-3.1705,-3.1392,-3.0922,-3.0922,-2.9917,-2.8582,-2.8558,-2.8534,-2.851,-2.851,-2.851,-2.851,-2.851,-2.851,-2.851,-2.851,-2.851,-2.851,-2.851,-2.851,-2.851,-2.851,-2.851,-2.851,-2.851,-2.851,-2.851,-2.851,-2.851,-2.851,-2.851,-2.8919,-2.9436,-3.0001,-3.0555,-3.1139,-3.1633,-3.1705,-3.1705,-3.1705,-3.1705,-3.1705,-3.1705,-3.1617,-3.1193,-3.026,-2.9235,-2.8634,-2.8634,-2.6791,-2.6187,-2.7105,-2.6187,-2.6139,-2.7094,-2.6187,-2.6187,-2.7094,-2.6149,-2.5693,-2.5693,-2.5693,-2.5693,-2.5693,-2.5693,-2.5693,-2.5693,-2.5693,-2.5693,-2.5693,-2.5693,-2.5693,-2.5693,-2.5693,-2.5693,-2.5693,-3.5199,-3.4969,-3.4969,-3.5475,-3.5571,-3.5475,-3.5199,-3.5199,-3.515,-3.5126,-3.532,-3.5524,-3.5572,-3.6038,-3.6006,-3.5278,-3.5522,-3.5487,-3.4877,-3.4819,-3.4495,-3.3767,-3.3608,-3.3064,-3.2138,-3.2127,-3.1995,-3.1761,-3.1705,-3.1705,-3.1761,0.0,0.0,-3.1749,-3.1705,-3.1705,-3.1705,-3.1705,-3.1705,-3.1705,-3.1705,-3.1392,-3.0922,-3.0922,-3.0386,-2.9629,-2.9232,-2.8847,-2.851,-2.851,-2.851,-2.851,-2.851,-2.851,-2.851,-2.851,-2.851,-2.851,-2.851,-2.851,-2.851,-2.851,-2.851,-2.851,-2.851,-2.851,-2.851,-2.851,-2.851,-2.851,-2.851,-2.8619,-2.9015,-2.9941,-3.0898,-3.1548,-3.1693,-3.1705,-3.1705,-3.1705,-3.1705,-3.1705,-3.1705,-3.0351,-2.9658,-3.0158,-2.8588,-2.7605,-2.7605,-2.7105,-2.66,-2.61,-2.582,-2.583,-2.61,-2.583,-2.582,-2.61,-2.583,-2.5693,-2.5693,-2.5693,-2.5693,-2.5693,-2.5693,-2.5693,-2.5693,-2.5693,-2.5693,-2.5693,-2.5693,-2.5693,-2.5693,-2.5693,-2.5693,-2.5693,-3.4775,-3.4775,-3.4775,-3.4775,-3.4884,-3.4981,-3.4981,-3.4884,-3.4884,-3.5175,-3.5416,-3.562,-3.562,-3.6086,-3.6138,-3.5556,-3.5765,-3.5721,-3.5269,-3.5019,-3.4599,-3.3928,-3.3432,-3.2872,-3.2181,-3.1981,-3.1849,-3.1849,-3.1749,-3.1705,-3.1705,0.0,0.0,-3.1705,-3.1705,-3.1705,-3.1705,-3.1705,-3.1705,-3.1705,-3.1705,-3.1524,0.0,-3.1259,-3.0934,-3.0398,-3.0098,-2.9496,-2.8823,-2.8595,-2.851,-2.851,-2.851,-2.851,-2.851,-2.851,-2.851,-2.851,-2.851,-2.851,-2.851,-2.851,-2.851,-2.851,-2.851,-2.851,-2.851,-2.851,-2.851,-2.851,-2.851,-2.8703,-2.9208,-3.0266,-3.1163,-3.1705,-3.1705,-3.1705,-3.1705,-3.1705,-3.1705,-3.1705,-3.1705,-3.026,-2.9795,-3.0767,-2.9004,-2.8075,-2.8495,-2.7699,-2.6962,-2.637,-2.5917,-2.5917,-2.637,-2.5917,-2.5917,-2.637,-2.5917,-2.5693,-2.5693,-2.5693,-2.5693,-2.5693,-2.5693,-2.5693,-2.5693,-2.5693,-2.5693,-2.5693,-2.5693,-2.5693,-2.5693,-2.5693,-2.5693,-2.5693,-3.4775,-3.4775,-3.4775,-3.4775,-3.4981,-3.5175,-3.5175,-3.4981,-3.4932,-3.5126,-3.5368,-3.5572,-3.5572,-3.5991,-3.6285,-3.621,-3.621,-3.6219,-3.6157,-3.5494,-3.4894,-3.44,-3.3531,-3.2836,-3.2511,-3.2091,-3.1922,-3.1994,-3.1805,-3.1705,0.0,0.0,-3.1705,-3.1705,-3.1705,-3.1705,-3.1705,-3.1705,-3.1705,-3.1705,-3.1705,-3.1705,-3.1705,-3.1705,-3.1428,-3.1019,-3.0946,-3.0194,-2.9232,-2.8775,-2.857,-2.851,-2.851,-2.851,-2.851,-2.851,-2.851,-2.851,-2.851,-2.851,-2.851,-2.851,-2.851,-2.851,-2.851,-2.851,-2.851,-2.851,-2.851,-2.851,-2.851,-2.9003,-2.9725,-3.0766,-3.1356,-3.1705,-3.1705,-3.1705,-3.1705,-3.1705,-3.1705,0.0,-3.1705,-3.0779,-3.0633,-3.1617,-2.9977,-2.9235,-2.9977,-2.8355,-2.7284,-2.701,-2.6149,-2.61,-2.701,-2.6149,-2.6149,-2.701,-2.61,-2.5693,-2.5693,-2.5693,-2.5693,-2.5693,-2.5693,-2.5693,-2.5693,-2.5693,-2.5693,-2.5693,-2.5693,-2.5693,-2.5693,-2.5693,-2.5693,-2.5693,-3.4775,-3.4775,-3.4775,-3.4775,-3.4823,-3.492,-3.5175,-3.5175,-3.5078,-3.4872,-3.5126,-3.5271,-3.5271,-3.556,-3.5579,-3.5135,-3.5285,-3.518,-3.4707,-3.4732,-3.4645,-3.4388,-3.4243,-3.3798,-3.3076,-3.2962,-3.2609,-3.1994,-3.1937,-3.1849,0.0,-3.1705,-3.1705,-3.1705,-3.1705,-3.1705,-3.1705,-3.1705,-3.1705,-3.1705,-3.1705,-3.1705,-3.1705,-3.1705,-3.1657,-3.1512,-3.1079,-3.0194,-2.928,-2.9184,-2.8871,-2.851,-2.851,-2.851,-2.851,-2.851,-2.851,-2.851,-2.851,-2.851,-2.851,-2.851,-2.851,-2.851,-2.851,-2.851,-2.851,-2.851,-2.851,-2.851,-2.851,-2.9304,-3.0158,-3.0814,-3.1356,-3.1705,-3.1705,-3.1705,-3.1705,-3.1705,-3.1705,-3.1705,-3.1705,-3.0779,-3.0633,-3.1617,-3.0588,-2.9658,-2.9004,-2.8634,-2.7662,-2.6014,-2.5781,-2.5781,-2.5965,-2.5781,-2.5781,-2.5965,-2.5781,-2.5693,-2.5693,-2.5693,-2.5693,-2.5693,-2.5693,-2.5693,-2.5693,-2.5693,-2.5693,-2.5693,-2.5693,-2.5693,-2.5693,-2.5693,-2.5693,-2.5693,-3.4775,-3.4775,-3.4823,-3.4969,-3.503,-3.5078,-3.5175,-3.5223,-3.5175,-3.503,-3.5126,-3.5223,-3.5223,-3.5416,-3.551,-3.5252,-3.5322,-3.5258,-3.4987,-3.5115,-3.4991,-3.4626,-3.4613,-3.432,-3.3629,-3.3481,-3.321,-3.2819,-3.2463,-3.2195,0.0,-3.1849,-3.1705,-3.1705,-3.1705,-3.1705,-3.1705,-3.1705,-3.1705,-3.1705,-3.1705,-3.1705,-3.1705,-3.1705,-3.1383,-3.0979,-3.1229,-3.0457,-2.9369,-2.9307,-2.9136,-2.8871,-2.8595,-2.851,-2.851,-2.851,-2.851,-2.851,-2.851,-2.851,-2.851,-2.851,-2.851,-2.851,-2.851,-2.851,-2.851,-2.851,-2.851,-2.8679,-2.9232,-2.9737,-3.035,-3.1199,-3.1536,-3.1705,-3.1705,-3.1705,-3.1705,-3.1705,-3.1705,-3.1705,-3.1705,-3.1238,-3.0958,-3.0913,-3.0453,-2.951,-2.8017,-2.8402,-2.7767,-2.5781,-2.5693,-2.5693,-2.5693,-2.5693,-2.5693,-2.5693,-2.5693,-2.5693,-2.5693,-2.5693,-2.5693,-2.5693,-2.5693,-2.5693,-2.5693,-2.5693,-2.5693,-2.5693,-2.5693,-2.5693,-2.5693,-2.5693,-2.5693,-2.5693,-3.4872,-3.4884,-3.4981,-3.5223,-3.5271,-3.5271,-3.5271,-3.5271,-3.5223,-3.5126,-3.5126,-3.5126,-3.5126,-3.532,-3.5428,-3.5428,-3.5476,-3.5512,-3.5512,-3.5572,-3.5424,-3.5006,-3.4981,-3.4735,-3.4195,-3.3939,-3.3786,-3.3584,-3.288,-3.2548,-3.2491,-3.1925,-3.1705,-3.1705,-3.1705,-3.1705,-3.1705,-3.1705,-3.1705,-3.1705,-3.1705,-3.1705,-3.1661,-3.1472,-3.0869,-3.026,-3.0869,-3.0287,-2.9258,-2.9287,-2.9391,-2.9376,-2.8847,-2.8679,-2.8655,-2.8546,-2.851,-2.851,-2.851,-2.851,-2.851,-2.851,-2.851,-2.851,-2.851,-2.851,-2.851,-2.851,-2.8595,-2.8967,-2.9917,-3.0182,-3.0555,-3.156,-3.1705,-3.1705,-3.1705,-3.1705,-3.1705,-3.1705,-3.1705,-3.1705,-3.1705,-3.1705,-3.1282,-3.026,-3.0215,-2.9418,-2.7605,-2.8262,-2.7898,-2.61,-2.6014,-2.6014,-2.6014,-2.583,-2.5693,-2.5693,-2.5693,-2.5693,-2.5693,-2.5693,-2.5693,-2.5693,-2.5693,-2.5693,-2.5693,-2.5693,-2.5693,-2.5693,-2.5693,-2.5693,-2.5693,-2.5693,-2.5742,-2.583,-3.5126,-3.5175,-3.5271,-3.5524,-3.5572,-3.5572,-3.5572,-3.5572,-3.5368,-3.4872,-3.4823,-3.4823,-3.4823,-3.4884,-3.4872,-3.4872,-3.5078,-3.5223,-3.5223,-3.5476,-3.5596,-3.5547,-3.5547,-3.5289,-3.4748,-3.4689,-3.4303,-3.3584,-3.305,-3.266,-3.2491,-3.1925,-3.1705,-3.1705,-3.1705,-3.1705,-3.1705,-3.1705,-3.1705,-3.1705,-3.1705,-3.1705,-3.1617,-3.0678,-3.026,-3.0068,-2.928,-2.8879,-2.8804,-2.9236,-2.9691,-2.9917,-2.9388,-2.9232,-2.9136,-2.8655,-2.851,-2.851,-2.851,-2.851,-2.851,-2.851,-2.851,-2.851,-2.851,-2.851,-2.851,-2.851,-2.8895,-2.94,-2.9977,-3.0482,-3.1043,-3.1609,-3.1705,-3.1705,-3.1705,-3.1705,-3.1705,-3.1705,-3.1705,-3.1705,-3.1705,-3.1705,-3.1282,-3.026,-3.0215,-2.9704,-2.8634,-2.8634,-2.8215,-2.7094,-2.7047,-2.7047,-2.7047,-2.6149,-2.5693,-2.5693,-2.5693,-2.5693,-2.5693,-2.5693,-2.5693,-2.5693,-2.5693,-2.5693,-2.5693,-2.5693,-2.5693,-2.5693,-2.5693,-2.5693,-2.5693,-2.5693,-2.5986,-2.6328,-3.5428,-3.5416,-3.5524,-3.5764,-3.5716,-3.5668,-3.5824,-3.5716,-3.5524,-3.532,-3.5126,-3.4981,-3.4835,-3.4775,-3.4775,-3.4775,-3.4884,-3.4981,-3.4981,-3.5078,-3.5126,-3.5126,-3.5271,-3.527,-3.505,-3.505,-3.4893,-3.4543,-3.3857,-3.3306,-3.2959,-3.2418,-3.203,-3.1705,-3.1705,-3.1705,-3.1705,-3.1705,-3.1705,-3.1705,-3.1705,-3.1339,-3.0779,-3.0351,-2.9464,-2.8448,-2.8634,-2.8308,-2.7902,-2.8692,-2.9305,-2.9609,-2.9051,-2.929,-2.954,-2.8404,-2.852,-2.8919,-2.8595,-2.8139,-2.7846,-2.8391,-2.8099,-2.7846,-2.8379,-2.851,-2.851,-2.851,-2.8931,-2.9556,-3.0398,-3.0778,-3.1091,-3.1621,-3.1705,-3.1705,-3.1705,-3.1705,-3.1705,-3.1705,-3.1705,-3.1705,-3.1705,-3.1705,-3.1516,-3.1149,-3.1104,-3.0407,-2.8773,-2.868,-2.8541,-2.8121,-2.6924,-2.66,-2.7179,-2.6187,-2.5693,-2.5693,-2.5693,-2.5693,-2.5693,-2.5693,-2.5693,-2.5693,-2.5693,-2.5693,-2.5693,-2.5693,-2.5693,-2.5713,-2.6025,-2.6133,-2.6162,-2.6416,-2.6621,-2.6768,-3.5716,-3.5716,-3.5812,-3.6051,-3.5955,-3.5908,-3.6098,-3.5908,-3.5668,-3.562,-3.538,-3.5126,-3.4932,-3.4823,-3.4775,-3.4775,-3.4775,-3.4775,-3.4775,-3.4775,-3.4775,-3.4775,-3.4969,-3.5078,-3.5078,-3.5078,-3.5078,-3.5078,-3.4354,-3.3814,-3.3501,-3.2815,-3.2202,-3.1705,-3.1705,-3.1705,-3.1705,-3.1705,-3.1705,-3.1661,-3.1383,-3.0824,-3.0125,-2.9567,-2.8448,-2.7237,-2.7662,-2.7342,-2.6924,-2.7934,-2.8497,-2.8723,-2.8464,-2.8884,-2.9234,-2.7978,-2.8096,-2.8584,-2.8169,-2.7548,-2.7144,-2.7772,-2.737,-2.6958,-2.7592,-2.8044,-2.8493,-2.8903,-2.9171,-2.9629,-3.0692,-3.1043,-3.1271,-3.1645,-3.1705,-3.1705,-3.1705,-3.1705,-3.1705,-3.1705,-3.1705,-3.1705,-3.1705,-3.1705,-3.1572,-3.1282,-3.1238,-3.0498,-2.8773,-2.868,-2.8588,-2.8262,-2.6877,-2.6466,-2.7189,-2.6187,-2.5693,-2.5693,-2.5693,-2.5693,-2.5693,-2.5693,-2.5693,-2.5693,-2.5693,-2.5693,-2.5703,-2.583,-2.5928,-2.5977,-2.6406,-2.6572,-2.6611,-2.6904,-2.71,-2.7207,-3.5968,-3.6015,-3.6098,-3.637,-3.6405,-3.6405,-3.6405,-3.6193,-3.5908,-3.562,-3.538,-3.5223,-3.5223,-3.4981,-3.4775,-3.4775,-3.4775,-3.4775,-3.4775,-3.4775,-3.4775,-3.4775,-3.4775,-3.4775,-3.4775,-3.4775,-3.4775,-3.4775,-3.4246,-3.3994,-3.3958,-3.2984,-3.2202,-3.1705,-3.1705,-3.1705,-3.1705,-3.1705,-3.1705,-3.1617,-3.0633,-3.0215,-2.9977,-2.7981,-2.7237,-2.7047,-2.61,-2.5732,-2.5868,-2.6877,-2.7226,-2.7332,-2.7737,-2.7914,-2.7816,-2.7248,-2.7106,-2.7106,-2.7096,-2.6813,-2.6497,-2.6497,-2.6179,-2.583,-2.5819,-2.6959,-2.8405,-2.9786,-2.973,-2.972,-3.0694,-3.1344,-3.1705,-3.1705,-3.1705,-3.1705,-3.1705,-3.1705,-3.1705,-3.1705,-3.1705,-3.1705,-3.1705,-3.1705,-3.1282,-3.0306,-3.0215,-2.9795,-2.8762,-2.868,-2.8251,-2.7237,-2.7179,-2.7189,-2.7189,-2.6187,-2.5693,-2.5693,-2.5693,-2.5693,-2.5693,-2.5693,-2.5693,-2.5693,-2.5693,-2.5693,-2.5723,-2.6201,-2.6387,-2.6426,-2.6846,-2.7012,-2.7012,-2.7012,-2.7285,-2.7708,-3.6275,-3.6275,-3.6323,-3.6405,-3.6405,-3.6323,-3.6146,-3.6063,-3.5908,-3.562,-3.538,-3.5223,-3.5223,-3.4981,-3.4775,-3.4775,-3.4775,-3.4775,-3.4775,-3.4775,-3.4775,-3.4775,-3.4775,-3.4775,-3.4775,-3.4775,-3.4775,-3.4775,-3.4619,-3.4342,-3.397,-3.2984,-3.2406,-3.2214,-3.1874,-3.1705,-3.1705,-3.1705,-3.1282,-3.0633,-3.0351,-2.9372,-2.8075,-2.7416,-2.6781,-2.6149,-2.583,-2.5693,-2.5732,-2.6052,-2.6187,-2.6215,-2.6353,-2.7358,-2.8215,-2.6975,-2.711,-2.7575,-2.7204,-2.6578,-2.6161,-2.6768,-2.6343,-2.5983,-2.653,-2.7571,-2.8617,-2.9482,-3.0032,-3.0616,-3.1304,-3.1597,-3.1705,-3.1705,-3.1705,-3.1705,-3.1705,-3.1705,-3.1705,-3.1705,-3.1092,-3.0678,-3.0678,-3.0079,-2.9795,-3.017,-2.9555,-2.905,-2.8727,-2.8075,-2.784,-2.8215,-2.6877,-2.6514,-2.7179,-2.6187,-2.5693,-2.5693,-2.5693,-2.5693,-2.5703,-2.6045,-2.6182,-2.6201,-2.6484,-2.6611,-2.6621,-2.6758,-2.6816,-2.6855,-2.7285,-2.7461,-2.749,-2.7783,-2.7978,-2.8096,-3.6405,-3.6405,-3.6358,-3.6275,-3.6228,-3.6133,-3.5908,-3.5764,-3.562,-3.5476,-3.5223,-3.5078,-3.5078,-3.4872,-3.4775,-3.4775,-3.4775,-3.4775,-3.4775,-3.4775,-3.4775,-3.4775,-3.4775,-3.4775,-3.4775,-3.4775,-3.4775,-3.4775,-3.4775,-3.451,-3.3982,-3.338,-3.2875,-3.2491,-3.213,-3.191,-3.1705,-3.1705,-3.1104,-3.017,-2.9795,-2.868,-2.7142,-2.6781,-2.6235,-2.5693,-2.5693,-2.5693,-2.5693,-2.5693,-2.5693,-2.5693,-2.5693,-2.6562,-2.7385,-2.6408,-2.6598,-2.6992,-2.6664,-2.6054,-2.5656,-2.6229,-2.5786,-2.5578,-2.6674,-2.7121,-2.7743,-2.9373,-2.961,-2.9836,-3.0944,-3.1149,-3.1149,-3.1149,-3.1472,-3.1572,-3.1193,-3.1149,-3.1003,-3.0633,-3.0022,-2.9658,-2.9658,-2.905,-2.8819,-2.905,-2.8495,-2.7981,-2.7568,-2.7332,-2.7332,-2.7579,-2.6332,-2.6004,-2.6648,-2.6004,-2.5771,-2.5986,-2.6143,-2.6171,-2.6181,-2.6494,-2.6621,-2.6641,-2.6904,-2.7012,-2.7021,-2.7197,-2.7256,-2.7305,-2.7734,-2.7953,-2.7939,-2.8193,-2.8291,-2.8291,-3.6405,-3.6405,-3.6323,-3.6063,-3.6015,-3.5908,-3.562,-3.5368,-3.5175,-3.5175,-3.4969,-3.4775,-3.4775,-3.4775,-3.4775,-3.4775,-3.4775,-3.4775,-3.4775,-3.4775,-3.4775,-3.4775,-3.4775,-3.4775,-3.4775,-3.4775,-3.4775,-3.4775,-3.4775,-3.4522,-3.4042,-3.4006,-3.3478,-3.2611,-3.2575,-3.225,-3.1765,-3.1677,-3.1095,-3.0125,-2.905,-2.8028,-2.7094,-2.61,-2.5693,-2.5693,-2.5693,-2.5693,-2.5693,-2.5693,-2.5693,-2.5693,-2.5693,-2.5693,-2.5693,-2.5693,-2.5693,-2.5693,-2.5693,-2.543,-2.5165,-2.5165,-2.4805,-2.4841,-2.6208,-2.5889,-2.6188,-2.942,-2.8634,-2.7887,-2.9841,-3.0215,-3.0215,-3.0215,-3.1015,-3.1294,-3.0351,-3.0215,-2.9841,-2.8819,-2.868,-2.868,-2.8577,-2.8541,-2.8121,-2.7284,-2.7142,-2.6733,-2.5868,-2.6648,-2.6696,-2.5732,-2.5693,-2.5703,-2.5732,-2.5732,-2.6006,-2.6435,-2.6826,-2.7012,-2.7012,-2.7041,-2.706,-2.706,-2.709,-2.71,-2.7139,-2.7539,-2.7767,-2.7796,-2.8135,-2.8291,-2.8291,-2.8291,-2.8291,-2.8291,-3.6405,-3.6405,-3.6323,-3.6063,-3.6015,-3.5812,-3.5368,-3.5223,-3.5126,-3.4932,-3.4823,-3.4775,-3.4775,-3.4775,-3.4775,-3.4775,-3.4775,-3.4775,-3.4775,-3.4775,-3.4775,-3.4775,-3.4775,-3.4775,-3.4775,-3.4775,-3.4775,-3.4775,-3.4775,-3.4715,-3.4583,-3.4186,-3.3862,-3.361,-3.3272,-3.2803,-3.2253,-3.1491,-3.0778,-3.0022,-2.8262,-2.7416,-2.7094,-2.61,-2.5693,-2.5693,-2.5693,-2.5693,-2.5693,-2.5693,-2.5693,-2.5693,-2.5693,-2.5693,-2.5693,-2.5693,-2.5693,-2.5693,-2.5693,-2.5615,-2.5586,-2.5586,-2.545,-2.5497,-2.5836,-2.6305,-2.716,-2.8751,-2.868,-2.8716,-2.9977,-3.0215,-3.0215,-3.0215,-3.0407,-3.0453,-3.0215,-3.0215,-2.9841,-2.8819,-2.868,-2.8402,-2.7652,-2.6877,-2.661,-2.7142,-2.6504,-2.6284,-2.6829,-2.6322,-2.5965,-2.5684,-2.5693,-2.5849,-2.623,-2.623,-2.6445,-2.6865,-2.6973,-2.7012,-2.7021,-2.7363,-2.751,-2.7529,-2.7851,-2.7988,-2.7998,-2.8105,-2.8144,-2.8154,-2.8252,-2.8291,-2.8291,-2.8291,-2.8291,-2.8291,-3.6405,-3.6405,-3.6323,-3.6063,-3.6015,-3.586,-3.5476,-3.5271,-3.5126,-3.4981,-3.4884,-3.4775,-3.4775,-3.4775,-3.4775,-3.4775,-3.4775,-3.4775,-3.4775,-3.4775,-3.4775,-3.4775,-3.4775,-3.4775,-3.4775,-3.4775,-3.4775,-3.4775,-3.4775,-3.4775,-3.4775,-3.4486,-3.4222,-3.3982,-3.3753,-3.3344,-3.2793,-3.2026,-3.1228,-3.0468,-2.9104,-2.8028,-2.7142,-2.66,-2.61,-2.5693,-2.5693,-2.5693,-2.5693,-2.5693,-2.5693,-2.5693,-2.5693,-2.5693,-2.5693,-2.5693,-2.5693,-2.5693,-2.5693,-2.5693,-2.5693,-2.5693,-2.5693,-2.5693,-2.5693,-2.61,-2.6781,-2.7793,-2.7662,-2.7626,-2.8634,-2.8819,-2.8819,-2.8819,-2.9189,-2.951,-2.951,-2.951,-2.9143,-2.8121,-2.8028,-2.7615,-2.66,-2.6004,-2.5917,-2.6456,-2.6004,-2.5917,-2.6504,-2.6201,-2.5947,-2.5693,-2.5937,-2.6152,-2.6387,-2.6777,-2.709,-2.7314,-2.751,-2.7598,-2.7607,-2.7842,-2.7949,-2.7969,-2.8193,-2.8291,-2.8291,-2.8291,-2.8291,-2.8291,-2.8291,-2.8291,-2.8291,-2.8291,-2.8291,-2.8291,-3.6405,-3.6405,-3.6323,-3.6063,-3.6015,-3.592,-3.562,-3.5416,-3.5271,-3.5271,-3.5078,-3.4932,-3.4932,-3.4932,-3.4872,-3.4872,-3.4872,-3.4823,-3.4775,-3.4775,-3.4775,-3.4775,-3.4775,-3.4775,-3.4775,-3.4775,-3.4775,-3.4775,-3.4775,-3.4775,-3.4775,-3.4775,-3.4546,-3.4114,-3.4114,-3.3779,-3.3135,-3.2681,-3.1971,-3.1042,-3.0445,-2.9227,-2.7768,-2.7626,-2.6986,-2.6149,-2.6149,-2.6149,-2.6149,-2.6149,-2.6149,-2.6149,-2.5965,-2.6004,-2.61,-2.5965,-2.6004,-2.611,-2.5781,-2.5693,-2.5693,-2.5693,-2.5693,-2.5693,-2.5693,-2.5693,-2.6004,-2.7189,-2.6514,-2.61,-2.7426,-2.7416,-2.7274,-2.7605,-2.8262,-2.868,-2.868,-2.868,-2.8262,-2.7094,-2.7094,-2.6781,-2.5781,-2.5693,-2.5693,-2.5693,-2.5693,-2.5713,-2.5781,-2.6182,-2.625,-2.5888,-2.6289,-2.6514,-2.6582,-2.7415,-2.7816,-2.7816,-2.8125,-2.8291,-2.8291,-2.8291,-2.8291,-2.8291,-2.8291,-2.8291,-2.8291,-2.8291,-2.8291,-2.8291,-2.8291,-2.8291,-2.8291,-2.8291,-2.8291,-2.8291,-3.6405,-3.6405,-3.6323,-3.6063,-3.6015,-3.592,-3.562,-3.5572,-3.5524,-3.5524,-3.5512,-3.5476,-3.5476,-3.5476,-3.5368,-3.5175,-3.5126,-3.503,-3.4823,-3.4775,-3.4775,-3.4775,-3.4775,-3.4775,-3.4775,-3.4775,-3.4775,-3.4775,-3.4775,-3.4775,-3.4775,-3.4775,-3.4787,-3.4655,-3.4655,-3.386,-3.2534,-3.2561,-3.2187,-3.1439,-3.0633,-3.0354,-3.0324,-2.9467,-2.8769,-2.8215,-2.8215,-2.8215,-2.8215,-2.8215,-2.8215,-2.8075,-2.7237,-2.7568,-2.8085,-2.7237,-2.7568,-2.7851,-2.6149,-2.5693,-2.5693,-2.5693,-2.5693,-2.5693,-2.5693,-2.5693,-2.6245,-2.8075,-2.6972,-2.6524,-2.9246,-2.8355,-2.7746,-2.9464,-2.9143,-2.868,-2.868,-2.868,-2.7992,-2.6149,-2.6686,-2.6781,-2.5781,-2.5693,-2.5693,-2.5693,-2.5693,-2.5849,-2.6269,-2.6357,-2.6514,-2.6807,-2.6885,-2.71,-2.7513,-2.7949,-2.8193,-2.8193,-2.8262,-2.8291,-2.8291,-2.8291,-2.8291,-2.8291,-2.8291,-2.8291,-2.8291,-2.8291,-2.8291,-2.8291,-2.8291,-2.8291,-2.8291,-2.8291,-2.8291,-2.8291,-3.6405,-3.6405,-3.6358,-3.6228,-3.6228,-3.6181,-3.6038,-3.5908,-3.5824,-3.5824,-3.5668,-3.562,-3.562,-3.562,-3.5572,-3.5428,-3.5428,-3.5368,-3.5223,-3.4981,-3.4775,-3.4775,-3.4775,-3.4775,-3.4775,-3.4775,-3.4775,-3.4775,-3.4775,-3.4775,-3.4775,-3.4775,-3.4775,-3.4775,-3.4775,-3.4388,-3.3689,-3.3467,-3.3159,-3.2817,-3.2168,-3.1724,-3.1375,-3.0938,-3.0248,-2.9529,-2.9219,-2.9132,-2.9088,-2.8814,-2.868,-2.8634,-2.8157,-2.8355,-2.8634,-2.8121,-2.7934,-2.7793,-2.7437,-2.6924,-2.6648,-2.7163,-2.6924,-2.6648,-2.721,-2.6476,-2.6294,-2.8308,-2.7115,-2.6294,-2.8215,-2.7389,-2.6696,-2.7636,-2.74,-2.7247,-2.784,-2.7887,-2.7568,-2.66,-2.6914,-2.6781,-2.5781,-2.5693,-2.5693,-2.5693,-2.5908,-2.6172,-2.6377,-2.6826,-2.7168,-2.7363,-2.7363,-2.7578,-2.7998,-2.8193,-2.8291,-2.8291,-2.8291,-2.8291,-2.8291,-2.8291,-2.8291,-2.8291,-2.8291,-2.8291,-2.8291,-2.8291,-2.8291,-2.8291,-2.8291,-2.8291,-2.8291,-2.8291,-2.8291,-2.8291,-3.6405,-3.6405,-3.6405,-3.6405,-3.6405,-3.6405,-3.6405,-3.6228,-3.6098,-3.6098,-3.5908,-3.5812,-3.5812,-3.5812,-3.5752,-3.5716,-3.5668,-3.5668,-3.562,-3.5223,-3.4981,-3.4884,-3.4835,-3.4775,-3.4775,-3.4775,-3.4775,-3.4775,-3.4775,-3.4775,-3.4775,-3.4775,-3.4775,-3.4775,-3.4775,-3.4677,-3.4397,-3.4246,-3.4019,-3.3791,-3.3707,-3.3125,-3.2321,-3.2321,-3.1764,-3.0934,-3.0552,-3.037,-3.0314,-2.9911,-2.9777,-2.973,-2.9487,-2.958,-2.9708,-2.9353,-2.8581,-2.8028,-2.8541,-2.8121,-2.7746,-2.8495,-2.8121,-2.7746,-2.8541,-2.7484,-2.6849,-2.8402,-2.7484,-2.661,-2.7426,-2.6744,-2.6149,-2.638,-2.6197,-2.6332,-2.7094,-2.7189,-2.7094,-2.6877,-2.6877,-2.6592,-2.5918,-2.584,-2.5879,-2.5976,-2.6348,-2.6582,-2.668,-2.7356,-2.7767,-2.7865,-2.7812,-2.7969,-2.8291,-2.8291,-2.8291,-2.8291,-2.8291,-2.8291,-2.8291,-2.8291,-2.8291,-2.8291,-2.8291,-2.8291,-2.8291,-2.8291,-2.8291,-2.8291,-2.8291,-2.8291,-2.8291,-2.8291,-2.8291,-2.8291,-3.6405,-3.6405,-3.6405,-3.6405,-3.6405,-3.6405,-3.6405,-3.6358,-3.6358,-3.6358,-3.6358,-3.6358,-3.6358,-3.6358,-3.6228,-3.6015,-3.5968,-3.5872,-3.562,-3.5572,-3.5428,-3.5175,-3.492,-3.4775,-3.4775,-3.4775,-3.4775,-3.4775,-3.4775,-3.4775,-3.4775,-3.4775,-3.4775,-3.4775,-3.4775,-3.4274,-3.34,-3.4337,-3.4166,-3.3342,-3.4326,-3.4366,-3.3839,-3.3839,-3.3504,-3.3086,-3.305,-3.3026,-3.3026,-3.2978,-3.2966,-3.278,-3.1853,-3.2183,-3.2685,-3.124,-3.0411,-2.9795,-2.8958,-2.8634,-2.8634,-2.868,-2.8634,-2.8634,-2.868,-2.8588,-2.8541,-2.868,-2.8588,-2.8495,-2.8588,-2.7746,-2.7379,-2.8308,-2.7709,-2.7094,-2.7189,-2.7189,-2.6867,-2.5917,-2.583,-2.5938,-2.6299,-2.6338,-2.6504,-2.6894,-2.6953,-2.7148,-2.7601,-2.7689,-2.7894,-2.8232,-2.8252,-2.8262,-2.8291,-2.8291,-2.8291,-2.8291,-2.8291,-2.8291,-2.8291,-2.8291,-2.8291,-2.8291,-2.8291,-2.8291,-2.8291,-2.8291,-2.8291,-2.8291,-2.8291,-2.8291,-2.8291,-2.8291,-2.8291,-2.8291,-3.6405,-3.6405,-3.6405,-3.6405,-3.6405,-3.6405,-3.6405,-3.6405,-3.6405,-3.6405,-3.6405,-3.6405,-3.6405,-3.6405,-3.6358,-3.6275,-3.6228,-3.6181,-3.6086,-3.5955,-3.5716,-3.5476,-3.5368,-3.5223,-3.5078,-3.5078,-3.4981,-3.4775,-3.4775,-3.4775,-3.4775,-3.4775,-3.4775,-3.4775,-3.4775,-3.458,-3.4225,-3.4628,-3.4568,-3.4213,-3.4628,-3.4667,-3.4486,-3.4486,-3.4414,-3.4198,-3.3873,-3.3753,-3.3705,-3.3392,-3.3284,-3.3238,-3.2841,-3.2993,-3.3202,-3.2603,-3.2297,-3.2039,-3.1658,-3.0606,-2.9795,-3.0396,-3.0068,-2.9795,-3.0396,-2.9612,-2.905,-3.0306,-2.9567,-2.8912,-2.9521,-2.9072,-2.8534,-2.8259,-2.8105,-2.7852,-2.7182,-2.7092,-2.6953,-2.6523,-2.6533,-2.6592,-2.6758,-2.6777,-2.6846,-2.7002,-2.7266,-2.749,-2.7708,-2.7963,-2.8125,-2.8291,-2.8291,-2.8291,-2.8291,-2.8291,-2.8291,-2.8291,-2.8291,-2.8291,-2.8291,-2.8291,-2.8291,-2.8291,-2.8291,-2.8291,-2.8291,-2.8291,-2.8291,-2.8291,-2.8291,-2.8291,-2.8291,-2.8291,-2.8291,-2.8291,-3.6405,-3.6405,-3.6405,-3.6405,-3.6405,-3.6405,-3.6405,-3.6405,-3.6405,-3.6405,-3.6405,-3.6405,-3.6405,-3.6405,-3.6405,-3.6405,-3.6405,-3.6405,-3.6405,-3.6228,-3.5955,-3.562,-3.562,-3.5512,-3.532,-3.5332,-3.5223,-3.5078,-3.5078,-3.503,-3.492,-3.503,-3.503,-3.4932,-3.4932,-3.4932,-3.4932,-3.4823,-3.4775,-3.4775,-3.4775,-3.4775,-3.4775,-3.4775,-3.4775,-3.4727,-3.4366,-3.4234,-3.4186,-3.3885,-3.3777,-3.3777,-3.3777,-3.3657,-3.3525,-3.3525,-3.3416,-3.3284,-3.3284,-3.226,-3.1362,-3.2031,-3.1703,-3.1362,-3.2031,-3.1122,-3.0468,-3.151,-3.0893,-3.0179,-3.0225,-3.0238,-2.9903,-2.8805,-2.8912,-2.8765,-2.7652,-2.75,-2.7409,-2.7063,-2.7012,-2.707,-2.7207,-2.7217,-2.7275,-2.7402,-2.7695,-2.7861,-2.7861,-2.8135,-2.8291,-2.8291,-2.8291,-2.8291,-2.8291,-2.8291,-2.8291,-2.8291,-2.8291,-2.8291,-2.8291,-2.8291,-2.8291,-2.8291,-2.8291,-2.8291,-2.8291,-2.8291,-2.8291,-2.8291,-2.8291,-2.8291,-2.8291,-2.8291,-2.8291,-2.8291,-3.6405,-3.6405,-3.6405,-3.6405,-3.6405,-3.6405,-3.6405,-3.6405,-3.6405,-3.6405,-3.6405,-3.6405,-3.6405,-3.6405,-3.6405,-3.6405,-3.6405,-3.6405,-3.6405,-3.6405,-3.6181,-3.562,-3.562,-3.562,-3.562,-3.562,-3.562,-3.562,-3.562,-3.5464,-3.5223,-3.5476,-3.5476,-3.5223,-3.5223,-3.5223,-3.5175,-3.4932,-3.4835,-3.4775,-3.4835,-3.4835,-3.4775,-3.4835,-3.4775,-3.4775,-3.4775,-3.4775,-3.4835,-3.4775,-3.4775,-3.4775,-3.4775,-3.4414,-3.4006,-3.4006,-3.3693,-3.3308,-3.3308,-3.3308,-3.3296,-3.3284,-3.3284,-3.3284,-3.3284,-3.3284,-3.3039,-3.2016,-3.2606,-3.27,-3.0689,-3.1134,-3.1481,-3.0495,-3.0312,-2.9911,-2.8776,-2.8626,-2.8247,-2.7165,-2.7021,-2.7197,-2.7679,-2.7728,-2.7894,-2.8262,-2.8291,-2.8291,-2.8291,-2.8291,-2.8291,-2.8291,-2.8291,-2.8291,-2.8291,-2.8291,-2.8291,-2.8291,-2.8291,-2.8291,-2.8291,-2.8291,-2.8291,-2.8291,-2.8291,-2.8291,-2.8291,-2.8291,-2.8291,-2.8291,-2.8291,-2.8291,-2.8291,-2.8291,-2.8291,-2.8291,-3.6405,-3.6405,-3.6405,-3.6405,-3.6405,-3.6405,-3.6405,-3.6405,-3.6405,-3.6405,-3.6405,-3.6405,-3.6405,-3.6405,-3.6405,-3.6405,-3.6405,-3.6405,-3.6405,-3.6405,-3.631,-3.6181,-3.6181,-3.6086,-3.5872,-3.5872,-3.5764,-3.562,-3.562,-3.5572,-3.5476,-3.5572,-3.5572,-3.5476,-3.5476,-3.538,-3.5223,-3.532,-3.5271,-3.5078,-3.5271,-3.5271,-3.5126,-3.5271,-3.5223,-3.5078,-3.5078,-3.5223,-3.532,-3.5126,-3.5078,-3.5078,-3.4884,-3.4667,-3.4546,-3.4546,-3.4438,-3.4366,-3.4366,-3.4366,-3.4198,-3.3477,-3.3284,-3.3284,-3.3284,-3.3284,-3.3191,-3.2899,-3.3086,-3.3145,-3.25,-3.2936,-3.3017,-3.1934,-3.2071,-3.195,-3.0846,-3.0032,-2.9673,-3.0196,-2.8876,-2.8265,-2.9152,-2.8562,-2.8154,-2.8281,-2.8291,-2.8291,-2.8291,-2.8291,-2.8291,-2.8291,-2.8291,-2.8291,-2.8291,-2.8291,-2.8291,-2.8291,-2.8291,-2.8291,-2.8291,-2.8291,-2.8291,-2.8291,-2.8291,-2.8291,-2.8291,-2.8291,-2.8291,-2.8291,-2.8291,-2.8291,-2.8291,-2.8291,-2.8291,-2.8291,-3.6405,-3.6405,-3.6405,-3.6405,-3.6405,-3.6405,-3.6405,-3.6405,-3.6405,-3.6405,-3.6405,-3.6405,-3.6405,-3.6405,-3.6405,-3.6405,-3.6405,-3.6405,-3.6405,-3.6405,-3.6405,-3.6405,-3.6405,-3.6323,-3.6146,-3.6146,-3.6098,-3.5943,-3.5943,-3.5847,-3.5764,-3.5847,-3.5847,-3.5764,-3.5764,-3.5668,-3.5524,-3.5572,-3.5524,-3.5368,-3.5524,-3.5512,-3.538,-3.5524,-3.5524,-3.5368,-3.5368,-3.5464,-3.5572,-3.5416,-3.5368,-3.532,-3.5175,-3.5126,-3.5078,-3.4981,-3.4981,-3.4932,-3.4835,-3.4775,-3.4631,-3.4054,-3.3897,-3.3897,-3.3897,-3.3897,-3.3897,-3.3897,-3.3897,-3.3897,-3.3897,-3.415,-3.4102,-3.3449,-3.3609,-3.3461,-3.2387,-3.1615,-3.1308,-3.1575,-3.0401,-2.988,-3.0494,-2.9565,-2.8751,-2.8344,-2.8291,-2.8291,-2.8291,-2.8291,-2.8291,-2.8291,-2.8291,-2.8291,-2.8291,-2.8291,-2.8291,-2.8291,-2.8291,-2.8291,-2.8291,-2.8291,-2.8291,-2.8291,-2.8291,-2.8291,-2.8291,-2.8291,-2.8291,-2.8291,-2.8291,-2.8291,-2.8291,-2.8291,-2.8291,-2.8291,-3.6405,-3.6405,-3.6405,-3.6405,-3.6405,-3.6405,-3.6405,-3.6405,-3.6405,-3.6405,-3.6405,-3.6405,-3.6405,-3.6405,-3.6405,-3.6405,-3.6405,-3.6405,-3.6405,-3.6405,-3.6405,-3.6405,-3.6405,-3.6405,-3.6405,-3.6405,-3.6405,-3.6405,-3.6405,-3.6275,-3.6063,-3.6275,-3.6275,-3.6063,-3.6063,-3.6015,-3.5968,-3.5764,-3.5668,-3.562,-3.5668,-3.5668,-3.562,-3.5668,-3.5668,-3.562,-3.562,-3.5668,-3.5668,-3.562,-3.562,-3.562,-3.562,-3.562,-3.5572,-3.532,-3.5223,-3.5126,-3.4872,-3.4835,-3.4775,-3.4775,-3.4775,-3.4775,-3.4775,-3.4775,-3.4775,-3.4775,-3.4775,-3.4775,-3.4775,-3.4775,-3.4775,-3.4775,-3.4775,-3.447,-3.3461,-3.325,-3.2889,-3.1982,-3.1728,-3.1626,-3.1728,-3.065,-2.9513,-2.8495,-2.8344,-2.8291,-2.8291,-2.8291,-2.8291,-2.8291,-2.8291,-2.8291,-2.8291,-2.8291,-2.8291,-2.8291,-2.8291,-2.8291,-2.8291,-2.8291,-2.8291,-2.8291,-2.8291,-2.8291,-2.8291,-2.8291,-2.8291,-2.8291,-2.8291,-2.8291,-2.8291,-2.8291,-2.8291,-2.8291,-3.6405,-3.6405,-3.6405,-3.6405,-3.6405,-3.6405,-3.6405,-3.6405,-3.6405,-3.6405,-3.6405,-3.6405,-3.6405,-3.6405,-3.6405,-3.6405,-3.6405,-3.6405,-3.6405,-3.6405,-3.6405,-3.6405,-3.6405,-3.6405,-3.6405,-3.6405,-3.6405,-3.6405,-3.6405,-3.6358,-3.6323,-3.6358,-3.6358,-3.6323,-3.6323,-3.6193,-3.6015,-3.6181,-3.6086,-3.592,-3.6133,-3.6086,-3.5968,-3.6133,-3.6086,-3.592,-3.592,-3.6051,-3.6168,-3.6003,-3.592,-3.5872,-3.5668,-3.562,-3.5572,-3.5524,-3.5368,-3.5175,-3.5126,-3.4981,-3.4775,-3.4775,-3.4775,-3.4775,-3.4775,-3.4775,-3.4775,-3.4775,-3.4775,-3.4775,-3.4775,-3.4775,-3.4775,-3.4775,-3.4775,-3.4726,-3.4482,-3.3709,-3.3411,-3.4017,-3.2639,-3.1931,-3.2789,-3.1051,-2.9817,-2.9565,-2.8751,-2.8291,-2.8291,-2.8291,-2.8291,-2.8291,-2.8291,-2.8291,-2.8291,-2.8291,-2.8291,-2.8291,-2.8291,-2.8291,-2.8291,-2.8291,-2.8291,-2.8291,-2.8291,-2.8291,-2.8291,-2.8291,-2.8291,-2.8291,-2.8291,-2.8291,-2.8291,-2.8291,-2.8291,-2.8291,-3.6405,-3.6405,-3.6405,-3.6405,-3.6405,-3.6405,-3.6405,-3.6405,-3.6405,-3.6405,-3.6405,-3.6405,-3.6405,-3.6405,-3.6405,-3.6405,-3.6405,-3.6405,-3.6405,-3.6405,-3.6405,-3.6405,-3.6405,-3.6405,-3.6405,-3.6405,-3.6405,-3.6405,-3.6405,-3.6405,-3.6405,-3.6405,-3.6405,-3.6405,-3.6405,-3.6323,-3.6193,-3.6323,-3.6323,-3.6193,-3.6323,-3.6323,-3.6181,-3.637,-3.6323,-3.6193,-3.6193,-3.6275,-3.6358,-3.6228,-3.6193,-3.6193,-3.6038,-3.5991,-3.5943,-3.5812,-3.5668,-3.556,-3.5428,-3.5271,-3.5175,-3.5175,-3.5078,-3.4981,-3.4835,-3.4775,-3.4775,-3.4775,-3.4775,-3.4775,-3.4775,-3.4775,-3.4775,-3.4775,-3.4775,-3.4775,-3.4775,-3.4323,-3.4164,-3.4726,-3.3808,-3.3151,-3.3201,-3.2123,-3.1051,-2.9974,-2.9365,-2.8857,-2.8344,-2.8291,-2.8291,-2.8291,-2.8291,-2.8291,-2.8291,-2.8291,-2.8291,-2.8291,-2.8291,-2.8291,-2.8291,-2.8291,-2.8291,-2.8291,-2.8291,-2.8291,-2.8291,-2.8291,-2.8291,-2.8291,-2.8291,-2.8291,-2.8291,-2.8291,-2.8291,-2.8291,-3.6405,-3.6405,-3.6405,-3.6405,-3.6405,-3.6405,-3.6405,-3.6405,-3.6405,-3.6405,-3.6405,-3.6405,-3.6405,-3.6405,-3.6405,-3.6405,-3.6405,-3.6405,-3.6405,-3.6405,-3.6405,-3.6405,-3.6405,-3.6405,-3.6405,-3.6405,-3.6405,-3.6405,-3.6405,-3.6405,-3.6405,-3.6405,-3.6405,-3.6405,-3.6405,-3.6405,-3.6405,-3.6405,-3.6405,-3.6405,-3.6405,-3.6405,-3.6405,-3.6405,-3.6405,-3.6405,-3.6405,-3.6405,-3.6405,-3.6405,-3.6405,-3.6405,-3.6405,-3.6405,-3.6358,-3.6146,-3.6063,-3.5968,-3.5716,-3.562,-3.562,-3.562,-3.5428,-3.5223,-3.4981,-3.4884,-3.4775,-3.4775,-3.4775,-3.4775,-3.4775,-3.4775,-3.4775,-3.4775,-3.4775,-3.4775,-3.4775,-3.4775,-3.4775,-3.4775,-3.4775,-3.447,-3.356,-3.3151,-3.2185,-3.0338,-2.9828,-2.926,-2.8344,-2.8291,-2.8291,-2.8291,-2.8291,-2.8291,-2.8291,-2.8291,-2.8291,-2.8291,-2.8291,-2.8291,-2.8291,-2.8291,-2.8291,-2.8291,-2.8291,-2.8291,-2.8291,-2.8291,-2.8291,-2.8291,-2.8291,-2.8291,-2.8291,-2.8291,-2.8291,-2.8291,-3.6405,-3.6405,-3.6405,-3.6405,-3.6405,-3.6405,-3.6405,-3.6405,-3.6405,-3.6405,-3.6405,-3.6405,-3.6405,-3.6405,-3.6405,-3.6405,-3.6405,-3.6405,-3.6405,-3.6405,-3.6405,-3.6405,-3.6405,-3.6405,-3.6405,-3.6405,-3.6405,-3.6405,-3.6405,-3.6405,-3.6405,-3.6405,-3.6405,-3.6405,-3.6405,-3.6405,-3.6405,-3.6405,-3.6405,-3.6405,-3.6405,-3.6405,-3.6405,-3.6405,-3.6405,-3.6405,-3.6405,-3.6405,-3.6405,-3.6405,-3.6405,-3.6405,-3.6405,-3.6405,-3.6405,-3.6358,-3.6193,-3.5968,-3.5968,-3.5764,-3.562,-3.562,-3.5572,-3.5524,-3.5512,-3.5126,-3.4775,-3.4775,-3.4775,-3.4775,-3.4775,-3.4775,-3.4775,-3.4775,-3.4775,-3.4775,-3.4775,-3.4775,-3.4775,-3.4775,-3.4775,-3.4726,-3.458,-3.2901,-3.1677,-3.137,-2.9576,-2.8441,-2.8291,-2.8291,-2.8291,-2.8291,-2.8291,-2.8291,-2.8291,-2.8291,-2.8291,-2.8291,-2.8291,-2.8291,-2.8291,-2.8291,-2.8291,-2.8291,-2.8291,-2.8291,-2.8291,-2.8291,-2.8291,-2.8291,-2.8291,-2.8291,-2.8291,-2.8291,-2.8291,-2.8291,-3.6405,-3.6405,-3.6405,-3.6405,-3.6405,-3.6405,-3.6405,-3.6405,-3.6405,-3.6405,-3.6405,-3.6405,-3.6405,-3.6405,-3.6405,-3.6405,-3.6405,-3.6405,-3.6405,-3.6405,-3.6405,-3.6405,-3.6405,-3.6405,-3.6405,-3.6405,-3.6405,-3.6405,-3.6405,-3.6405,-3.6405,-3.6405,-3.6405,-3.6405,-3.6405,-3.6405,-3.6405,-3.6405,-3.6405,-3.6405,-3.6405,-3.6405,-3.6405,-3.6405,-3.6405,-3.6405,-3.6405,-3.6405,-3.6405,-3.6405,-3.6405,-3.6405,-3.6405,-3.6405,-3.6405,-3.6405,-3.6323,-3.6228,-3.6228,-3.6133,-3.6038,-3.6038,-3.5943,-3.5812,-3.5812,-3.5524,-3.5223,-3.5078,-3.4872,-3.4775,-3.4775,-3.4775,-3.4775,-3.4775,-3.4775,-3.4775,-3.4775,-3.4775,-3.4775,-3.4775,-3.4775,-3.4775,-3.4775,-3.3967,-3.3151,-3.2538,-3.1011,-2.988,-2.9207,-2.8654,-2.8291,-2.8291,-2.8291,-2.8291,-2.8291,-2.8291,-2.8291,-2.8291,-2.8291,-2.8291,-2.8291,-2.8291,-2.8291,-2.8291,-2.8291,-2.8291,-2.8291,-2.8291,-2.8291,-2.8291,-2.8291,-2.8291,-2.8291,-2.8291,-2.8291,-2.8291]},{"header":{"parameterUnit":"m.s-1","parameterCategory":1,"la1":30.6,"la2":28.766,"lo1":-90.7593,"lo2":-88.6598,"dy":0.0162,"dx":0.0183,"nx":116,"ny":114,"refTime":"2024-02-27T18:00:00:Z","depth":0,"parameterNumber":3,"parameterNumberName":"V-component_of_WINDS"},"data":[0.0,0.0,0.0,0.0,0.0,0.0,0.0,0.0,0.0,0.0,0.0,0.0,0.0,0.0,0.0,0.0,0.0,0.0,0.0,0.0,0.0,0.0,0.0,0.0,0.0,0.0,0.0,0.0,0.0,0.0,0.0,0.0,0.0,0.0,0.0,0.0,0.0,0.0,0.0,0.0,0.0,0.0,0.0,0.0,0.0,0.0,0.0,0.0,0.0,0.0,0.0,0.0,0.0,0.0,0.0,0.0,0.0,0.0,0.0,0.0,0.0,0.0,0.0,0.0,0.0,0.0,0.0,0.0,0.0,0.0,0.0,0.0,0.0,0.0,0.0,0.0,0.0,0.0,0.0,0.0,0.0,0.0,0.0,0.0,0.0,0.0,0.0,0.0,0.0,0.0,0.0,0.0,0.0,0.0,0.0,0.0,0.0,0.0,0.0,0.0,0.0,0.0,0.0,0.0,0.0,0.0,0.0,0.0,0.0,0.0,0.0,0.0,0.0,0.0,0.0,0.0,0.0,0.0,0.0,0.0,0.0,0.0,0.0,0.0,0.0,0.0,0.0,0.0,0.0,0.0,0.0,0.0,0.0,0.0,0.0,0.0,0.0,0.0,0.0,0.0,0.0,0.0,0.0,0.0,0.0,0.0,0.0,0.0,0.0,0.0,0.0,0.0,0.0,0.0,0.0,0.0,0.0,0.0,0.0,0.0,0.0,0.0,0.0,0.0,0.0,0.0,0.0,0.0,0.0,0.0,0.0,0.0,0.0,0.0,0.0,0.0,0.0,0.0,0.0,0.0,0.0,0.0,0.0,0.0,0.0,0.0,0.0,0.0,0.0,0.0,0.0,0.0,0.0,0.0,0.0,0.0,0.0,0.0,0.0,0.0,0.0,0.0,0.0,0.0,0.0,0.0,0.0,0.0,0.0,0.0,0.0,0.0,0.0,0.0,0.0,0.0,0.0,0.0,0.0,0.0,0.0,0.0,0.0,0.0,0.0,0.0,0.0,0.0,0.0,0.0,0.0,0.0,0.0,0.0,0.0,0.0,0.0,0.0,0.0,0.0,0.0,0.0,0.0,0.0,0.0,0.0,0.0,0.0,0.0,0.0,0.0,0.0,0.0,0.0,0.0,0.0,0.0,0.0,0.0,0.0,0.0,0.0,0.0,0.0,0.0,0.0,0.0,0.0,0.0,0.0,0.0,0.0,0.0,0.0,0.0,0.0,0.0,0.0,0.0,0.0,0.0,0.0,0.0,0.0,0.0,0.0,0.0,0.0,0.0,0.0,0.0,0.0,0.0,0.0,0.0,0.0,0.0,0.0,0.0,0.0,0.0,0.0,0.0,0.0,0.0,0.0,0.0,0.0,0.0,0.0,0.0,0.0,0.0,0.0,0.0,0.0,0.0,0.0,0.0,0.0,0.0,0.0,0.0,0.0,0.0,0.0,0.0,0.0,0.0,0.0,0.0,0.0,0.0,0.0,0.0,0.0,0.0,0.0,0.0,0.0,0.0,0.0,0.0,0.0,0.0,0.0,0.0,0.0,0.0,0.0,0.0,0.0,0.0,0.0,0.0,0.0,0.0,0.0,0.0,0.0,0.0,0.0,0.0,0.0,0.0,0.0,0.0,0.0,0.0,0.0,0.0,0.0,0.0,0.0,0.0,0.0,0.0,0.0,0.0,0.0,0.0,0.0,0.0,0.0,0.0,0.0,0.0,0.0,0.0,0.0,0.0,0.0,0.0,0.0,0.0,0.0,0.0,0.0,0.0,0.0,0.0,0.0,0.0,0.0,0.0,0.0,0.0,0.0,0.0,0.0,0.0,0.0,0.0,0.0,0.0,0.0,0.0,0.0,0.0,0.0,0.0,0.0,0.0,0.0,0.0,0.0,0.0,0.0,0.0,0.0,0.0,0.0,0.0,0.0,0.0,0.0,0.0,0.0,0.0,0.0,0.0,0.0,0.0,0.0,0.0,0.0,0.0,0.0,0.0,0.0,0.0,0.0,0.0,0.0,0.0,0.0,0.0,0.0,0.0,0.0,0.0,0.0,0.0,0.0,0.0,0.0,0.0,0.0,0.0,0.0,0.0,0.0,0.0,0.0,0.0,0.0,0.0,0.0,0.0,0.0,0.0,0.0,0.0,0.0,0.0,0.0,0.0,0.0,0.0,0.0,0.0,0.0,0.0,0.0,0.0,0.0,0.0,0.0,0.0,0.0,0.0,0.0,0.0,0.0,0.0,0.0,0.0,0.0,0.0,0.0,0.0,0.0,0.0,0.0,0.0,0.0,0.0,0.0,0.0,0.0,0.0,0.0,0.0,0.0,0.0,0.0,0.0,0.0,0.0,0.0,0.0,0.0,0.0,0.0,0.0,0.0,0.0,0.0,0.0,0.0,0.0,0.0,0.0,0.0,0.0,0.0,0.0,0.0,0.0,0.0,0.0,0.0,0.0,0.0,0.0,0.0,0.0,0.0,0.0,0.0,0.0,0.0,0.0,0.0,0.0,0.0,0.0,0.0,0.0,0.0,0.0,0.0,0.0,0.0,0.0,0.0,0.0,0.0,0.0,0.0,0.0,0.0,0.0,0.0,0.0,0.0,0.0,0.0,0.0,0.0,0.0,0.0,0.0,0.0,0.0,0.0,0.0,0.0,0.0,0.0,0.0,0.0,0.0,0.0,0.0,0.0,0.0,0.0,0.0,0.0,0.0,0.0,0.0,0.0,0.0,0.0,0.0,0.0,0.0,0.0,0.0,0.0,0.0,0.0,0.0,0.0,0.0,0.0,0.0,0.0,0.0,0.0,0.0,0.0,0.0,0.0,0.0,0.0,0.0,0.0,0.0,0.0,0.0,0.0,0.0,0.0,0.0,0.0,0.0,0.0,0.0,0.0,0.0,0.0,0.0,0.0,0.0,0.0,0.0,0.0,0.0,0.0,0.0,0.0,0.0,0.0,0.0,0.0,0.0,0.0,0.0,0.0,0.0,0.0,0.0,0.0,0.0,0.0,0.0,0.0,0.0,0.0,0.0,0.0,0.0,0.0,0.0,0.0,0.0,0.0,0.0,0.0,0.0,0.0,0.0,0.0,0.0,0.0,0.0,0.0,0.0,0.0,0.0,0.0,0.0,0.0,0.0,0.0,0.0,0.0,0.0,0.0,0.0,0.0,0.0,0.0,0.0,0.0,0.0,0.0,0.0,0.0,0.0,0.0,0.0,0.0,0.0,0.0,0.0,0.0,0.0,0.0,0.0,0.0,0.0,0.0,0.0,0.0,0.0,0.0,0.0,0.0,0.0,0.0,0.0,0.0,0.0,0.0,0.0,0.0,0.0,0.0,0.0,0.0,0.0,0.0,0.0,0.0,0.0,0.0,0.0,0.0,0.0,0.0,0.0,0.0,0.0,0.0,0.0,0.0,0.0,0.0,0.0,0.0,0.0,0.0,0.0,0.0,0.0,0.0,0.0,0.0,0.0,0.0,0.0,0.0,0.0,0.0,0.0,0.0,0.0,0.0,0.0,0.0,0.0,0.0,0.0,0.0,0.0,0.0,0.0,0.0,0.0,0.0,0.0,0.0,0.0,0.0,0.0,0.0,0.0,0.0,0.0,0.0,0.0,0.0,0.0,0.0,0.0,0.0,0.0,0.0,0.0,0.0,0.0,0.0,0.0,0.0,0.0,0.0,0.0,0.0,0.0,0.0,0.0,0.0,0.0,0.0,0.0,0.0,0.0,0.0,0.0,0.0,0.0,0.0,0.0,0.0,0.0,0.0,0.0,0.0,0.0,0.0,0.0,0.0,0.0,0.0,0.0,0.0,0.0,0.0,0.0,0.0,0.0,0.0,0.0,0.0,0.0,0.0,0.0,0.0,0.0,0.0,0.0,0.0,0.0,0.0,0.0,0.0,0.0,0.0,0.0,0.0,0.0,0.0,0.0,0.0,0.0,0.0,0.0,0.0,0.0,0.0,0.0,0.0,0.0,0.0,0.0,0.0,0.0,0.0,0.0,0.0,0.0,0.0,0.0,0.0,0.0,0.0,0.0,0.0,0.0,0.0,0.0,0.0,0.0,0.0,0.0,0.0,0.0,0.0,0.0,0.0,0.0,0.0,0.0,0.0,0.0,0.0,0.0,0.0,0.0,0.0,0.0,0.0,0.0,0.0,0.0,0.0,0.0,0.0,0.0,0.0,0.0,0.0,0.0,0.0,0.0,0.0,0.0,0.0,0.0,0.0,0.0,0.0,0.0,0.0,0.0,0.0,0.0,0.0,0.0,0.0,0.0,0.0,0.0,0.0,0.0,0.0,0.0,0.0,0.0,0.0,0.0,0.0,0.0,0.0,0.0,0.0,0.0,0.0,0.0,0.0,0.0,0.0,0.0,0.0,0.0,0.0,0.0,0.0,0.0,0.0,0.0,0.0,0.0,0.0,0.0,0.0,0.0,0.0,0.0,0.0,0.0,0.0,0.0,0.0,0.0,0.0,0.0,0.0,0.0,0.0,0.0,0.0,0.0,0.0,0.0,0.0,0.0,0.0,0.0,0.0,0.0,0.0,0.0,0.0,0.0,0.0,0.0,0.0,0.0,0.0,0.0,0.0,0.0,0.0,0.0,0.0,0.0,0.0,0.0,0.0,0.0,0.0,0.0,0.0,0.0,0.0,0.0,0.0,0.0,0.0,0.0,0.0,0.0,0.0,0.0,0.0,0.0,0.0,0.0,0.0,0.0,0.0,0.0,0.0,0.0,0.0,0.0,0.0,0.0,0.0,0.0,0.0,0.0,0.0,0.0,0.0,0.0,0.0,0.0,0.0,0.0,0.0,0.0,0.0,0.0,0.0,0.0,0.0,0.0,0.0,0.0,0.0,0.0,0.0,0.0,0.0,0.0,0.0,0.0,0.0,0.0,0.0,0.0,0.0,0.0,0.0,0.0,0.0,0.0,0.0,0.0,0.0,0.0,0.0,0.0,0.0,0.0,0.0,0.0,0.0,0.0,0.0,0.0,0.0,0.0,0.0,0.0,0.0,0.0,0.0,0.0,0.0,0.0,0.0,0.0,0.0,0.0,0.0,0.0,0.0,0.0,0.0,0.0,0.0,0.0,0.0,0.0,0.0,0.0,0.0,0.0,0.0,0.0,0.0,0.0,0.0,0.0,0.0,0.0,0.0,0.0,0.0,0.0,0.0,0.0,0.0,0.0,0.0,0.0,0.0,0.0,0.0,0.0,0.0,0.0,0.0,0.0,0.0,0.0,0.0,0.0,0.0,0.0,0.0,0.0,0.0,0.0,0.0,0.0,0.0,0.0,0.0,0.0,0.0,0.0,0.0,0.0,0.0,0.0,0.0,0.0,0.0,0.0,0.0,0.0,0.0,0.0,0.0,0.0,0.0,0.0,0.0,0.0,0.0,0.0,0.0,0.0,0.0,0.0,0.0,0.0,0.0,0.0,0.0,0.0,0.0,0.0,0.0,0.0,0.0,0.0,0.0,0.0,0.0,0.0,0.0,0.0,0.0,0.0,0.0,0.0,0.0,0.0,0.0,0.0,0.0,0.0,0.0,0.0,0.0,0.0,0.0,0.0,0.0,0.0,0.0,0.0,0.0,0.0,0.0,0.0,0.0,0.0,0.0,0.0,0.0,0.0,0.0,0.0,0.0,0.0,0.0,0.0,0.0,0.0,0.0,0.0,0.0,0.0,0.0,0.0,0.0,0.0,0.0,0.0,0.0,0.0,0.0,0.0,0.0,0.0,0.0,0.0,0.0,0.0,0.0,0.0,0.0,0.0,0.0,0.0,0.0,0.0,0.0,0.0,0.0,0.0,0.0,0.0,0.0,0.0,0.0,0.0,0.0,0.0,0.0,0.0,0.0,0.0,0.0,0.0,0.0,0.0,0.0,0.0,0.0,0.0,0.0,0.0,0.0,0.0,0.0,0.0,0.0,0.0,0.0,0.0,0.0,0.0,0.0,0.0,0.0,0.0,0.0,0.0,0.0,0.0,0.0,0.0,0.0,0.0,0.0,0.0,0.0,0.0,0.0,0.0,0.0,0.0,0.0,0.0,0.0,0.0,0.0,0.0,0.0,0.0,0.0,0.0,0.0,0.0,0.0,0.0,0.0,0.0,0.0,4.503,4.4549,0.0,0.0,0.0,0.0,0.0,0.0,0.0,0.0,0.0,0.0,0.0,0.0,0.0,0.0,0.0,0.0,0.0,0.0,0.0,0.0,0.0,0.0,0.0,0.0,0.0,0.0,3.8948,3.8993,3.91,3.883,0.0,0.0,0.0,0.0,3.8669,3.8639,3.8685,3.8769,3.8422,3.8503,3.8926,3.9131,3.9099,3.8899,0.0,0.0,0.0,0.0,0.0,0.0,0.0,0.0,0.0,0.0,0.0,0.0,0.0,0.0,0.0,0.0,0.0,0.0,0.0,0.0,0.0,0.0,0.0,0.0,0.0,0.0,0.0,0.0,0.0,0.0,0.0,0.0,0.0,0.0,0.0,0.0,0.0,0.0,0.0,0.0,0.0,0.0,0.0,0.0,0.0,0.0,0.0,0.0,0.0,0.0,0.0,0.0,0.0,0.0,0.0,0.0,0.0,0.0,0.0,0.0,0.0,0.0,0.0,0.0,0.0,0.0,0.0,0.0,0.0,0.0,4.5985,4.566,0.0,0.0,0.0,0.0,0.0,0.0,0.0,0.0,0.0,0.0,0.0,0.0,0.0,0.0,0.0,0.0,0.0,0.0,0.0,0.0,0.0,0.0,0.0,3.9322,3.9458,3.9363,3.9467,3.9513,3.9404,3.8937,3.8663,3.8663,3.8658,3.875,3.8926,3.9282,3.9596,3.9754,3.9794,3.9814,3.9814,3.9945,3.9814,3.9409,3.9347,0.0,0.0,0.0,0.0,0.0,0.0,0.0,0.0,0.0,0.0,0.0,0.0,0.0,0.0,0.0,0.0,0.0,0.0,0.0,0.0,0.0,0.0,0.0,0.0,0.0,0.0,0.0,0.0,0.0,0.0,0.0,0.0,0.0,0.0,0.0,0.0,0.0,0.0,0.0,0.0,0.0,0.0,0.0,0.0,0.0,0.0,0.0,0.0,0.0,0.0,0.0,0.0,0.0,0.0,0.0,0.0,0.0,0.0,0.0,0.0,0.0,0.0,0.0,4.7187,4.7187,4.7187,4.7187,4.7187,4.7187,4.7187,4.7051,4.6811,4.6811,0.0,0.0,0.0,0.0,0.0,0.0,0.0,0.0,0.0,0.0,0.0,0.0,0.0,0.0,0.0,0.0,0.0,0.0,0.0,0.0,0.0,3.994,4.0179,3.9606,4.0261,4.0428,3.9843,3.9742,3.9685,3.9685,3.9693,3.9715,3.9755,3.9299,3.9102,3.9102,3.9291,3.9377,3.9392,4.0071,4.0385,4.0309,3.9962,3.9834,3.9873,0.0,0.0,0.0,0.0,0.0,0.0,0.0,0.0,0.0,0.0,0.0,0.0,0.0,0.0,0.0,0.0,0.0,0.0,0.0,0.0,0.0,0.0,0.0,0.0,0.0,0.0,0.0,0.0,0.0,0.0,0.0,0.0,0.0,0.0,0.0,0.0,0.0,0.0,0.0,0.0,0.0,4.6673,4.6777,0.0,0.0,0.0,0.0,0.0,0.0,0.0,0.0,0.0,0.0,0.0,0.0,0.0,4.8704,4.8704,4.8704,4.8704,4.8704,4.8704,4.8704,4.8704,4.8704,4.8704,4.8704,4.8704,0.0,4.6811,4.6811,0.0,0.0,0.0,0.0,0.0,0.0,0.0,0.0,0.0,0.0,0.0,0.0,0.0,0.0,0.0,0.0,0.0,0.0,0.0,0.0,0.0,3.9494,3.9617,3.9743,4.0133,4.0217,3.9942,3.958,3.9377,3.9377,3.949,3.9563,3.9563,3.9757,3.9841,3.9841,3.9914,3.9955,3.999,4.0351,4.0489,4.0486,4.0311,4.0224,4.0224,4.0224,0.0,0.0,0.0,0.0,0.0,0.0,0.0,0.0,0.0,0.0,0.0,0.0,0.0,0.0,0.0,0.0,0.0,0.0,0.0,0.0,0.0,0.0,0.0,0.0,0.0,0.0,0.0,0.0,0.0,0.0,0.0,0.0,0.0,0.0,0.0,0.0,0.0,0.0,0.0,4.777,4.8048,4.8048,4.8306,4.8386,0.0,0.0,0.0,0.0,0.0,0.0,0.0,0.0,0.0,4.9107,4.9032,4.9001,4.9001,4.9001,4.9001,4.9001,4.9001,4.9001,4.9001,4.9001,4.9001,4.9001,4.9001,4.8625,4.8048,4.8048,4.8048,4.8048,0.0,0.0,0.0,0.0,4.8048,4.8048,0.0,0.0,0.0,0.0,0.0,0.0,0.0,0.0,0.0,0.0,0.0,0.0,3.9645,3.9662,3.9711,3.9969,4.0187,4.0244,4.0068,3.965,3.9385,3.9385,3.9516,3.9621,3.9621,4.0181,4.0539,4.0558,4.0558,4.0558,4.0558,4.0558,4.0558,4.0489,4.0489,4.0489,4.0489,4.0489,4.0489,4.0489,0.0,0.0,0.0,0.0,0.0,0.0,0.0,0.0,0.0,0.0,0.0,0.0,0.0,0.0,0.0,0.0,0.0,0.0,0.0,0.0,0.0,0.0,0.0,0.0,0.0,0.0,0.0,0.0,0.0,0.0,0.0,0.0,0.0,0.0,0.0,0.0,0.0,4.8671,4.9063,4.9063,4.9094,4.9124,0.0,0.0,0.0,0.0,0.0,0.0,4.9199,4.9124,4.9094,4.9199,4.9063,4.9001,4.9063,4.9001,4.9001,4.9001,4.9001,4.9001,4.9001,4.9001,4.9001,4.9001,4.9001,4.9001,4.9001,4.9001,4.9001,4.9001,4.9001,4.9001,4.9001,4.9001,4.9001,4.9001,0.0,0.0,0.0,0.0,0.0,0.0,0.0,0.0,0.0,0.0,0.0,4.1346,4.0022,4.1204,4.1614,4.0293,4.0997,4.1214,4.0523,4.0447,4.0431,4.0431,4.0436,4.0455,4.0455,4.0489,4.0593,4.0799,4.0799,4.0799,4.0799,4.0799,4.0696,4.0489,4.0489,4.0489,4.0489,4.0489,4.0489,4.0489,4.0489,0.0,0.0,0.0,0.0,0.0,0.0,0.0,0.0,0.0,0.0,0.0,0.0,0.0,0.0,0.0,0.0,0.0,0.0,0.0,0.0,0.0,0.0,0.0,0.0,0.0,0.0,0.0,0.0,0.0,0.0,0.0,0.0,0.0,0.0,0.0,0.0,0.0,0.0,4.9199,4.935,0.0,0.0,0.0,0.0,4.9488,4.9488,4.9381,4.9199,4.9199,4.9199,4.9199,4.9063,4.9063,4.9199,4.9063,4.9001,4.9001,4.9001,4.9001,4.9001,4.9001,4.9001,4.9001,4.9001,4.9001,4.9001,4.9001,4.9001,4.9001,4.9001,4.9001,4.9001,4.9001,4.9001,4.9001,0.0,0.0,0.0,0.0,0.0,0.0,0.0,0.0,4.0719,4.049,4.0201,4.0061,4.0079,4.0248,4.0386,4.0401,4.0808,4.0905,4.0539,4.0627,4.0627,4.0489,4.0489,4.0558,4.0696,4.0696,4.0799,4.1,4.1,4.1,4.1,4.1,4.0966,4.0898,4.0898,4.0898,4.0898,4.0746,4.0696,4.0696,4.0814,4.0814,0.0,0.0,0.0,0.0,0.0,0.0,0.0,0.0,0.0,0.0,0.0,0.0,0.0,0.0,0.0,0.0,0.0,0.0,0.0,0.0,0.0,0.0,0.0,0.0,0.0,0.0,0.0,0.0,0.0,0.0,0.0,0.0,0.0,0.0,0.0,0.0,0.0,4.9329,4.935,0.0,4.9488,4.956,4.959,4.9518,4.956,4.959,4.953,4.9441,4.9381,4.9381,4.9229,4.9107,4.9063,4.9032,4.9001,4.9001,4.9001,4.9001,4.9001,4.9001,4.9001,4.9001,4.9001,4.9001,4.9001,4.9001,4.9001,4.9001,4.9001,4.9001,4.9001,4.9001,4.9001,4.9001,0.0,0.0,0.0,0.0,0.0,0.0,0.0,0.0,4.0902,4.1002,4.0527,4.0263,4.0278,4.016,4.0178,4.0486,4.0627,4.0627,4.0489,4.0627,4.0662,4.0593,4.0677,4.078,4.0916,4.1107,4.1174,4.1169,4.1372,4.1505,4.1505,4.1288,4.1239,4.139,4.1203,4.1221,4.1423,4.1341,4.1258,4.1192,4.112,4.1138,4.1192,0.0,0.0,0.0,0.0,0.0,0.0,0.0,0.0,0.0,0.0,0.0,0.0,0.0,0.0,0.0,0.0,0.0,0.0,0.0,0.0,0.0,0.0,0.0,0.0,0.0,0.0,0.0,0.0,0.0,0.0,0.0,0.0,0.0,0.0,4.7868,4.8216,4.9068,4.9124,4.9227,4.9619,4.9755,4.9842,4.9924,5.0011,5.0022,4.9976,4.9849,4.972,4.956,4.929,4.9138,4.9155,4.9063,4.9001,4.9001,4.9001,4.9001,4.9001,4.9001,4.9001,4.9001,4.9001,4.9001,4.9001,4.9001,4.9001,4.9001,4.9001,4.9001,4.9001,4.9001,4.9001,4.9001,0.0,0.0,0.0,0.0,0.0,0.0,4.0475,4.0793,4.1007,4.1203,4.1997,4.2017,4.0643,4.1155,4.1294,4.0551,4.0489,4.0489,4.0489,4.0489,4.0593,4.0799,4.1018,4.1135,4.1151,4.1722,4.1804,4.1357,4.1997,4.2317,4.2285,4.1655,4.1607,4.2029,4.1423,4.1507,4.2062,4.2253,4.2221,4.2046,4.1423,4.1524,4.2029,0.0,0.0,0.0,0.0,0.0,0.0,0.0,0.0,0.0,0.0,0.0,0.0,0.0,0.0,0.0,0.0,0.0,0.0,0.0,0.0,0.0,0.0,0.0,0.0,0.0,0.0,0.0,0.0,0.0,0.0,0.0,0.0,0.0,4.7005,4.7347,4.7786,4.8524,4.8753,4.9148,4.9953,5.0022,5.0263,5.0776,5.0803,5.0731,5.0542,5.0404,5.0113,4.9737,4.929,4.9185,4.9488,4.9185,4.9032,4.9001,4.9001,4.9001,4.9001,4.9001,4.9001,4.9001,4.9001,4.9001,4.9001,4.9001,4.9001,4.9001,4.9001,4.9001,4.9001,4.9001,4.9001,4.9001,0.0,0.0,0.0,0.0,0.0,0.0,4.1436,4.1324,4.1375,4.2132,4.1566,4.092,4.0536,4.0674,4.0705,4.0505,4.0627,4.0662,4.0489,4.078,4.0966,4.1,4.1491,4.1819,4.1948,4.2615,4.2709,4.2238,4.2428,4.2522,4.2522,4.2333,4.2553,4.3075,4.2892,4.2923,4.3106,4.3152,4.3423,4.3764,4.3092,4.2878,4.2939,0.0,0.0,0.0,0.0,0.0,0.0,0.0,0.0,0.0,0.0,0.0,0.0,0.0,0.0,0.0,0.0,0.0,0.0,0.0,0.0,0.0,0.0,0.0,0.0,0.0,0.0,0.0,0.0,0.0,0.0,0.0,4.5555,4.6065,4.6491,4.7088,4.7797,4.8649,4.9507,5.0185,5.0557,5.0575,5.0803,5.1339,5.1017,5.0946,5.1278,5.0902,5.0567,5.0282,5.0108,4.9796,4.929,4.9526,4.9436,4.9001,4.9001,4.9001,4.9001,4.9001,4.9001,4.9001,4.9001,4.9001,4.9001,4.9001,4.9001,4.9001,4.9001,4.9001,4.9001,4.9001,4.9001,4.9001,0.0,0.0,0.0,0.0,0.0,0.0,4.1254,4.0979,4.0976,4.1901,4.1107,4.0489,4.0489,4.0489,4.0489,4.0489,4.0593,4.0627,4.0489,4.1107,4.1489,4.1521,4.2237,4.2645,4.2709,4.3426,4.3545,4.2986,4.3276,4.3396,4.3396,4.3108,4.332,4.391,4.363,4.3676,4.391,4.391,4.4299,4.4852,4.444,4.41,4.3798,4.3739,4.3469,4.3196,4.3731,4.3963,4.4037,4.4395,0.0,0.0,0.0,0.0,0.0,0.0,0.0,0.0,0.0,0.0,0.0,0.0,0.0,0.0,0.0,0.0,0.0,0.0,0.0,0.0,0.0,0.0,0.0,0.0,4.5895,4.64,4.6966,4.7247,4.7811,4.8846,4.9669,5.0399,5.107,5.1131,5.1365,5.1891,5.1644,5.1619,5.1915,5.1355,5.0964,5.0867,5.0484,5.0051,4.9585,4.9774,4.9585,4.9001,4.9001,4.9001,4.9001,4.9001,4.9001,4.9001,4.9001,4.9001,4.9001,4.9001,4.9001,4.9001,0.0,0.0,0.0,0.0,4.9001,4.9001,0.0,0.0,0.0,0.0,0.0,0.0,4.0389,4.0087,4.007,4.0961,4.0667,4.037,4.037,4.0455,4.0489,4.0489,4.0489,4.0489,4.0524,4.1393,4.1917,4.198,4.2956,4.3439,4.3306,4.4145,4.4288,4.3601,4.4202,4.4502,4.4474,4.3881,4.3968,4.4586,4.3968,4.4026,4.4586,4.4586,4.4906,4.5397,4.5397,4.5086,4.4586,4.4463,4.403,4.3693,4.4835,4.4763,4.4254,4.4971,0.0,0.0,0.0,0.0,0.0,0.0,0.0,0.0,0.0,0.0,0.0,0.0,0.0,0.0,0.0,0.0,0.0,0.0,0.0,0.0,0.0,0.0,0.0,0.0,4.6277,4.6902,4.8031,4.7943,4.8127,4.9216,4.9677,5.0388,5.1555,5.1694,5.1915,5.2454,5.2431,5.2431,5.2495,5.1764,0.0,0.0,0.0,5.0187,5.0102,5.0017,4.9656,4.9001,4.9001,4.9001,4.9001,4.9001,4.9001,4.9001,4.9001,4.9001,4.9001,4.9001,4.9001,4.9001,4.9001,4.9001,4.9001,4.9001,4.9001,4.9001,0.0,0.0,0.0,0.0,0.0,0.0,4.0158,3.9424,3.9062,4.011,3.9832,3.9535,3.9535,4.0111,4.0489,4.0489,4.0489,4.0558,4.073,4.107,4.1288,4.1303,4.2709,4.3439,4.3306,4.4586,4.4934,4.4316,4.4446,4.4502,4.4502,4.4373,4.4642,4.522,4.5096,4.5096,4.522,4.522,4.5274,4.5397,4.5397,4.5344,4.522,4.5211,4.5113,4.5042,4.5274,4.5247,4.515,4.53,4.5344,4.5318,4.5318,4.5318,0.0,0.0,0.0,0.0,0.0,0.0,0.0,0.0,0.0,0.0,0.0,0.0,0.0,0.0,0.0,0.0,0.0,0.0,0.0,4.6683,4.7608,4.8388,4.8638,4.9686,5.0389,5.0186,5.1179,5.1951,5.2226,5.2244,5.2472,5.2999,5.2631,5.2586,5.3017,5.209,5.1701,5.2042,5.1373,5.0686,5.0119,5.0404,5.0039,4.9001,4.9001,0.0,4.9001,4.9001,4.9001,4.9001,4.9001,4.9001,4.9001,4.9001,4.9001,4.9001,4.9001,4.9001,4.9001,4.9001,4.9001,4.9001,0.0,0.0,0.0,0.0,0.0,0.0,3.9322,3.9109,3.8935,3.9185,3.9165,3.9203,3.9277,3.9657,4.0076,4.0455,4.0489,4.0593,4.0799,4.1223,4.1456,4.1456,4.2709,4.3469,4.3647,4.4513,4.4934,4.4934,4.4934,4.4934,4.4934,4.4934,4.5113,4.5397,4.5397,4.5397,4.5397,4.5397,4.5397,4.5397,4.5397,4.5397,4.5397,4.5397,4.5397,4.5397,4.5397,4.5397,4.5397,4.5397,4.5397,4.5397,4.5397,4.5397,4.5397,0.0,0.0,0.0,0.0,0.0,0.0,0.0,0.0,0.0,0.0,0.0,0.0,0.0,0.0,4.695,4.6822,0.0,4.7307,4.7769,4.8381,4.9161,5.025,5.1092,5.1475,5.1149,5.1873,5.2477,5.2676,5.2698,5.2806,5.3082,5.285,5.2828,5.3082,5.2048,5.1764,5.2477,5.1601,5.0858,5.0387,5.0589,5.0135,4.9001,4.9001,4.9001,4.9001,4.9001,4.9001,4.9001,4.9001,4.9001,4.9001,4.9001,4.9001,4.9001,4.9001,4.9001,4.9001,4.9001,4.9001,4.9001,0.0,0.0,0.0,0.0,0.0,0.0,0.0,3.8719,3.8708,3.8144,3.839,3.8673,3.8745,3.9052,3.957,4.042,4.0489,4.0558,4.073,4.1292,4.1607,4.1541,4.2505,4.3213,4.3555,4.3997,4.4457,4.4944,4.4944,4.4944,4.4988,4.4988,4.5086,4.522,4.522,4.5274,4.5397,4.5397,4.5397,4.5397,4.5397,4.5397,4.5397,4.5397,4.5397,4.5397,4.5397,4.5397,4.5397,4.5397,4.5397,4.5397,4.5397,4.5397,4.5397,4.5397,4.5397,0.0,0.0,0.0,0.0,0.0,0.0,0.0,0.0,4.6465,4.6607,4.7089,4.7464,4.7611,4.7226,4.7611,4.819,4.8823,4.9225,5.0025,5.1752,5.2103,5.2153,5.2047,5.2338,5.2676,5.2999,5.302,5.2999,5.2999,5.2999,5.2999,5.2959,5.203,5.1868,5.2721,5.1725,5.107,5.0885,5.0858,5.0304,4.9168,4.9168,4.9107,4.9001,4.9107,4.9107,4.9001,4.9001,4.9001,4.9001,4.9001,4.9001,4.9001,4.9001,4.9001,4.9001,4.9001,4.9001,4.9001,0.0,0.0,0.0,0.0,0.0,0.0,0.0,0.0,3.7395,3.7026,3.7153,3.7211,3.694,3.8175,3.9412,4.0405,4.0489,4.0489,4.0524,4.0765,4.0817,4.0646,4.1608,4.2109,4.2045,4.2784,4.321,4.327,4.327,4.3376,4.3545,4.3545,4.3914,4.4586,4.4586,4.4906,4.5397,4.5397,4.5397,4.5397,4.5397,4.5397,4.5397,4.5397,4.5397,4.5397,4.5397,4.5397,4.5397,4.5397,4.5397,4.5397,4.5397,4.5397,4.5397,4.5397,4.5397,4.5397,4.5397,4.5752,4.6112,4.6112,4.6418,4.6863,0.0,4.7424,4.7569,4.8053,4.819,4.8209,4.8152,4.8777,4.933,4.9421,5.0668,5.1734,5.1977,5.2498,5.2874,5.2871,5.3005,5.3143,5.3185,5.3082,5.2999,5.2999,5.2999,5.2955,5.2828,5.2366,5.2255,5.2613,5.2018,5.1633,5.15,5.15,5.0938,4.9803,4.9803,4.9526,4.9032,4.9555,4.9496,4.9001,4.9001,4.9001,4.9001,4.9001,4.9001,4.9001,4.9001,4.9001,4.9001,4.9001,4.9001,4.9001,0.0,0.0,0.0,0.0,0.0,0.0,0.0,0.0,0.0,3.7153,3.6992,3.6919,3.6901,3.8153,3.9182,3.9606,4.0146,4.0489,4.0489,4.0558,4.0593,4.0489,4.1024,4.1475,4.1787,4.2205,4.2613,4.2982,4.2982,4.3029,4.3136,4.3136,4.3287,4.3614,4.3614,4.376,4.3992,4.4112,4.4186,4.4214,4.4697,4.4879,4.4906,4.5264,4.5397,4.5397,4.5397,4.5397,0.0,4.5397,4.5397,4.5397,4.5397,4.5397,4.5397,4.5397,4.5397,4.5476,4.5778,4.6013,4.6259,4.6554,4.6747,4.7004,4.7485,4.7611,4.7715,4.8191,4.8306,4.8306,4.8306,4.8985,4.9721,5.0178,5.1163,5.2038,5.2535,5.2822,5.2977,5.2893,5.2999,5.306,5.2977,5.285,5.2765,5.2765,5.2765,5.2743,5.2676,5.2226,5.2161,5.259,5.1994,5.1651,5.1601,5.1676,5.126,5.0359,5.0507,5.0442,5.0124,5.0452,5.0442,5.0096,4.9855,4.9686,4.9496,4.9229,4.9063,4.9001,4.9001,4.9001,4.9001,4.9001,4.9001,4.9001,0.0,0.0,0.0,0.0,0.0,0.0,0.0,0.0,0.0,0.0,3.703,3.6922,3.7003,3.7776,3.8361,3.8546,3.9499,4.0076,4.0076,4.0335,4.0489,4.0489,4.0627,4.0938,4.1442,4.1542,4.182,4.2316,4.2316,4.2347,4.2379,4.2379,4.2504,4.2706,4.2706,4.2829,4.3029,4.3152,4.3229,4.3259,4.3852,4.4214,4.4468,4.4899,4.5083,4.5113,4.5113,4.5225,4.5363,4.5156,4.5225,4.5397,4.5397,4.5397,4.5363,4.5165,4.4958,4.4941,4.5677,4.5974,4.6224,4.6905,4.7182,4.7396,4.7713,4.7795,4.7877,4.823,4.8306,4.8306,4.8306,4.9187,5.0105,5.0652,5.1522,5.2319,5.2864,5.2915,5.2872,5.2806,5.2846,5.2824,5.2761,5.2654,5.2631,5.2654,5.2613,5.259,5.259,5.2232,5.2203,5.2563,5.2102,5.186,5.186,5.1939,5.1633,5.0938,5.1199,5.1173,5.0911,5.0894,5.0911,5.0955,5.0349,4.9959,4.9762,4.9424,4.9199,4.9063,4.9063,4.9032,4.9001,4.9001,4.9001,4.9001,0.0,0.0,0.0,0.0,0.0,0.0,0.0,0.0,0.0,0.0,0.0,0.0,0.0,3.656,3.6674,3.7472,3.8487,3.9037,3.9037,3.9955,4.0489,4.0489,4.0489,4.0524,4.0524,4.0558,4.0558,4.0593,4.0593,4.0696,4.0867,4.0867,4.1276,4.2029,4.2029,4.2394,4.2982,4.3029,4.3029,4.3029,4.3059,4.3492,4.422,4.422,4.4286,4.4328,4.4328,4.4785,4.5276,4.4561,4.4803,4.5397,4.5397,4.5397,4.5259,4.4552,4.3828,4.3539,4.4714,4.5368,4.602,4.7265,4.7917,4.8267,4.8287,4.8287,4.8287,4.8287,4.8306,4.8306,4.8306,4.9646,5.0725,5.0604,5.1919,5.2919,5.2828,5.2698,5.2654,5.2783,5.264,5.2549,5.2608,5.259,5.2635,5.2783,5.2676,5.259,5.259,5.259,5.254,5.2498,5.2498,5.2457,5.2457,5.2475,5.2162,5.1576,5.1708,5.1465,5.0885,5.0497,5.0624,5.1131,4.9994,4.9518,4.95,4.9518,4.9381,4.9199,4.9199,4.9107,4.9001,4.9001,4.9001,4.9001,0.0,0.0,0.0,0.0,0.0,0.0,0.0,0.0,0.0,0.0,0.0,0.0,0.0,0.0,0.0,0.0,3.742,3.7988,3.7988,3.8928,3.9484,3.9484,4.0146,4.0489,4.0489,4.0489,4.0489,4.0489,4.0489,4.0524,4.0593,4.0593,4.0749,4.1024,4.1024,4.1142,4.136,4.1492,4.1525,4.1591,4.2125,4.2488,4.2782,4.3224,4.3681,4.4012,0.0,4.39,4.4699,4.4958,4.5173,4.5397,4.5397,4.5079,4.4527,4.3793,4.3741,4.415,4.517,4.5975,4.6753,4.7802,4.7955,4.7935,4.823,4.8055,4.7917,4.8248,4.8306,4.8452,4.8942,4.9931,5.0806,5.1213,5.2094,5.2721,5.2676,5.2613,5.2608,5.2618,5.2577,5.2559,5.2531,5.2531,5.2554,5.2595,5.2572,5.2531,5.2531,5.2531,5.2526,5.2498,5.2498,5.2498,5.2498,5.2554,5.2444,5.2186,5.2291,5.2302,5.2284,5.1788,5.1665,5.1799,5.0795,5.0268,5.0057,4.9767,4.953,4.9398,4.9398,4.929,4.9138,4.9138,4.9094,4.9001,0.0,0.0,0.0,0.0,0.0,0.0,0.0,0.0,0.0,0.0,0.0,0.0,0.0,0.0,0.0,0.0,0.0,3.6972,3.6972,3.7913,3.8473,3.8473,3.9356,3.9849,3.9849,4.0176,4.0366,4.0436,4.0436,4.0455,4.0489,4.0489,4.0489,4.0489,4.0489,4.0489,4.0489,4.0627,4.0696,4.073,4.1276,4.1641,4.1981,4.2426,4.2834,0.0,4.3242,4.3455,4.3868,4.468,4.5147,4.5345,4.5096,4.4302,4.3396,4.2913,4.293,4.3343,4.4565,4.5334,4.6123,4.7325,4.7474,4.7464,4.7937,4.7816,4.7715,4.8191,4.8267,4.8504,4.9248,5.0012,5.0754,5.1431,5.2126,5.259,5.2581,5.2559,5.2554,5.2521,5.2531,5.2554,5.2498,5.2498,5.2503,5.2531,5.2503,5.2503,5.2531,5.2503,5.241,5.2186,5.2186,5.2186,5.2186,5.2221,5.2244,5.2257,5.2495,5.2504,5.2307,5.1994,5.1732,5.1472,5.0741,5.0296,5.0143,4.9901,4.9725,4.956,4.956,4.9471,4.932,4.932,4.9216,4.9063,0.0,0.0,0.0,0.0,0.0,0.0,0.0,0.0,0.0,0.0,0.0,0.0,0.0,0.0,0.0,0.0,0.0,0.0,3.591,3.6869,3.7434,3.7434,3.8204,3.8649,3.8649,3.9451,3.996,4.0156,4.0191,4.0296,4.042,4.0455,4.0489,4.0489,4.0489,4.0489,4.0489,4.0489,4.0489,4.0489,4.0489,4.1005,4.1722,4.1722,4.174,4.1956,4.3377,4.3425,4.2993,4.3858,4.4715,4.5259,4.4501,4.3241,4.205,4.1981,4.1481,4.1296,4.2928,4.362,4.4304,4.5948,4.6593,4.6945,4.7446,4.7569,4.7674,4.8132,4.8189,4.8385,4.9208,4.9872,5.0532,5.126,5.2045,5.2527,5.2503,5.2498,5.2498,5.2498,5.2498,5.2498,5.2498,5.2498,5.2526,5.2586,5.2531,5.2526,5.259,5.2531,5.2209,5.1619,5.1601,5.1601,5.1601,5.1601,5.1651,5.1757,5.2255,5.2006,5.1086,5.1122,5.0831,5.0293,4.9878,4.9679,4.9708,4.9889,4.986,4.9708,4.9708,4.9619,4.9518,4.9518,4.9381,4.9199,0.0,0.0,0.0,0.0,0.0,0.0,0.0,0.0,0.0,0.0,0.0,0.0,0.0,0.0,0.0,0.0,0.0,0.0,3.4799,3.5776,3.636,3.636,3.7281,3.7829,3.7829,3.8017,3.8167,3.8204,3.8811,3.9118,3.9175,3.9985,4.0331,4.0381,4.047,4.0489,4.0489,4.0489,4.0489,4.0489,4.0489,4.0627,4.0851,4.0851,4.1133,4.1645,4.2013,4.2731,4.3683,4.4599,4.5146,4.5173,4.3897,4.3207,4.2672,4.1533,4.1447,4.1901,4.2673,4.3374,4.4212,4.5543,4.5676,4.5747,4.6816,4.7071,4.7115,4.7226,4.7442,4.7823,4.8605,4.8784,4.9383,5.1054,5.1493,5.1837,5.2408,5.2498,5.2498,5.2498,5.2498,5.2498,5.2498,5.2498,5.2521,5.2526,5.2503,5.2521,5.2526,5.2503,5.2209,5.1619,5.1601,5.1601,5.1601,5.1601,5.1406,5.0991,5.1121,5.1104,5.092,5.0542,5.0338,5.0265,4.9762,4.9547,4.956,4.9725,4.9755,4.9708,4.9708,4.9619,4.9518,4.9518,4.9381,4.9229,0.0,0.0,0.0,0.0,0.0,0.0,0.0,0.0,0.0,0.0,0.0,0.0,0.0,0.0,0.0,0.0,0.0,0.0,0.0,3.495,3.5305,3.5305,3.6201,3.6699,3.6699,3.7049,3.7281,3.7357,3.7814,3.8078,3.8204,3.8774,3.9277,3.9615,3.9672,3.997,4.0401,4.0401,4.047,0.0,0.0,4.0489,4.0489,4.0489,4.0749,4.1091,4.1393,4.23,4.3499,4.4299,4.4517,4.4285,4.3465,4.2741,4.2016,4.1153,4.1205,4.1611,4.2053,4.2608,4.3348,4.4574,4.4776,4.5026,4.6289,4.6584,4.6631,4.6794,4.7093,4.7565,4.8282,4.8488,4.9163,5.1009,5.1285,5.1574,5.2389,5.2498,5.2498,5.2498,5.2498,5.2498,5.2498,5.2498,5.2498,5.2498,5.2498,5.2498,5.2498,5.2498,5.2096,5.1235,5.1209,5.1078,5.0858,5.1078,5.0902,5.0359,5.0589,5.048,5.0067,5.0045,4.9902,4.9727,4.9483,4.935,4.9398,4.9619,4.9708,4.9708,4.9708,4.9649,4.956,4.9518,4.9381,4.9229,0.0,0.0,0.0,0.0,0.0,0.0,0.0,0.0,0.0,0.0,0.0,0.0,0.0,0.0,0.0,0.0,0.0,0.0,0.0,0.0,3.4397,3.4397,3.5114,3.5548,3.5548,3.6188,3.6646,3.6841,3.6933,3.7088,3.7242,3.7396,3.7814,3.8502,3.8539,3.9081,3.993,4.0036,4.0141,4.0266,4.042,4.0455,4.047,0.0,4.0489,4.0593,4.1276,4.1997,4.2754,4.3439,4.3445,4.3159,4.3156,4.2181,4.1009,4.0905,4.0912,4.0989,4.1328,4.1632,4.2147,4.3423,4.3937,4.449,4.5795,4.6137,4.6217,4.6448,4.6817,4.7259,4.7898,4.8304,4.9067,5.0701,5.1067,5.1411,5.2226,5.2426,5.2498,5.2498,5.2498,5.2498,5.2498,5.2498,5.2498,5.2498,5.2498,5.2498,5.2498,5.2498,5.1957,5.0751,5.0643,5.0331,4.9774,5.0304,5.0304,4.9774,5.0248,4.9953,4.9032,4.9555,4.9526,4.9032,4.9168,4.9229,4.926,4.959,4.9708,4.9708,4.9679,4.9679,4.9649,4.95,4.935,4.9199,0.0,0.0,0.0,0.0,0.0,0.0,0.0,0.0,0.0,0.0,3.4715,3.6188,0.0,0.0,0.0,0.0,0.0,0.0,0.0,0.0,0.0,3.4397,3.4551,3.4634,3.4634,3.4744,3.4868,3.4909,3.5629,3.5976,3.6016,3.6855,3.7319,3.7472,3.7625,3.7814,3.8055,3.8701,3.8994,3.9103,4.0001,4.0331,4.0347,4.047,0.0,0.0,4.1276,4.1689,4.2078,4.2754,4.2949,4.2955,4.2946,4.2335,4.1535,4.1037,4.0912,4.0935,4.0989,4.1045,4.1453,4.2926,4.3368,4.3767,4.52,4.5743,4.586,4.5537,4.5631,4.5985,4.6559,4.6601,4.7181,4.9017,4.9872,5.0601,5.1375,5.2082,5.2498,5.2498,5.2498,5.2498,5.2498,5.2498,5.2498,5.2498,5.2498,5.2498,5.2498,5.2498,5.1957,5.0751,5.0265,4.9744,4.9168,4.9744,4.9744,4.9168,4.9243,4.9182,4.9001,4.9229,4.9243,4.9168,4.9367,4.9458,4.9441,4.9619,4.9708,4.9679,4.956,4.953,4.95,4.932,4.9229,4.9229,0.0,0.0,0.0,0.0,0.0,0.0,0.0,3.0443,3.0785,3.0929,3.2655,3.4412,3.5724,3.6231,3.659,0.0,0.0,0.0,0.0,0.0,0.0,0.0,3.4397,3.4397,3.4397,3.4397,3.4397,3.4397,0.0,3.5032,3.5032,3.5534,3.6002,3.6439,3.6517,3.6855,3.7396,3.819,3.8613,3.876,3.9737,4.0137,4.0172,0.0,0.0,0.0,4.087,4.1024,4.1225,4.1901,4.1654,4.1239,4.2088,4.1835,4.1184,4.0968,4.0912,4.0912,4.0912,4.0912,4.117,4.2292,4.2896,4.3483,4.4578,4.52,4.5459,4.515,4.5345,4.5597,4.5767,4.5968,4.6533,4.7867,4.8975,4.9968,5.0777,5.1816,5.2498,5.2498,5.2498,5.2387,5.2048,5.234,5.2364,5.2066,5.2322,5.2498,5.2498,5.1891,5.1157,5.0321,4.9744,4.9273,4.9001,4.929,4.929,4.9001,4.9001,4.9001,4.9001,4.9063,4.9138,4.9199,4.929,4.9381,4.9518,4.9649,4.9708,4.9708,4.9619,4.956,4.9488,4.9381,4.9246,4.9124,0.0,0.0,0.0,0.0,0.0,0.0,0.0,2.9994,2.9994,2.9994,3.094,3.2454,3.48,3.5342,3.5859,0.0,0.0,0.0,0.0,0.0,0.0,0.0,0.0,0.0,3.4397,0.0,0.0,3.4397,3.4397,0.0,0.0,0.0,0.0,0.0,3.5426,3.5843,3.6646,3.7458,3.7913,0.0,0.0,3.9646,3.9681,0.0,0.0,0.0,0.0,4.047,4.0593,4.1125,4.0463,3.9642,4.0992,4.0978,4.0493,4.0638,4.0776,4.0912,4.0912,4.0912,4.1084,4.1826,4.2482,4.3138,4.3871,4.45,4.4873,4.4756,4.5074,4.5372,4.532,4.5648,4.6185,4.6923,4.8201,4.9321,4.9944,5.1347,5.2275,5.212,5.2345,5.2209,5.1482,5.1933,5.2114,5.1644,5.2162,5.2434,5.2298,5.1286,5.0452,4.9919,4.9303,4.9001,4.9001,4.9001,4.9001,4.9001,4.9001,4.9001,4.9001,4.9063,4.9168,4.926,4.932,4.9458,4.9607,4.9725,4.9767,4.9755,4.9708,4.9619,4.9547,4.9518,4.9307,4.9063,0.0,0.0,0.0,0.0,0.0,0.0,0.0,2.9994,2.9994,2.9994,3.0099,3.0733,3.2213,3.3601,3.486,0.0,0.0,0.0,0.0,0.0,0.0,0.0,0.0,0.0,0.0,0.0,0.0,3.4397,3.4397,0.0,0.0,0.0,0.0,0.0,0.0,3.4551,3.4716,3.5575,0.0,0.0,0.0,0.0,0.0,0.0,0.0,0.0,0.0,4.0401,4.0489,4.0558,4.0068,3.944,3.9734,3.9768,3.974,3.9859,4.0385,4.0912,4.0912,4.0912,4.1084,4.1826,4.2068,4.2278,4.2987,4.3588,4.3987,4.3844,4.4289,4.4814,4.5214,4.5329,4.5554,4.613,4.75,4.851,4.858,5.0388,5.1482,5.0911,5.1842,5.2048,5.0885,5.1329,5.1669,5.1601,5.2162,5.2275,5.1719,5.1061,5.0452,4.9919,4.9303,4.9001,4.9001,4.9001,4.9001,4.9001,4.9001,4.9001,4.9001,4.9307,4.9458,4.9488,4.9772,4.9935,4.9935,4.9982,4.9964,4.9964,4.9784,4.9679,4.9679,4.953,4.935,4.9199,0.0,0.0,0.0,0.0,0.0,0.0,2.9994,2.9994,2.9994,2.9994,2.9994,3.0193,3.0744,3.1483,3.2767,3.4764,0.0,0.0,0.0,0.0,0.0,0.0,0.0,0.0,0.0,0.0,3.4397,3.4397,3.4397,0.0,0.0,0.0,0.0,0.0,0.0,3.4397,3.4481,3.5345,0.0,0.0,0.0,0.0,0.0,0.0,0.0,0.0,0.0,0.0,4.0489,4.0489,3.9751,3.8867,3.8916,3.8688,3.8569,3.942,3.9893,4.0187,4.0566,4.0704,4.0838,4.113,4.1543,4.2076,4.2782,4.339,4.3888,4.4276,4.4478,4.4654,4.4852,4.4879,4.4944,4.5159,4.635,4.7404,4.7873,4.9346,5.047,5.0672,5.1113,5.1105,5.0293,5.0715,5.1061,5.1061,5.1286,5.1157,5.0614,5.0661,5.0276,4.9394,4.9124,4.9001,4.9001,4.9001,4.9001,4.9001,4.9094,4.9107,4.9138,4.9381,4.953,4.9619,4.9755,4.9889,5.0011,5.0011,5.0011,5.0011,4.9906,4.9813,4.9708,4.9772,4.9607,4.9381,0.0,0.0,0.0,0.0,0.0,2.9994,2.9994,2.9994,2.9994,2.9994,2.9994,2.9994,2.9994,3.0193,3.1032,3.2967,3.3177,0.0,0.0,0.0,0.0,0.0,0.0,0.0,0.0,0.0,3.4397,3.4397,3.4397,3.4397,0.0,0.0,3.4397,3.4397,0.0,0.0,0.0,0.0,0.0,0.0,0.0,0.0,0.0,0.0,0.0,0.0,0.0,0.0,0.0,0.0,0.0,3.8508,3.8508,3.795,3.7546,3.8887,3.9437,3.974,4.0345,4.0558,4.0648,4.0697,4.1221,4.1875,4.2389,4.3098,4.3824,4.4279,4.4501,4.4615,4.4615,4.4615,4.4615,4.4615,4.5538,4.6447,4.6962,4.8372,4.949,4.982,5.0367,5.0442,4.9686,5.0124,5.0452,5.0452,5.0616,5.047,4.9948,5.0265,5.0011,4.9032,4.9001,4.9001,4.9001,4.9001,4.9001,4.9001,4.9138,4.9199,4.9199,4.9441,4.9619,4.9708,4.9755,4.986,5.0011,5.0011,5.0011,5.0011,5.0011,4.9906,4.9813,4.9935,4.9801,4.9543,0.0,0.0,0.0,0.0,0.0,0.0,2.9994,2.9994,2.9994,2.9994,2.9994,2.9994,2.9994,2.9994,3.0141,3.0391,3.1677,0.0,0.0,0.0,0.0,0.0,0.0,0.0,0.0,0.0,3.4397,3.4397,3.4397,3.4397,3.4397,3.4397,3.4397,3.4397,0.0,0.0,0.0,0.0,0.0,0.0,0.0,0.0,0.0,0.0,0.0,0.0,0.0,0.0,0.0,0.0,0.0,0.0,0.0,3.7584,3.6769,3.8124,3.9022,3.974,4.0345,4.051,4.0534,4.0673,4.1165,4.1587,4.1605,4.2627,4.3566,4.342,4.4045,4.4615,4.4615,4.4615,4.4615,4.4615,4.5213,4.5703,4.572,4.7489,4.8604,4.8009,4.9561,5.023,4.9107,4.9555,4.9919,4.9919,5.0387,5.047,4.9948,4.9919,4.9644,4.9032,4.9001,4.9001,4.9001,4.9001,4.9001,4.9001,4.9138,4.9199,4.9199,4.956,4.9708,4.9708,4.9906,5.0011,5.0011,5.0011,5.0011,5.0011,5.0011,5.0011,5.0011,5.0011,4.986,4.9576,0.0,0.0,0.0,0.0,0.0,0.0,0.0,2.9994,2.9994,2.9994,2.9994,2.9994,2.9994,2.9994,3.0047,3.0141,3.0692,0.0,0.0,0.0,0.0,0.0,0.0,0.0,0.0,0.0,3.4397,3.4397,3.4397,3.4397,3.4397,3.4397,3.4397,3.4397,3.4397,3.4397,0.0,0.0,0.0,0.0,0.0,0.0,3.8277,0.0,0.0,0.0,0.0,0.0,0.0,0.0,0.0,0.0,0.0,0.0,0.0,3.7632,3.821,3.8941,3.9952,4.0288,4.0481,4.1042,4.1324,4.1716,4.2737,4.3226,4.3627,4.4141,4.4429,4.4615,4.4615,4.4615,4.4615,4.4615,4.4801,4.5111,4.5635,4.6265,4.6986,4.78,4.8873,4.9406,4.9032,4.9168,4.9273,4.9273,4.9436,4.9449,4.9273,4.9273,4.9199,4.9001,4.9001,4.9001,4.9001,4.9001,4.9001,4.9001,4.9277,4.9428,4.9428,4.9742,4.9906,4.9906,4.9964,5.0011,5.0011,5.0011,5.0011,5.0011,5.0011,5.0011,5.0011,5.0011,4.962,4.9034,0.0,0.0,0.0,0.0,0.0,0.0,0.0,2.9994,2.9994,2.9994,2.9994,2.9994,2.9994,2.9994,2.9994,2.9994,3.0141,0.0,0.0,0.0,0.0,0.0,0.0,0.0,3.2993,3.356,3.405,3.4397,3.4397,3.4397,3.4397,3.4397,3.4397,3.4397,3.4397,3.4397,0.0,0.0,0.0,0.0,0.0,0.0,3.7782,0.0,0.0,0.0,0.0,0.0,0.0,0.0,0.0,0.0,0.0,0.0,0.0,0.0,3.7666,3.8238,3.9444,3.9825,4.0138,4.1155,4.1571,4.2072,4.3321,4.3749,4.3995,4.4513,4.4615,4.4615,4.4615,4.4615,4.4615,4.4615,4.4615,4.4767,4.5213,4.5517,4.6261,4.7703,4.8325,4.8697,4.8984,4.9001,4.9001,4.9001,4.9001,4.9001,4.9001,4.9001,4.9001,4.9001,4.9001,4.9001,4.9001,4.9001,4.9001,4.9001,4.9277,4.9428,4.9518,4.9772,4.9935,5.0011,5.0011,5.0011,0.0,5.0011,5.0011,5.0011,5.0011,5.0011,4.9959,4.9666,4.9223,4.8678,0.0,0.0,0.0,0.0,0.0,0.0,0.0,2.9994,2.9994,2.9994,2.9994,2.9994,2.9994,2.9994,2.9994,2.9994,0.0,0.0,0.0,0.0,0.0,0.0,0.0,0.0,3.2766,3.2852,3.3335,3.4176,3.4259,3.4314,3.4314,3.4356,3.4397,3.4397,3.4397,3.4397,3.4397,3.4397,3.4397,3.4481,3.5345,3.6162,0.0,0.0,0.0,0.0,0.0,0.0,0.0,0.0,0.0,0.0,0.0,0.0,0.0,0.0,0.0,0.0,0.0,3.9109,3.9548,4.1026,4.1858,4.2533,4.3464,4.4156,0.0,4.4615,4.4615,4.4615,4.4615,4.4615,4.4615,4.4615,4.4615,4.4615,4.4615,4.5229,4.621,4.7567,4.777,4.8075,4.8781,4.8849,4.8849,4.8849,4.8849,4.8849,4.8849,4.8849,4.8849,4.8849,4.8849,4.89,4.9001,4.9001,4.9001,4.9001,4.9138,4.929,4.9488,4.9619,4.9784,4.9982,4.9982,4.9982,5.0011,5.0011,5.0011,5.0011,5.0011,4.9976,4.9821,4.9068,4.8723,4.8385,0.0,0.0,0.0,0.0,0.0,0.0,0.0,0.0,0.0,0.0,2.9994,2.9994,2.9994,2.9994,2.9994,0.0,0.0,0.0,0.0,0.0,0.0,0.0,0.0,0.0,3.0564,3.1444,3.2016,3.2277,3.2993,3.3335,3.3335,3.4037,3.4397,3.4397,3.4397,3.4397,3.4397,3.4397,3.4397,3.4481,3.5345,3.5816,0.0,0.0,0.0,0.0,3.9228,3.9589,0.0,0.0,0.0,0.0,0.0,0.0,0.0,0.0,3.6723,3.6861,3.7637,0.0,3.9557,4.1044,4.1839,4.2668,0.0,4.4479,4.4615,4.4615,4.4615,4.4615,4.4615,4.4615,4.4615,4.4615,4.4615,4.4615,4.4615,4.5229,4.5838,4.6194,4.6718,4.7124,4.7293,4.731,4.731,4.731,4.731,4.731,4.731,4.731,4.731,4.731,4.731,4.7851,4.8984,4.9001,4.9001,4.9001,4.9138,4.9229,4.929,4.9471,4.9637,4.9784,4.9784,4.986,5.0011,5.0011,5.0011,5.0011,5.0011,4.9631,4.9051,4.8861,4.7978,4.6801,0.0,0.0,0.0,0.0,0.0,0.0,0.0,0.0,0.0,0.0,0.0,0.0,0.0,0.0,0.0,0.0,0.0,0.0,0.0,0.0,0.0,0.0,0.0,2.9769,3.0,3.0609,3.14,3.2234,3.2766,3.3207,3.3645,3.4176,3.4397,3.4397,3.4397,3.4397,3.4397,3.4397,3.4397,3.4439,3.4909,0.0,0.0,0.0,0.0,0.0,3.8538,3.8965,0.0,3.9456,3.9664,3.9577,0.0,0.0,0.0,0.0,3.6492,3.6585,3.6892,3.7883,3.921,4.0966,4.1848,4.2692,4.4259,4.4615,4.4615,4.4615,4.4615,4.4615,4.4615,4.4615,4.4615,4.4615,4.4615,4.4615,4.4615,4.4925,4.5314,4.5669,4.6058,4.643,4.6752,4.6786,4.6786,4.6786,4.6786,4.6786,4.6786,4.6786,4.6786,4.6786,4.6786,4.7175,4.7986,4.7986,4.7986,4.7986,4.8416,4.8646,4.8719,4.9167,4.9441,4.9619,4.9619,4.9666,4.9789,4.983,4.983,4.9737,4.9469,4.9085,4.8638,4.7859,4.7041,4.6213,0.0,0.0,0.0,0.0,0.0,0.0,0.0,0.0,0.0,0.0,0.0,0.0,0.0,0.0,0.0,0.0,0.0,0.0,0.0,0.0,0.0,0.0,2.9062,2.9193,3.0034,2.9988,3.0833,3.2593,3.2722,3.325,3.4176,3.4356,3.4397,3.4397,3.4397,3.4397,3.4397,3.4397,3.4397,3.4397,3.4397,0.0,0.0,0.0,0.0,0.0,0.0,0.0,0.0,3.8537,3.8812,3.8821,3.778,0.0,0.0,0.0,0.0,0.0,3.6492,3.7296,3.863,4.0593,4.1627,4.2551,4.4079,4.4513,4.4615,4.4615,4.4615,4.4615,4.4615,4.4615,4.4615,4.4615,4.4615,4.4615,4.4615,4.4615,4.4852,4.5466,4.5534,4.5788,4.6397,4.6447,4.6447,4.6447,4.6447,4.6447,4.6447,4.6447,4.6447,4.6447,4.6447,4.6447,4.6447,4.6684,4.6786,4.6802,4.7445,4.7793,4.7925,4.854,4.892,4.9116,4.9116,4.9146,4.9176,4.9277,4.9264,4.9107,4.8591,4.834,4.8037,4.6606,4.6086,4.5953,0.0,0.0,0.0,0.0,0.0,0.0,0.0,0.0,0.0,0.0,0.0,0.0,0.0,0.0,0.0,0.0,0.0,0.0,0.0,0.0,0.0,2.999,2.9551,2.9278,2.9284,2.9105,2.9555,3.0609,3.1444,3.2277,3.325,3.4037,3.4397,3.4397,3.4397,3.4397,3.4397,3.4397,3.4397,3.4397,3.4397,0.0,0.0,0.0,0.0,0.0,0.0,0.0,0.0,3.7069,3.752,3.8074,3.7432,0.0,0.0,0.0,0.0,0.0,3.6492,3.7013,3.7886,3.9343,4.0614,4.1888,4.3276,4.4113,4.4615,4.4615,4.4615,4.4615,4.4615,4.4615,4.4615,4.4615,4.4615,4.4615,4.4615,4.4615,4.4649,4.4767,4.4784,4.4818,4.4936,4.4953,4.4953,4.4953,4.4953,4.4953,4.4953,4.4953,4.4953,4.4953,4.4953,4.4953,4.4953,4.616,4.6786,4.6786,4.6904,4.6984,4.7014,4.7103,4.7242,4.7372,4.7372,4.7459,4.7649,4.7649,4.7649,4.7632,4.7529,4.7067,4.6452,4.6184,4.5668,4.4984,0.0,0.0,0.0,0.0,0.0,0.0,0.0,0.0,0.0,0.0,0.0,0.0,0.0,0.0,0.0,0.0,0.0,0.0,0.0,0.0,3.0255,3.0468,2.9806,2.9385,2.9308,2.8961,2.9509,3.0968,3.14,3.2321,3.3784,3.4176,3.4397,3.4397,3.4397,3.4397,3.4397,3.4397,3.4397,3.4397,0.0,0.0,0.0,0.0,0.0,0.0,0.0,0.0,0.0,0.0,3.703,3.7355,3.6819,0.0,0.0,0.0,0.0,0.0,3.6492,3.6693,3.7321,3.8982,4.0389,4.1743,4.3097,4.4012,4.4615,4.4615,4.4615,4.4615,4.4615,4.4615,4.4615,4.4615,4.4615,4.4615,4.4615,4.4615,4.4615,4.4615,4.4615,4.4615,4.4615,4.4615,4.4615,4.4615,4.4615,4.4615,4.4615,4.4615,4.4615,4.4615,4.4615,4.4615,4.4615,4.5275,4.5602,4.563,4.6007,4.621,4.621,4.6616,4.6844,4.6903,4.6903,4.6932,4.7048,4.7106,4.7106,4.7014,4.6675,4.6328,4.5942,4.5533,4.5092,4.4682,0.0,0.0,0.0,0.0,0.0,0.0,0.0,0.0,0.0,0.0,0.0,0.0,0.0,0.0,0.0,0.0,0.0,0.0,0.0,0.0,3.0308,3.0776,3.008,2.9655,2.9663,2.9286,2.9943,3.1621,3.1797,3.2766,3.4397,3.4397,3.4397,3.4397,3.4397,3.4397,3.4397,3.4397,3.4397,3.4397,0.0,0.0,0.0,0.0,0.0,0.0,0.0,0.0,0.0,0.0,0.0,0.0,0.0,0.0,0.0,3.6492,3.6492,3.6492,3.6492,3.6492,3.6971,3.8924,4.0304,4.1586,4.3069,4.4012,4.4615,4.4615,4.4615,4.4615,4.4615,4.4615,4.4615,4.4615,4.4615,4.4615,4.4615,4.4615,4.4615,4.4615,4.4615,4.4615,4.4615,4.4615,4.4615,4.4615,4.4615,4.4615,4.4615,4.4615,4.4615,4.4615,4.4615,4.4615,4.4615,4.4615,4.4615,4.4615,4.5162,4.5449,4.5466,4.6024,4.6278,4.6278,4.6278,4.6278,4.6307,4.6406,4.6377,4.624,4.5761,4.5614,4.5535,4.4969,4.4682,4.4615,0.0,0.0,0.0,0.0,0.0,0.0,0.0,0.0,0.0,0.0,0.0,0.0,0.0,0.0,0.0,0.0,0.0,0.0,0.0,0.0,3.0505,3.0786,3.0531,3.0348,3.0166,3.0142,3.0609,3.1621,3.2451,3.342,3.4397,3.4397,3.4397,3.4397,3.4397,3.4397,3.4397,3.4397,3.4397,3.4397,3.4397,0.0,0.0,0.0,0.0,0.0,0.0,0.0,0.0,0.0,0.0,0.0,0.0,0.0,3.6492,3.6492,3.6492,3.6492,3.6492,3.6492,3.6971,3.8924,3.9985,4.1065,4.297,4.4012,4.4615,4.4615,4.4615,4.4615,4.4615,4.4615,4.4615,4.4615,4.4615,4.4615,4.4615,4.4615,4.4615,4.4615,4.4615,4.4615,4.4615,4.4615,4.4615,4.4615,4.4615,4.4615,4.4615,4.4615,4.4615,4.4615,4.4615,4.4615,4.4615,4.4615,4.4615,4.4615,4.4649,4.4682,4.4682,4.4733,4.4767,4.4767,4.4767,4.4767,4.4767,4.4767,4.4767,4.475,4.4699,4.4682,4.4682,4.4615,4.4598,4.4615,0.0,0.0,0.0,0.0,0.0,0.0,0.0,0.0,0.0,0.0,0.0,0.0,0.0,0.0,0.0,0.0,0.0,0.0,0.0,3.0099,3.036,3.0776,3.0472,3.0253,3.022,3.0505,3.0936,3.1621,3.3122,3.4037,3.4397,3.4397,3.4397,3.4397,3.4397,3.4397,3.4397,3.4397,3.4397,3.4371,3.4031,3.377,0.0,0.0,0.0,0.0,0.0,0.0,0.0,0.0,3.496,3.5831,3.5973,3.6132,3.6352,3.646,3.6492,3.6492,3.6492,3.6492,3.6987,3.8959,3.9997,4.1007,4.2959,4.4012,4.4615,4.4615,4.4615,4.4615,4.4615,4.4615,4.4615,4.4615,4.4615,4.4615,4.4615,4.4615,4.4615,4.4615,4.4615,4.4615,4.4615,4.4615,4.4615,4.4615,4.4615,4.4615,4.4615,4.4615,4.4615,4.4615,4.4615,4.4615,4.4615,4.4615,4.4615,4.4615,4.4615,4.4615,4.4615,4.4615,4.4615,4.4615,4.4615,4.4615,4.4615,4.4615,4.4615,4.4615,4.4615,4.4615,4.4615,4.4615,4.4615,4.4615,0.0,0.0,0.0,0.0,0.0,0.0,0.0,0.0,0.0,0.0,0.0,0.0,0.0,0.0,0.0,0.0,0.0,0.0,2.9994,3.0099,3.036,3.0776,3.057,3.0353,3.0182,3.0807,3.1297,3.1621,3.3475,3.4397,3.4397,3.4397,3.4397,3.4397,3.4397,3.4397,3.4397,3.4397,3.4293,3.411,3.3744,3.3365,0.0,0.0,0.0,0.0,0.0,0.0,0.0,0.0,3.4927,3.5752,3.5941,3.6085,3.6242,3.6445,3.6492,3.6492,3.6492,3.6645,3.7265,3.9046,4.0155,4.1275,4.3036,4.4024,4.4615,4.4615,4.4615,4.4615,4.4615,4.4615,4.4615,4.4615,4.4615,4.4615,4.4615,4.4615,4.4615,4.4615,4.4615,4.4615,4.4615,4.4615,4.4615,4.4615,4.4615,4.4615,4.4615,4.4615,4.4615,4.4615,4.4615,4.4615,4.4615,4.4615,4.4615,4.4615,4.4615,4.4615,4.4615,4.4615,4.4615,4.4615,4.4615,4.4615,4.4615,4.4615,4.4615,4.4615,4.4615,4.4615,4.4615,4.4615,4.4615,4.4615,0.0,0.0,0.0,0.0,0.0,0.0,0.0,0.0,0.0,0.0,0.0,0.0,0.0,0.0,0.0,0.0,0.0,0.0,2.9994,3.0245,3.0505,3.0786,3.1086,3.0889,3.0231,3.1134,3.1588,3.1621,3.3475,3.4397,3.4397,3.4397,3.4397,3.4397,3.4397,3.4397,3.4397,3.4384,3.4084,3.3587,3.3587,3.2881,3.1797,0.0,0.0,0.0,0.0,0.0,0.0,0.0,3.4927,3.572,3.5941,3.6085,3.6242,3.6445,3.6492,3.6492,3.6492,3.6984,3.779,3.9172,4.0507,4.1843,4.3182,4.4076,4.4615,4.4615,4.4615,4.4615,4.4615,4.4615,4.4615,4.4615,4.4615,4.4615,4.4615,4.4615,4.4615,4.4615,4.4615,4.4615,4.4615,4.4615,4.4615,4.4615,4.4615,4.4615,4.4615,4.4615,4.4615,4.4615,4.4615,4.4615,4.4615,4.4615,4.4615,4.4615,4.4615,4.4615,4.4615,4.4615,4.4615,4.4615,4.4615,4.4615,4.4615,4.4615,4.4615,4.4615,4.4615,4.4615,4.4615,4.4615,4.4615,4.4615,0.0,0.0,0.0,0.0,0.0,0.0,0.0,0.0,0.0,0.0,0.0,0.0,0.0,0.0,0.0,0.0,0.0,0.0,2.9994,3.0245,3.0505,3.0786,3.1086,3.0889,3.0231,3.1124,3.1934,3.2593,3.3784,3.4397,3.4397,3.4397,3.4397,3.4397,3.4397,3.4397,3.4371,3.3992,3.3744,3.3522,3.2698,3.2111,3.1758,0.0,0.0,0.0,0.0,0.0,0.0,0.0,0.0,0.0,3.5735,3.6037,3.6132,3.6429,3.6492,3.6492,3.6492,3.6645,3.7124,3.8459,3.9785,4.1151,4.2476,4.3722,4.4615,4.4615,4.4615,4.4615,4.4615,4.4615,4.4615,4.4615,4.4615,4.4615,4.4615,4.4615,4.4615,4.4615,4.4615,4.4615,4.4615,4.4615,4.4615,4.4615,4.4615,4.4615,4.4615,4.4615,4.4615,4.4615,4.4615,4.4615,4.4615,4.4615,4.4615,4.4615,4.4615,4.4615,4.4615,4.4615,4.4615,4.4615,4.4615,4.4615,4.4615,4.4615,4.4615,4.4615,4.4615,4.4615,4.4615,4.4615,4.4615,4.4615,0.0,0.0,0.0,0.0,0.0,0.0,0.0,0.0,0.0,0.0,2.9994,2.9994,0.0,0.0,0.0,0.0,0.0,0.0,0.0,3.0349,3.0609,3.0776,3.1178,3.1181,3.0745,3.1481,3.2235,3.298,3.3953,3.4397,3.4397,3.4397,3.4397,3.4397,3.4397,3.4397,3.4358,3.3822,3.3456,3.3156,3.2176,3.1667,3.147,0.0,0.0,0.0,0.0,0.0,0.0,0.0,0.0,0.0,3.5735,3.6005,3.6068,3.6398,3.6492,3.6492,3.6492,3.6692,3.7153,3.8246,3.9723,4.1339,4.295,4.3989,4.4615,4.4615,4.4615,4.4615,4.4615,4.4615,4.4615,4.4615,4.4615,4.4615,4.4615,4.4615,4.4615,4.4615,4.4615,4.4615,4.4615,4.4615,4.4615,4.4615,4.4615,4.4615,4.4615,4.4615,4.4615,4.4615,4.4615,4.4615,4.4615,4.4615,4.4615,4.4615,4.4615,4.4615,4.4615,4.4615,4.4615,4.4615,4.4615,4.4615,4.4615,4.4615,4.4615,4.4615,4.4615,4.4615,4.4615,4.4615,4.4615,4.4615,0.0,0.0,2.9879,2.9994,0.0,0.0,0.0,0.0,0.0,0.0,2.9994,2.9994,0.0,0.0,0.0,2.9994,2.9994,2.9994,2.9994,3.0516,3.0786,3.0786,3.1278,3.1567,3.1577,3.2051,3.252,3.298,3.3953,3.4397,3.4397,3.4397,3.4397,3.4397,3.4397,3.4371,3.4293,3.3744,3.3169,3.2568,3.1954,3.1457,3.0986,3.0986,0.0,0.0,0.0,0.0,0.0,0.0,0.0,0.0,3.5878,3.6005,3.6068,3.6398,3.6492,3.6492,3.6492,3.6938,3.7584,3.8323,4.0056,4.2122,4.413,4.4615,4.4615,4.4615,4.4615,4.4615,4.4615,4.4615,4.4615,4.4615,4.4615,4.4615,4.4615,4.4615,4.4615,4.4615,4.4615,4.4615,4.4615,4.4615,4.4615,4.4615,4.4615,4.4615,4.4615,4.4615,4.4615,4.4615,4.4615,4.4615,4.4615,4.4615,4.4615,4.4615,4.4615,4.4615,4.4615,4.4615,4.4615,4.4615,4.4615,4.4615,4.4615,4.4615,4.4615,4.4615,4.4615,4.4615,4.4615,4.4615,4.4615,4.4615,0.0,0.0,2.889,2.9827,0.0,0.0,0.0,0.0,0.0,0.0,0.0,0.0,0.0,2.9994,0.0,2.9994,2.9994,2.9994,2.9994,3.0516,3.0786,3.0786,3.0965,3.1213,3.1613,3.2051,3.252,3.298,3.3953,3.4397,3.4397,3.4397,3.4397,3.4397,3.4397,3.4162,3.3731,3.313,3.2555,3.1941,3.1405,3.1091,3.0986,3.0986,3.0986,0.0,0.0,0.0,0.0,0.0,0.0,0.0,3.5703,3.6005,3.6068,3.6398,3.6492,3.6492,3.6492,3.6599,3.6999,3.82,4.042,4.2682,4.4248,4.4615,4.4615,4.4615,4.4615,4.4615,4.4615,4.4615,4.4615,4.4615,4.4615,4.4615,4.4615,4.4615,4.4615,4.4615,4.4615,4.4615,4.4615,4.4615,4.4615,4.4615,4.4615,4.4615,4.4615,4.4615,4.4615,4.4615,4.4615,4.4615,4.4615,4.4615,4.4615,4.4615,4.4615,4.4615,4.4615,4.4615,4.4615,4.4615,4.4615,4.4615,4.4615,4.4615,4.4615,4.4615,4.4615,4.4615,4.4615,4.4615,4.4615,4.4615,0.0,0.0,0.0,0.0,0.0,0.0,0.0,0.0,0.0,0.0,0.0,0.0,0.0,2.9994,0.0,0.0,2.9994,3.0047,3.0193,3.0568,3.0931,3.1178,3.1237,3.1533,3.2265,3.2484,3.2955,3.3687,3.4176,3.4397,3.4397,3.4397,3.4397,3.4397,3.4397,3.4097,3.3548,3.3066,3.2515,3.1899,3.1448,3.1211,3.1123,3.1123,3.1099,3.1086,3.1846,0.0,0.0,0.0,0.0,0.0,0.0,0.0,3.5926,3.6258,3.6352,3.6383,3.646,3.6492,3.6909,3.8542,4.0737,4.2769,4.3827,4.4338,4.4615,4.4615,4.4615,4.4615,4.4615,4.4615,4.4615,4.4615,4.4615,4.4615,4.4615,4.4615,4.4615,4.4615,4.4615,4.4615,4.4615,4.4615,4.4615,4.4615,4.4615,4.4615,4.4615,4.4615,4.4615,4.4615,4.4615,4.4615,4.4615,4.4615,4.4615,4.4615,4.4615,4.4615,4.4615,4.4615,4.4615,4.4615,4.4615,4.4615,4.4615,4.4615,4.4615,4.4615,4.4615,4.4615,4.4615,4.4615,4.4615,4.4615,0.0,0.0,0.0,0.0,0.0,0.0,0.0,0.0,0.0,0.0,0.0,0.0,0.0,2.9994,2.9994,0.0,0.0,0.0,3.0391,3.0713,3.1075,3.1578,3.1618,3.2038,3.2968,3.299,3.3461,3.4397,3.4397,3.4397,3.4397,3.4397,3.4397,3.4397,3.4397,3.4031,3.3445,3.3133,3.2605,3.1945,3.1721,3.1485,3.131,3.131,3.1161,3.1086,3.1846,3.2613,3.3353,3.4109,0.0,0.0,0.0,0.0,3.5784,3.6101,3.6196,3.6242,3.646,3.6661,3.7281,3.9062,4.0927,4.2552,4.3317,4.3972,4.444,4.457,4.4615,4.4615,4.4615,4.4615,4.4615,4.4615,4.4615,4.4615,4.4615,4.4615,4.4615,4.4615,4.4615,4.4615,4.4615,4.4615,4.4615,4.4615,4.4615,4.4615,4.4615,4.4615,4.4615,4.4615,4.4615,4.4615,4.4615,4.4615,4.4615,4.4615,4.4615,4.4615,4.4615,4.4615,4.4615,4.4615,4.4615,4.4615,4.4615,4.4615,4.4615,4.4615,4.4615,4.4615,4.4615,4.4615,4.4615,4.4615,0.0,0.0,0.0,0.0,0.0,0.0,0.0,0.0,0.0,0.0,2.9994,2.9994,0.0,2.9994,2.9994,2.9994,3.0193,3.0339,3.0391,0.0,0.0,3.1578,3.1618,3.2038,3.2968,3.299,3.3461,3.4397,3.4397,3.4397,3.4397,3.4397,3.4397,3.4397,3.4397,3.3809,3.2843,3.2949,3.2368,3.1415,3.1548,3.1485,3.131,3.131,3.1161,3.1086,3.1846,3.2684,3.3575,3.4312,3.5041,0.0,0.0,0.0,3.5784,3.6101,3.6196,3.6242,3.646,3.7353,3.8439,3.9298,4.0594,4.1949,4.3196,4.3588,4.3839,4.4468,4.4615,4.4615,4.4615,4.4615,4.4615,4.4615,4.4615,4.4615,4.4615,4.4615,4.4615,4.4615,4.4615,4.4615,4.4615,4.4615,4.4615,4.4615,4.4615,4.4615,4.4615,4.4615,4.4615,4.4615,4.4615,4.4615,4.4615,4.4615,4.4615,4.4615,4.4615,4.4615,4.4615,4.4615,4.4615,4.4615,4.4615,4.4615,4.4615,4.4615,4.4615,4.4615,4.4615,4.4615,4.4615,4.4615,4.4615,4.4615,0.0,0.0,0.0,0.0,0.0,0.0,0.0,0.0,0.0,0.0,0.0,2.9994,0.0,3.0141,3.0245,3.0245,3.0453,3.0713,3.0868,3.1219,3.1476,3.1567,3.2167,3.2807,3.3492,3.3749,3.4229,3.4894,3.4567,3.4397,3.4397,3.4397,3.4397,3.4397,3.4397,3.3757,3.2685,3.2922,3.2418,3.1485,3.1669,3.1706,3.1619,3.1619,3.1508,3.1471,3.264,3.3332,3.3851,3.5008,3.5527,3.572,3.5799,0.0,0.0,0.0,3.6085,3.6163,3.6429,3.72,3.8095,3.8774,3.9941,4.1197,4.214,4.2953,4.3601,4.3914,4.431,4.4615,4.4615,4.4615,4.4615,4.4615,4.4615,4.4615,4.4615,4.4615,4.4615,4.4615,4.4615,4.4615,4.4615,4.4615,4.4615,4.4615,4.4615,4.4615,4.4615,4.4615,4.4615,4.4615,4.4615,4.4615,4.4615,4.4615,4.4615,4.4615,4.4615,4.4615,4.4615,4.4615,4.4615,4.4615,4.4615,4.4615,4.4615,4.4615,4.4615,4.4615,4.4615,4.4615,4.4615,4.4615,4.4615,4.4615,0.0,0.0,0.0,0.0,0.0,0.0,0.0,0.0,0.0,0.0,0.0,0.0,0.0,0.0,0.0,0.0,3.0776,3.1034,3.1281,3.1476,3.1721,3.2015,3.2762,3.3539,3.4241,3.4483,3.4825,3.5299,3.4698,3.4397,3.4397,3.4397,3.4397,3.4397,3.4397,3.3798,3.2804,3.3001,3.2533,3.1683,3.189,3.1963,3.189,3.1853,3.1706,3.1693,3.2995,3.361,3.3988,3.5285,3.5767,3.5752,3.572,3.5621,0.0,0.0,0.0,3.6163,3.6429,3.6984,3.7661,3.8338,3.938,4.0461,4.1302,4.2269,4.3075,4.3423,4.3943,4.4367,4.457,4.4615,4.4615,4.4615,4.4615,4.4615,4.4615,4.4615,4.4615,4.4615,4.4615,4.4615,4.4615,4.4615,4.4615,4.4615,4.4615,4.4615,4.4615,4.4615,4.4615,4.4615,4.4615,4.4615,4.4615,4.4615,4.4615,4.4615,4.4615,4.4615,4.4615,4.4615,4.4615,4.4615,4.4615,4.4615,4.4615,4.4615,4.4615,4.4615,4.4615,4.4615,4.4615,4.4615,4.4615,4.4615,0.0,0.0,0.0,0.0,0.0,0.0,0.0,0.0,0.0,0.0,0.0,0.0,3.0786,3.0786,3.0776,3.0776,3.1023,3.127,3.1578,3.1578,3.2066,3.3051,3.3151,0.0,3.5281,3.4861,3.4825,3.5299,3.4698,3.4397,3.4397,3.4397,3.4397,3.4397,3.4397,3.388,3.3001,3.321,3.2738,3.189,3.2109,3.2073,3.189,3.1683,3.1485,3.1421,3.2196,3.2989,3.3842,3.4662,3.5429,3.5941,3.5752,3.5688,3.572,0.0,0.0,0.0,3.6492,3.6984,3.7661,3.8338,3.9016,3.9913,4.1203,4.1558,4.1949,4.3227,4.3542,4.3781,4.4468,4.4615,4.4615,4.4615,4.4615,4.4615,4.4615,4.4615,4.4615,4.4615,4.4615,4.4615,4.4615,4.4615,4.4615,4.4615,4.4615,4.4615,4.4615,4.4615,4.4615,4.4615,4.4615,4.4615,4.4615,4.4615,4.4615,4.4615,4.4615,4.4615,4.4615,4.4615,4.4615,4.4615,4.4615,4.4615,4.4615,4.4615,4.4615,4.4615,4.4615,4.4615,4.4615,4.4615,4.4615,4.4615,0.0,0.0,0.0,0.0,0.0,0.0,0.0,0.0,0.0,0.0,0.0,0.0,0.0,3.0931,3.1086,3.1086,3.1322,3.1772,3.2561,3.2611,3.3101,3.419,3.4872,3.5448,3.5972,3.5717,3.5655,3.5809,3.4868,3.4397,3.4397,3.4397,3.4397,3.4397,3.4397,3.388,3.2988,3.3079,3.2648,3.189,3.1963,3.2036,3.2073,3.2,3.2214,3.2627,3.3339,3.4129,3.4912,3.5672,3.6022,3.6116,3.6038,3.5943,3.5926,3.6085,3.632,3.6492,3.6492,3.6676,3.7015,3.7692,3.8369,3.9113,3.9995,4.0896,4.1656,4.2109,4.2552,4.3075,4.3781,4.4281,4.4615,4.4615,4.4615,4.4615,4.4615,4.4615,4.4615,4.4615,4.4615,4.4615,4.4615,4.4615,4.4615,4.4615,4.4615,4.4615,4.4615,4.4615,4.4615,4.4615,4.4615,4.4615,4.4615,4.4615,4.4615,4.4615,4.4615,4.4615,4.4615,4.4615,4.4615,4.4615,4.4615,4.4615,4.4615,4.4615,4.4615,4.4615,4.4615,4.4615,4.4615,4.4615,4.4615,4.4615,0.0,0.0,0.0,0.0,0.0,0.0,0.0,0.0,0.0,0.0,0.0,0.0,0.0,0.0,3.2409,3.2409,3.2561,3.2962,3.3697,3.3747,3.419,3.5259,3.5941,3.6461,3.6815,3.634,3.6109,3.6109,3.4959,3.4397,3.4397,3.4397,3.4397,3.4397,3.4397,3.3933,3.3079,3.3079,3.2686,3.2,3.2,3.2073,3.2182,3.2146,3.2372,3.2889,3.3871,3.448,3.4993,3.599,3.6195,3.6038,3.6038,3.6053,3.61,3.6242,3.6383,3.6492,3.6492,3.6492,3.6661,3.7338,3.7831,3.8415,3.929,4.0202,4.096,4.1412,4.1868,4.2363,4.3045,4.3752,4.431,4.457,4.4615,4.4615,4.4615,4.4615,4.4615,4.4615,4.4615,4.4615,4.4615,4.4615,4.4615,4.4615,4.4615,4.4615,4.4615,4.4615,4.4615,4.4615,4.4615,4.4615,4.4615,4.4615,4.4615,4.4615,4.4615,4.4615,4.4615,4.4615,4.4615,4.4615,4.4615,4.4615,4.4615,4.4615,4.4615,4.4615,4.4615,4.4615,4.4615,4.4615,4.4615,4.4615,0.0,0.0,0.0,0.0,0.0,0.0,0.0,0.0,0.0,3.4775,0.0,0.0,0.0,0.0,0.0,3.4775,3.4775,3.4824,3.4824,3.4824,3.5307,3.632,3.6367,3.6815,3.7854,3.6724,3.6109,3.6109,3.4959,3.4397,3.4397,3.4397,3.4397,3.4397,3.4397,3.3974,3.3302,3.3302,3.2852,3.2182,3.2218,3.2218,3.2218,3.2,3.1963,3.2191,3.3561,3.3973,3.409,3.5527,3.5894,3.572,3.572,3.5943,3.6242,3.6445,3.6492,3.6492,0.0,0.0,0.0,3.7307,3.7492,3.7846,3.9121,3.9459,3.9861,4.117,4.1444,4.1689,4.2363,4.3015,4.3676,4.444,4.4587,4.4615,4.4615,4.4615,4.4615,4.4615,4.4615,4.4615,4.4615,4.4615,4.4615,4.4615,4.4615,4.4615,4.4615,4.4615,4.4615,4.4615,4.4615,4.4615,4.4615,4.4615,4.4615,4.4615,4.4615,4.4615,4.4615,4.4615,4.4615,4.4615,4.4615,4.4615,4.4615,4.4615,4.4615,4.4615,4.4615,4.4615,4.4615,4.4615,4.4615,4.4615,0.0,0.0,0.0,0.0,0.0,0.0,3.4629,3.4727,3.4775,0.0,0.0,0.0,3.4775,3.4775,3.4775,3.4775,3.4775,3.5114,3.5833,3.5893,3.638,3.7413,3.7459,3.7611,3.79,3.6724,3.6109,3.6109,3.4959,3.4397,3.4397,3.4397,3.4397,3.4397,3.4397,3.3974,3.3302,3.3302,3.2789,3.2,3.2146,3.2503,3.2925,3.2854,3.3506,3.448,3.4879,3.5335,3.5816,3.6226,3.632,3.6289,3.6289,3.6352,3.6414,3.6492,3.6492,3.6492,3.6492,0.0,0.0,0.0,0.0,0.0,3.7969,3.8816,3.9603,3.9975,4.0427,4.099,4.1641,4.1933,4.2426,4.3617,4.4236,4.4615,4.4615,4.4615,4.4615,4.4615,4.4615,4.4615,4.4615,4.4615,4.4615,4.4615,4.4615,4.4615,4.4615,4.4615,4.4615,4.4615,4.4615,4.4615,4.4615,4.4615,4.4615,4.4615,4.4615,4.4615,4.4615,4.4615,4.4615,4.4615,4.4615,4.4615,4.4615,4.4615,4.4615,4.4615,4.4615,4.4615,4.4615,4.4615,4.4615,4.4615,0.0,0.0,0.0,3.5355,0.0,0.0,3.6048,3.6096,3.6096,0.0,0.0,0.0,3.6096,3.6096,3.6096,3.6096,3.6096,3.6332,3.6922,3.6968,3.7261,3.7854,3.79,3.79,3.79,3.6724,3.6109,3.6109,3.4959,3.4397,3.4397,3.4397,3.4397,3.4397,3.4397,3.3893,3.3093,3.3547,3.3103,3.2073,3.2467,3.2868,3.3213,3.3526,3.4143,3.4894,3.5157,3.5512,3.5847,3.6085,3.6226,3.6289,3.6289,3.6398,3.6492,3.6492,3.6492,3.6492,3.6492,3.6492,3.6492,3.6492,0.0,0.0,3.7446,3.8323,3.9136,3.9428,4.0028,4.0612,4.1024,4.1294,4.1771,4.2552,4.3499,4.4236,4.4542,4.4615,4.4615,4.4615,4.4615,4.4615,4.4615,4.4615,4.4615,4.4615,4.4615,4.4615,4.4615,4.4615,4.4615,4.4615,4.4615,4.4615,4.4615,4.4615,4.4615,4.4615,4.4615,4.4615,4.4615,4.4615,4.4615,4.4615,4.4615,4.4615,4.4615,4.4615,4.4615,4.4615,4.4615,4.4615,4.4615,4.4615,4.4615,4.4615,0.0,0.0,3.5415,3.632,3.6474,3.6815,3.7749,3.79,3.79,0.0,3.79,3.79,3.79,3.79,3.79,3.79,3.79,3.79,3.79,3.79,3.79,3.79,3.79,3.79,3.79,3.6724,3.6109,3.6109,3.4959,3.4397,3.4397,3.4397,3.4397,3.4397,3.4439,3.388,3.2962,3.3968,3.3661,3.248,3.3087,3.3353,3.3526,3.4177,3.4394,3.4442,3.5059,3.5172,3.5154,3.5591,3.5847,3.6037,3.6037,3.6226,3.646,3.6492,3.6492,3.6492,3.6492,3.6492,3.6492,3.6492,3.6492,0.0,3.7246,3.7923,3.8569,3.917,3.9859,4.0382,4.0382,4.0943,4.1393,4.1492,4.252,4.3558,4.4367,4.4542,4.457,4.4468,4.4542,4.457,4.4485,4.4542,4.4615,4.4615,4.4615,4.4615,4.4615,4.4615,4.4615,4.4615,4.4615,4.4615,4.4615,4.4615,4.4615,4.4615,4.4615,4.4615,4.4615,4.4615,4.4615,4.4615,4.4615,4.4615,4.4615,4.4615,4.4615,4.4615,4.4615,4.4615,4.4615,4.4615,4.4615,4.4615,3.6023,3.6722,3.7366,3.7551,3.7598,3.7657,0.0,3.79,3.79,3.79,3.79,3.79,3.79,3.79,3.79,3.79,3.79,3.79,3.79,3.79,3.79,3.79,3.79,3.79,3.79,3.6724,3.6109,3.6109,3.4959,3.4397,3.4397,3.4397,3.4397,3.4397,3.4618,3.4487,3.4083,3.4461,3.4365,3.3905,3.4041,3.4447,3.4993,3.5124,3.5544,3.6053,3.6179,3.6211,3.6195,3.6101,3.6148,3.6148,3.6148,3.6211,3.6274,3.646,3.6492,3.6492,3.6492,3.6492,3.6492,3.6492,3.6492,0.0,3.6661,3.7215,3.7738,3.7861,3.8862,3.969,3.969,4.0257,4.087,4.1393,4.1706,4.2332,4.3542,4.4236,4.4367,4.3781,4.4236,4.4384,4.3781,4.4236,4.4615,4.4615,4.4615,4.4615,4.4615,4.4615,4.4615,4.4615,4.4615,4.4615,4.4615,4.4615,4.4615,4.4615,4.4615,4.4615,4.4615,4.4615,4.4615,4.4615,4.4615,4.4615,4.4615,4.4615,4.4615,4.4615,4.4615,4.4615,4.4615,4.4615,4.4615,4.4615,3.7108,3.7505,3.79,3.79,0.0,0.0,0.0,0.0,3.79,3.79,3.79,3.79,3.79,3.79,3.79,3.79,3.79,3.79,3.79,3.79,3.79,3.79,3.79,3.79,3.79,3.6724,3.6109,3.6109,3.4959,3.4397,3.4397,3.4397,3.4634,3.5032,3.4867,3.4833,3.4883,3.5119,3.5031,3.4714,3.4813,3.5059,3.5432,3.58,3.6116,3.6352,3.6352,3.632,3.6258,3.6211,3.6196,3.6196,3.6196,3.6274,3.6383,3.646,3.6492,3.6492,3.6492,3.6492,3.6492,3.6492,3.6492,0.0,0.0,3.7015,3.7507,3.7507,3.8308,3.9108,3.9428,3.9767,4.0226,4.0876,4.1276,4.1739,4.2426,4.3092,4.341,4.3045,4.3617,4.3914,4.3542,4.4179,4.4615,4.4615,4.4615,4.4615,4.4615,4.4615,4.4615,4.4615,4.4615,4.4615,4.4615,4.4615,4.4615,4.4615,4.4615,4.4615,4.4615,4.4615,4.4615,4.4615,4.4615,4.4615,4.4615,4.4615,4.4615,4.4615,4.4615,4.4615,4.4615,4.4615,4.4615,4.4615,3.7992,3.7992,3.7992,3.79,0.0,0.0,0.0,0.0,3.8037,3.8037,3.7992,3.7979,3.7979,3.79,3.79,3.79,3.79,3.79,3.79,3.79,3.79,3.79,3.79,3.79,3.79,3.6724,3.6109,3.6109,3.5002,3.4481,3.4481,3.4522,3.4991,3.579,3.5345,3.5388,3.5847,3.6021,3.5873,3.5564,3.5589,3.5608,3.5672,3.6289,3.6383,3.6274,3.6274,3.6195,3.61,3.6179,3.6196,3.6196,3.6196,3.6305,3.646,3.6492,3.6492,3.6492,3.6492,3.6492,3.6492,3.6492,3.6492,3.6492,0.0,0.0,0.0,3.7307,3.7846,3.8523,3.9167,3.9398,3.9659,4.0213,4.0878,4.1262,4.1121,4.1676,4.2173,4.23,4.2892,4.3317,4.3317,4.4076,4.4615,4.4615,4.4615,4.4615,4.4615,4.4615,4.4615,4.4615,4.4615,4.4615,4.4615,4.4615,4.4615,4.4615,4.4615,4.4615,4.4615,4.4615,4.4615,4.4615,4.4615,4.4615,4.4615,4.4615,4.4615,4.4615,4.4615,4.4615,4.4615,4.4615,4.4615,4.4615,3.8213,3.8362,3.8389,3.7992,0.0,0.0,0.0,0.0,0.0,3.8512,3.8317,3.8167,3.8167,3.8024,3.79,3.79,3.79,3.79,3.79,3.79,3.79,3.79,3.79,3.79,3.79,3.6724,3.6109,3.6109,3.5197,3.4756,3.4756,3.4962,3.5453,3.6215,3.6348,3.6897,3.7659,3.7273,3.7191,3.7195,3.6597,3.6398,3.6383,3.646,3.6492,3.646,3.646,3.646,3.6429,3.6242,3.6196,3.6196,3.6196,3.6211,3.6274,3.646,3.6492,3.6492,3.6492,3.6492,3.6492,3.6492,3.6492,3.6492,3.6492,0.0,3.6599,3.6599,0.0,3.7815,3.8492,0.0,0.0,3.9582,4.0158,4.0411,3.981,4.0294,4.0972,4.1558,4.2205,4.2614,4.2614,4.3827,4.4615,4.4615,4.4615,4.4615,4.4615,4.4615,4.4615,4.4615,4.4615,4.4615,4.4615,4.4615,4.4615,4.4615,4.4615,4.4615,4.4615,4.4615,4.4615,4.4615,4.4615,4.4615,4.4615,4.4615,4.4615,4.4615,4.4615,4.4615,4.4615,4.4615,4.4615,4.4615,3.8498,3.8512,3.8557,3.8344,0.0,0.0,0.0,0.0,0.0,3.8602,3.8498,3.8349,3.8213,3.8122,3.8226,3.8639,3.8626,3.8626,3.8626,3.9268,3.9118,3.7946,3.8485,3.8658,3.8265,3.6968,3.6446,3.6695,3.6008,3.5683,3.5683,3.6215,3.6908,3.7663,3.742,3.7826,3.8666,3.8102,3.7945,3.8061,3.7769,3.743,3.703,3.6645,3.6492,3.6492,3.6492,3.6492,3.6492,3.6383,3.6383,3.6383,3.6383,3.6383,3.6383,3.6492,3.6492,3.6492,3.6492,3.6492,3.6492,3.6492,3.6492,3.6492,3.6492,3.6492,3.6492,3.6492,0.0,0.0,0.0,0.0,0.0,0.0,4.0043,4.0397,4.0105,4.032,4.0612,4.0904,4.1525,4.2237,4.3015,4.3273,4.371,4.4542,4.4207,4.415,4.457,4.4615,4.4615,4.4615,4.4615,4.4615,4.4615,4.4615,4.4615,4.4615,4.4615,4.4615,4.4615,4.4615,4.4615,4.4615,4.4615,4.4615,4.4615,4.4615,4.4615,4.4615,4.4615,4.4615,4.4615,4.4615,4.4615,4.4615,3.9234,3.8948,3.8737,3.8602,3.8692,0.0,0.0,3.9145,3.9234,3.9499,3.9486,3.9339,3.9073,3.897,3.9135,3.9563,3.9593,3.9593,3.9593,4.0361,4.0076,3.8425,3.9349,3.9483,3.8626,3.7748,3.7343,3.7419,3.6953,3.6674,3.6635,3.7357,3.8078,3.8789,3.8413,3.8697,3.9516,3.889,3.8679,3.8769,3.8585,3.8108,3.743,3.6753,3.6492,3.6492,3.6492,3.6492,3.6492,3.6492,3.6492,3.6492,3.6492,3.6492,3.6492,3.6492,3.6492,3.6492,3.6492,3.6492,3.6492,3.6492,3.6492,3.6492,3.6492,3.6492,3.6492,3.6492,3.6492,0.0,0.0,0.0,3.8677,3.917,0.0,4.0428,4.0243,4.0382,4.0489,4.0489,4.1091,4.1901,4.2862,4.2676,4.3,4.4207,4.381,4.381,4.457,4.4615,4.4615,4.4615,4.4615,4.4615,4.4615,4.4615,4.4615,4.4615,4.4615,4.4615,4.4615,4.4615,4.4615,4.4615,4.4615,4.4615,4.4615,4.4615,4.4615,4.4615,4.4615,4.4615,4.4615,4.4615,4.4615,4.4615,4.056,3.9867,3.9127,3.8692,3.8993,3.9543,4.0389,4.056,4.0859,4.1769,4.1657,4.1435,4.1197,4.0958,4.0732,4.0589,4.0546,4.0546,4.0546,4.0603,4.0294,3.9564,4.0379,4.0237,3.8899,3.914,3.8974,3.8279,3.7935,3.7648,3.7472,3.7875,3.8442,3.909,3.919,3.9713,4.0413,3.9767,3.9474,3.9398,3.8769,3.8108,3.743,3.6753,3.6492,3.6492,3.6492,3.6492,3.6492,3.6492,3.6492,3.6492,3.6492,3.6492,3.6492,3.6492,3.6492,3.6492,3.6492,3.6492,3.6492,3.6492,3.6492,3.6492,3.6492,3.6492,3.6492,3.6492,3.6492,3.6692,3.7384,3.8061,3.8523,3.8539,3.9628,0.0,0.0,4.0074,4.0489,4.0489,4.1091,4.1525,4.1558,4.2141,4.28,4.3482,4.3512,4.381,4.457,4.4615,4.4615,4.4615,4.4615,4.4615,4.4615,4.4615,4.4615,4.4615,4.4615,4.4615,4.4615,4.4615,4.4615,4.4615,4.4615,4.4615,4.4615,4.4615,4.4615,4.4615,4.4615,4.4615,4.4615,4.4615,4.4615,4.4615,4.1505,4.1268,4.1029,4.0887,4.0986,4.1198,4.1478,4.1505,4.1603,4.1728,4.1672,4.1532,4.1338,4.1085,4.1239,4.1877,4.1657,4.1589,4.174,4.2304,4.1727,3.9704,4.0621,4.0579,3.9368,3.895,3.8789,3.8944,3.8848,3.8745,3.8708,3.9391,3.9814,4.0036,4.0076,4.0266,4.0489,4.0259,4.0151,4.009,3.9413,3.8769,3.8092,3.7415,3.6892,3.6492,3.6492,3.6492,3.6492,3.6492,3.6492,3.6492,3.6492,3.6492,3.6492,3.6492,3.6492,3.6492,3.6492,3.6492,3.6492,3.6492,3.6492,3.6492,3.6492,3.6492,3.6492,3.6492,3.6492,3.6569,3.6799,3.7384,3.7984,3.8431,3.9228,3.9905,0.0,4.0351,4.0489,4.0489,4.0715,4.1024,4.1459,4.1706,4.23,4.3423,4.3512,4.381,4.457,4.4615,4.4615,4.4615,4.4615,4.4615,4.4615,4.4615,4.4615,4.4615,4.4615,4.4615,4.4615,4.4615,4.4615,4.4615,4.4615,4.4615,4.4615,4.4615,4.4615,4.4615,4.4615,4.4615,4.4615,4.4615,4.4615,4.4615,4.2482,4.2725,4.2725,4.2114,4.199,4.2114,4.2386,4.2482,4.2508,4.267,4.2614,4.2467,4.229,4.2073,4.2196,4.279,4.2603,4.2537,4.2644,4.3065,4.2436,4.0418,4.12,4.1058,3.9787,3.963,3.9572,3.9672,3.9692,3.9692,3.9672,4.0231,4.0455,4.0436,4.0489,4.0489,4.0489,4.0489,4.0489,4.0459,4.0013,3.9428,3.8831,3.8385,3.7507,3.6492,3.6492,3.6492,3.6492,3.6492,3.6492,3.6492,3.6492,3.6492,3.6492,3.6492,3.6492,3.6492,3.6492,3.6492,3.6492,3.6492,3.6492,3.6492,3.6492,3.6492,3.6492,3.6492,3.6492,3.6492,3.6492,3.7046,3.7723,3.84,3.9077,3.9721,0.0,4.0489,4.0489,4.0489,4.0489,4.0681,4.1091,4.1142,4.1608,4.2707,4.3015,4.3363,4.3827,4.4327,4.4468,4.4207,4.4468,4.4468,4.4207,4.4468,4.4468,4.4207,4.4468,4.4615,4.4615,4.4615,4.4615,4.4615,4.4615,4.4615,4.4615,4.4615,4.4615,4.4615,4.4615,4.4615,4.4615,4.4615,4.4615,4.4615,4.3364,4.402,4.4097,4.2441,4.2114,4.24,4.3245,4.3364,4.3654,4.4496,4.4396,4.4205,4.4026,4.3793,4.3581,4.3324,4.3284,4.323,4.324,4.2797,4.2281,4.1686,4.2012,4.1549,4.0041,4.099,4.1146,4.0312,4.0436,4.0436,4.0296,4.0436,4.0436,4.0312,4.0436,4.0489,4.0489,4.0489,4.0489,4.0489,4.0489,4.009,3.949,3.949,3.8292,3.6584,3.6553,3.6522,3.6492,3.6492,3.6492,3.6492,3.6492,3.6492,3.6492,3.6492,3.6492,3.6492,3.6492,3.6492,3.6492,3.6492,3.6492,3.6492,3.6492,3.6492,3.6492,3.6492,3.6492,3.6492,3.6492,3.7015,3.7677,3.84,3.9108,3.9767,4.0397,4.0489,4.0489,4.0489,4.0489,4.0489,4.0489,4.0558,4.0836,4.1459,4.2141,4.2552,4.2552,4.3827,4.4236,4.3588,4.4236,4.4265,4.3571,4.4236,4.4236,4.3571,4.4281,4.4615,4.4615,4.4615,4.4615,4.4615,4.4615,4.4615,4.4615,4.4615,4.4615,4.4615,4.4615,4.4615,4.4615,4.4615,4.4615,4.4615,4.4251,4.4458,4.4458,4.4004,4.3927,4.4004,4.4251,4.4251,4.4289,4.4358,4.4205,4.4065,4.4026,4.3621,4.3292,4.3082,4.2805,4.2479,4.2122,4.1866,4.1475,4.0962,4.1042,4.083,4.0222,4.048,4.0585,4.047,4.0489,4.0489,4.047,0.0,0.0,4.0455,4.0489,4.0489,4.0489,4.0489,4.0489,4.0489,4.0489,4.009,3.949,3.949,3.8893,3.7923,3.7415,3.6923,3.6492,3.6492,3.6492,3.6492,3.6492,3.6492,3.6492,3.6492,3.6492,3.6492,3.6492,3.6492,3.6492,3.6492,3.6492,3.6492,3.6492,3.6492,3.6492,3.6492,3.6492,3.6492,3.6492,3.663,3.7138,3.8323,3.9459,4.029,4.0474,4.0489,4.0489,4.0489,4.0489,4.0489,4.0489,4.1393,4.1868,4.1509,4.2583,4.3227,4.3227,4.3588,4.3943,4.431,4.4497,4.4514,4.431,4.4514,4.4497,4.431,4.4514,4.4615,4.4615,4.4615,4.4615,4.4615,4.4615,4.4615,4.4615,4.4615,4.4615,4.4615,4.4615,4.4615,4.4615,4.4615,4.4615,4.4615,4.461,4.461,4.461,4.461,4.4549,4.4473,4.4473,4.4549,4.4549,4.432,4.4127,4.3988,4.3988,4.3581,4.3259,4.3133,4.2908,4.2665,4.2406,4.2106,4.1693,4.1158,4.101,4.0684,4.0187,4.0296,4.0401,4.0401,4.0455,4.0489,4.0489,0.0,0.0,4.0489,4.0489,4.0489,4.0489,4.0489,4.0489,4.0489,4.0489,4.0259,0.0,3.992,3.9505,3.8908,3.8523,3.7754,3.6892,3.6599,3.6492,3.6492,3.6492,3.6492,3.6492,3.6492,3.6492,3.6492,3.6492,3.6492,3.6492,3.6492,3.6492,3.6492,3.6492,3.6492,3.6492,3.6492,3.6492,3.6492,3.6492,3.6738,3.7384,3.8739,3.9797,4.0489,4.0489,4.0489,4.0489,4.0489,4.0489,4.0489,4.0489,4.1459,4.1771,4.1109,4.23,4.2923,4.2645,4.3166,4.3676,4.4105,4.444,4.444,4.4105,4.444,4.444,4.4105,4.444,4.4615,4.4615,4.4615,4.4615,4.4615,4.4615,4.4615,4.4615,4.4615,4.4615,4.4615,4.4615,4.4615,4.4615,4.4615,4.4615,4.4615,4.461,4.461,4.461,4.461,4.4473,4.432,4.432,4.4473,4.4511,4.4358,4.4166,4.4026,4.4026,4.366,4.3339,4.3249,4.3249,4.3165,4.309,4.2677,4.2235,4.1731,4.1407,4.0913,4.0147,4.0434,4.0493,4.0312,4.0436,4.0489,0.0,0.0,4.0489,4.0489,4.0489,4.0489,4.0489,4.0489,4.0489,4.0489,4.0489,4.0489,4.0489,4.0489,4.0136,3.9613,3.9521,3.8646,3.7415,3.683,3.6569,3.6492,3.6492,3.6492,3.6492,3.6492,3.6492,3.6492,3.6492,3.6492,3.6492,3.6492,3.6492,3.6492,3.6492,3.6492,3.6492,3.6492,3.6492,3.6492,3.6492,3.7123,3.8046,3.929,4.0043,4.0489,4.0489,4.0489,4.0489,4.0489,4.0489,0.0,4.0489,4.1125,4.1209,4.0558,4.1641,4.2141,4.1641,4.2738,4.3453,4.3647,4.4281,4.431,4.3647,4.4281,4.4281,4.3647,4.431,4.4615,4.4615,4.4615,4.4615,4.4615,4.4615,4.4615,4.4615,4.4615,4.4615,4.4615,4.4615,4.4615,4.4615,4.4615,4.4615,4.4615,4.461,4.461,4.461,4.461,4.4572,4.4496,4.432,4.432,4.4396,4.4534,4.4358,4.4243,4.4243,4.4011,4.3644,4.3099,4.29,4.2582,4.201,4.1761,4.1656,4.1716,4.1633,4.1366,4.0846,4.0887,4.072,4.0312,4.0331,4.0401,0.0,4.0489,4.0489,4.0489,4.0489,4.0489,4.0489,4.0489,4.0489,4.0489,4.0489,4.0489,4.0489,4.0489,4.0428,4.0243,3.969,3.8646,3.7477,3.7353,3.6953,3.6492,3.6492,3.6492,3.6492,3.6492,3.6492,3.6492,3.6492,3.6492,3.6492,3.6492,3.6492,3.6492,3.6492,3.6492,3.6492,3.6492,3.6492,3.6492,3.6492,3.7507,3.86,3.9351,4.0043,4.0489,4.0489,4.0489,4.0489,4.0489,4.0489,4.0489,4.0489,4.1125,4.1209,4.0558,4.1243,4.1868,4.23,4.2552,4.3213,4.4384,4.4542,4.4542,4.4412,4.4542,4.4542,4.4412,4.4542,4.4615,4.4615,4.4615,4.4615,4.4615,4.4615,4.4615,4.4615,4.4615,4.4615,4.4615,4.4615,4.4615,4.4615,4.4615,4.4615,4.4615,4.461,4.461,4.4572,4.4458,4.4435,4.4396,4.432,4.4281,4.432,4.4435,4.4358,4.4281,4.4281,4.4127,4.3851,4.3532,4.3425,4.325,4.2917,4.2787,4.2636,4.238,4.2365,4.21,4.1529,4.1623,4.1565,4.1352,4.1086,4.1023,0.0,4.0674,4.0489,4.0489,4.0489,4.0489,4.0489,4.0489,4.0489,4.0489,4.0489,4.0489,4.0489,4.0489,4.0715,4.0925,4.0242,3.9603,3.8886,3.7851,3.7292,3.6953,3.6599,3.6492,3.6492,3.6492,3.6492,3.6492,3.6492,3.6492,3.6492,3.6492,3.6492,3.6492,3.6492,3.6492,3.6492,3.6492,3.6492,3.6707,3.7415,3.8061,3.8846,3.9844,4.0274,4.0489,4.0489,4.0489,4.0489,4.0489,4.0489,4.0489,4.0489,4.0802,4.099,4.1024,4.1343,4.1949,4.2937,4.2707,4.3169,4.4542,4.4615,4.4615,4.4615,4.4615,4.4615,4.4615,4.4615,4.4615,4.4615,4.4615,4.4615,4.4615,4.4615,4.4615,4.4615,4.4615,4.4615,4.4615,4.4615,4.4615,4.4615,4.4615,4.4615,4.4615,4.4534,4.4549,4.4473,4.4281,4.4243,4.4243,4.4243,4.4243,4.4281,4.4358,4.4358,4.4358,4.4358,4.4205,4.4143,4.4143,4.4104,4.405,4.405,4.4026,4.3745,4.3229,4.3198,4.2895,4.2227,4.2382,4.238,4.2316,4.1802,4.1566,4.1586,4.0863,4.0489,4.0489,4.0489,4.0489,4.0489,4.0489,4.0489,4.0489,4.0489,4.0489,4.0524,4.0646,4.1057,4.1459,4.1057,4.0931,4.0642,3.8777,3.7959,3.76,3.6923,3.6707,3.6676,3.6538,3.6492,3.6492,3.6492,3.6492,3.6492,3.6492,3.6492,3.6492,3.6492,3.6492,3.6492,3.6492,3.6599,3.7076,3.8292,3.8631,3.9108,4.0305,4.0489,4.0489,4.0489,4.0489,4.0489,4.0489,4.0489,4.0489,4.0489,4.0489,4.0768,4.1459,4.1492,4.2013,4.3227,4.28,4.3061,4.431,4.4384,4.4384,4.4384,4.4514,4.4615,4.4615,4.4615,4.4615,4.4615,4.4615,4.4615,4.4615,4.4615,4.4615,4.4615,4.4615,4.4615,4.4615,4.4615,4.4615,4.4615,4.4615,4.4699,4.4852,4.4358,4.432,4.4243,4.4065,4.4026,4.4026,4.4026,4.4026,4.4166,4.4534,4.4572,4.4572,4.4572,4.4549,4.4534,4.4534,4.4396,4.4281,4.4281,4.4104,4.3957,4.3897,4.3897,4.3578,4.291,4.2933,4.2741,4.2316,4.1643,4.1428,4.1586,4.0863,4.0489,4.0489,4.0489,4.0489,4.0489,4.0489,4.0489,4.0489,4.0489,4.0489,4.0558,4.1176,4.1459,4.1575,4.2109,4.2315,4.2106,4.0706,3.9401,3.8292,3.7615,3.7415,3.7292,3.6676,3.6492,3.6492,3.6492,3.6492,3.6492,3.6492,3.6492,3.6492,3.6492,3.6492,3.6492,3.6492,3.6984,3.7631,3.8369,3.9016,3.9644,4.0366,4.0489,4.0489,4.0489,4.0489,4.0489,4.0489,4.0489,4.0489,4.0489,4.0489,4.0768,4.1459,4.1492,4.1836,4.2552,4.2552,4.2831,4.3571,4.3601,4.3601,4.3601,4.4281,4.4615,4.4615,4.4615,4.4615,4.4615,4.4615,4.4615,4.4615,4.4615,4.4615,4.4615,4.4615,4.4615,4.4615,4.4615,4.4615,4.4615,4.4615,4.501,4.5602,4.4143,4.4127,4.4065,4.3871,4.391,4.3949,4.3847,4.391,4.4065,4.4205,4.4358,4.4473,4.4587,4.461,4.461,4.461,4.4549,4.4473,4.4473,4.4396,4.4358,4.4358,4.4243,4.4044,4.377,4.377,4.367,4.3524,4.2947,4.2535,4.2186,4.1494,4.0905,4.0489,4.0489,4.0489,4.0489,4.0489,4.0489,4.0489,4.0489,4.0749,4.1125,4.1393,4.1981,4.2676,4.2552,4.2769,4.2965,4.2041,4.0801,3.9561,3.8905,3.8431,3.8066,3.7779,3.7421,3.7015,3.6599,3.6754,3.6952,3.6585,3.6785,3.6952,3.6569,3.6492,3.6492,3.6492,3.703,3.7831,3.8908,3.9305,3.9705,4.0382,4.0489,4.0489,4.0489,4.0489,4.0489,4.0489,4.0489,4.0489,4.0489,4.0489,4.0612,4.087,4.0904,4.1376,4.2458,4.252,4.2614,4.2892,4.3722,4.3943,4.3495,4.4236,4.4615,4.4615,4.4615,4.4615,4.4615,4.4615,4.4615,4.4615,4.4615,4.4615,4.4615,4.4615,4.4615,4.4649,4.5077,4.5263,4.5314,4.5754,4.6109,4.6363,4.391,4.391,4.3832,4.3636,4.3714,4.3754,4.3596,4.3754,4.3949,4.3988,4.4181,4.4358,4.4511,4.4572,4.461,4.461,4.461,4.461,4.461,4.461,4.461,4.461,4.4458,4.4396,4.4396,4.4396,4.4396,4.4396,4.3872,4.3377,4.2879,4.2001,4.1217,4.0489,4.0489,4.0489,4.0489,4.0489,4.0489,4.0524,4.0715,4.1091,4.1558,4.1933,4.2676,4.3482,4.3213,4.3439,4.3722,4.3015,4.2149,4.1212,4.0369,3.9756,3.9328,3.9133,3.8759,3.8279,3.7809,3.7829,3.788,3.7446,3.75,3.7533,3.7118,3.7047,3.7049,3.7077,3.7759,3.8614,3.9372,3.9644,3.9936,4.0413,4.0489,4.0489,4.0489,4.0489,4.0489,4.0489,4.0489,4.0489,4.0489,4.0489,4.0593,4.0768,4.0802,4.1309,4.2458,4.252,4.2583,4.28,4.3752,4.4047,4.3512,4.4236,4.4615,4.4615,4.4615,4.4615,4.4615,4.4615,4.4615,4.4615,4.4615,4.4615,4.4632,4.4852,4.4908,4.4993,4.5737,4.6024,4.6092,4.6599,4.6938,4.7124,4.3729,4.369,4.3596,4.3344,4.329,4.329,4.329,4.3518,4.3754,4.3988,4.4181,4.4281,4.4281,4.4473,4.461,4.461,4.461,4.461,4.461,4.461,4.461,4.461,4.461,4.461,4.461,4.461,4.461,4.461,4.3932,4.3608,4.3562,4.2217,4.1217,4.0489,4.0489,4.0489,4.0489,4.0489,4.0489,4.0558,4.1209,4.1492,4.1641,4.2984,4.3482,4.3601,4.431,4.457,4.4468,4.3752,4.3466,4.3215,4.1906,4.1482,4.1336,4.0683,4.0472,4.0472,4.0456,3.994,3.9376,3.9376,3.8812,3.8294,3.8278,3.8323,3.8387,3.8469,3.9543,4.0257,3.9642,4.0028,4.0489,4.0489,4.0489,4.0489,4.0489,4.0489,4.0489,4.0489,4.0489,4.0489,4.0489,4.0489,4.0768,4.1426,4.1492,4.1771,4.2442,4.252,4.2784,4.3482,4.3495,4.3512,4.3512,4.4236,4.4615,4.4615,4.4615,4.4615,4.4615,4.4615,4.4615,4.4615,4.4615,4.4615,4.4666,4.5382,4.5703,4.5771,4.6498,4.6786,4.6786,4.6786,4.7259,4.7872,4.3423,4.3423,4.3384,4.329,4.329,4.3384,4.3557,4.3651,4.3754,4.3988,4.4181,4.4281,4.4281,4.4473,4.461,4.461,4.461,4.461,4.461,4.461,4.461,4.461,4.461,4.461,4.461,4.461,4.461,4.461,4.4409,4.4055,4.3578,4.2217,4.1478,4.1232,4.0705,4.0489,4.0489,4.0489,4.0768,4.1209,4.1393,4.2046,4.2923,4.3347,4.381,4.4281,4.4514,4.4615,4.457,4.4338,4.4236,4.4174,4.375,4.2944,4.2127,4.1937,4.1547,4.1075,4.0618,4.0635,4.0672,4.0252,4.0275,4.0299,3.9894,3.9468,3.9298,3.9752,3.9854,3.99,4.0158,4.0351,4.0489,4.0489,4.0489,4.0489,4.0489,4.0489,4.0489,4.0489,4.0888,4.1176,4.1176,4.1591,4.1771,4.1525,4.1917,4.2269,4.2489,4.2923,4.3075,4.2831,4.3752,4.4018,4.3495,4.4236,4.4615,4.4615,4.4615,4.4615,4.4632,4.5111,4.5348,4.5382,4.5872,4.6092,4.6109,4.6346,4.6447,4.6515,4.7259,4.7564,4.7614,4.8122,4.846,4.8663,4.329,4.329,4.3329,4.3423,4.3463,4.3542,4.3754,4.3871,4.3988,4.4104,4.4281,4.4396,4.4396,4.4534,4.461,4.461,4.461,4.461,4.461,4.461,4.461,4.461,4.461,4.461,4.461,4.461,4.461,4.461,4.461,4.4271,4.3593,4.2725,4.2078,4.1586,4.1124,4.0751,4.0489,4.0489,4.0904,4.1525,4.1771,4.252,4.3542,4.381,4.4207,4.4615,4.4615,4.4615,4.4615,4.4615,4.4615,4.4615,4.4615,4.3989,4.3297,4.3306,4.2983,4.2574,4.2158,4.2102,4.2072,4.1671,4.167,4.1638,4.1271,4.1072,4.0938,4.0896,4.0942,4.0971,4.0878,4.087,4.087,4.087,4.0646,4.0593,4.0836,4.087,4.0956,4.1209,4.1608,4.1868,4.1868,4.2269,4.2426,4.2269,4.2645,4.2984,4.3273,4.3423,4.3423,4.329,4.415,4.4367,4.3914,4.4367,4.475,4.501,4.528,4.5444,4.5461,4.5889,4.6109,4.6143,4.6599,4.6786,4.6802,4.7107,4.7208,4.7293,4.8037,4.8294,4.8392,4.8832,4.9001,4.9001,4.329,4.329,4.3384,4.3651,4.369,4.3754,4.3988,4.4166,4.432,4.432,4.4458,4.461,4.461,4.461,4.461,4.461,4.461,4.461,4.461,4.461,4.461,4.461,4.461,4.461,4.461,4.461,4.461,4.461,4.461,4.4286,4.367,4.3624,4.2946,4.174,4.1694,4.1278,4.0566,4.0636,4.0984,4.1558,4.2269,4.2953,4.3571,4.431,4.4615,4.4615,4.4615,4.4615,4.4615,4.4615,4.4615,4.4615,4.4615,4.4615,4.4615,4.4615,4.4615,4.4615,4.4615,4.4045,4.3477,4.3477,4.2963,4.249,4.2558,4.2981,4.3051,4.1821,4.2552,4.3045,4.1739,4.1492,4.1492,4.1492,4.0972,4.0783,4.1393,4.1492,4.1739,4.2426,4.252,4.252,4.2567,4.2614,4.2892,4.3453,4.3542,4.3839,4.4468,4.3914,4.3885,4.457,4.4615,4.4632,4.4682,4.4682,4.5043,4.5788,4.6464,4.6786,4.6786,4.6836,4.687,4.687,4.6921,4.6938,4.7005,4.7699,4.7973,4.8024,4.8731,4.9001,4.9001,4.9001,4.9001,4.9001,4.329,4.329,4.3384,4.3651,4.369,4.3832,4.4166,4.4281,4.4358,4.4511,4.4572,4.461,4.461,4.461,4.461,4.461,4.461,4.461,4.461,4.461,4.461,4.461,4.461,4.461,4.461,4.461,4.461,4.461,4.461,4.4533,4.4363,4.3855,4.3439,4.3116,4.2586,4.1986,4.1375,4.1885,4.1879,4.1608,4.28,4.3347,4.3571,4.431,4.4615,4.4615,4.4615,4.4615,4.4615,4.4615,4.4615,4.4615,4.4615,4.4615,4.4615,4.4615,4.4615,4.4615,4.4615,4.4479,4.4316,4.4316,4.4192,4.4051,4.408,4.3779,4.3254,4.2425,4.252,4.2473,4.1641,4.1492,4.1492,4.1492,4.1376,4.1343,4.1492,4.1492,4.1739,4.2426,4.252,4.2707,4.3196,4.3752,4.396,4.3542,4.4001,4.4179,4.3781,4.4133,4.4412,4.4598,4.4615,4.4886,4.5432,4.5432,4.5805,4.6532,4.6718,4.6786,4.6802,4.7394,4.7648,4.7682,4.824,4.8477,4.8494,4.868,4.8748,4.8765,4.8934,4.9001,4.9001,4.9001,4.9001,4.9001,4.329,4.329,4.3384,4.3651,4.369,4.3793,4.4104,4.4243,4.4358,4.4473,4.4549,4.461,4.461,4.461,4.461,4.461,4.461,4.461,4.461,4.461,4.461,4.461,4.461,4.461,4.461,4.461,4.461,4.461,4.461,4.461,4.461,4.424,4.3901,4.3593,4.3202,4.2679,4.2068,4.2116,4.2106,4.2033,4.2445,4.2953,4.3542,4.3943,4.431,4.4615,4.4615,4.4615,4.4615,4.4615,4.4615,4.4615,4.4615,4.4615,4.4615,4.4615,4.4615,4.4615,4.4615,4.4615,4.4615,4.4615,4.4615,4.4615,4.4615,4.431,4.381,4.3106,4.3213,4.3259,4.2552,4.2426,4.2426,4.2426,4.2173,4.1949,4.1949,4.1949,4.2205,4.2892,4.2953,4.3243,4.3943,4.4367,4.444,4.403,4.4367,4.444,4.4001,4.4704,4.4942,4.4615,4.4925,4.5297,4.5703,4.638,4.6921,4.731,4.7648,4.78,4.7817,4.8223,4.8409,4.8443,4.8832,4.9001,4.9001,4.9001,4.9001,4.9001,4.9001,4.9001,4.9001,4.9001,4.9001,4.9001,4.329,4.329,4.3384,4.3651,4.369,4.3769,4.3988,4.4127,4.4243,4.4243,4.4396,4.4511,4.4511,4.4511,4.4534,4.4534,4.4534,4.4572,4.461,4.461,4.461,4.461,4.461,4.461,4.461,4.461,4.461,4.461,4.461,4.461,4.461,4.461,4.4317,4.3762,4.3762,4.343,4.2891,4.2303,4.233,4.2726,4.2194,4.2526,4.3377,4.3468,4.3822,4.4281,4.4281,4.4281,4.4281,4.4281,4.4281,4.4281,4.4412,4.4367,4.431,4.4412,4.4367,4.4327,4.4542,4.4615,4.4615,4.4615,4.4615,4.4615,4.4615,4.4615,4.4367,4.3512,4.4018,4.431,4.3363,4.3347,4.3436,4.3227,4.28,4.252,4.252,4.252,4.28,4.3571,4.3571,4.381,4.4542,4.4615,4.4615,4.4615,4.4615,4.4649,4.4767,4.5348,4.5466,4.4953,4.5534,4.5923,4.6041,4.7365,4.8058,4.8058,4.8714,4.9001,4.9001,4.9001,4.9001,4.9001,4.9001,4.9001,4.9001,4.9001,4.9001,4.9001,4.9001,4.9001,4.9001,4.9001,4.9001,4.9001,4.329,4.329,4.3384,4.3651,4.369,4.3769,4.3988,4.4026,4.4065,4.4065,4.405,4.4104,4.4104,4.4104,4.4166,4.432,4.4358,4.4435,4.4572,4.461,4.461,4.461,4.461,4.461,4.461,4.461,4.461,4.461,4.461,4.461,4.461,4.461,4.4526,4.4456,4.4456,4.4427,4.437,4.4205,4.3898,4.3572,4.3952,4.3552,4.2809,4.338,4.326,4.2831,4.2831,4.2831,4.2831,4.2831,4.2831,4.2923,4.3482,4.3273,4.2939,4.3482,4.3273,4.3092,4.4281,4.4615,4.4615,4.4615,4.4615,4.4615,4.4615,4.4615,4.4224,4.2923,4.3693,4.4035,4.2157,4.2738,4.3136,4.1981,4.2205,4.252,4.252,4.252,4.3,4.4281,4.3869,4.381,4.4542,4.4615,4.4615,4.4615,4.4615,4.4886,4.55,4.5652,4.5923,4.643,4.6566,4.6938,4.7534,4.8409,4.8832,4.8832,4.8951,4.9001,4.9001,4.9001,4.9001,4.9001,4.9001,4.9001,4.9001,4.9001,4.9001,4.9001,4.9001,4.9001,4.9001,4.9001,4.9001,4.9001,4.329,4.329,4.3329,4.3463,4.3463,4.3503,4.3621,4.3754,4.3847,4.3847,4.3949,4.3988,4.3988,4.3988,4.4026,4.4143,4.4143,4.4166,4.4281,4.4473,4.461,4.461,4.461,4.461,4.461,4.461,4.461,4.461,4.461,4.461,4.461,4.461,4.461,4.461,4.461,4.4613,4.4606,4.4211,4.3904,4.3649,4.3572,4.3365,4.3184,4.3474,4.3602,4.3573,4.3217,4.3088,4.3023,4.2619,4.252,4.2552,4.2845,4.2738,4.2552,4.2892,4.3015,4.3106,4.338,4.3722,4.3914,4.3575,4.3722,4.3914,4.3545,4.4064,4.4196,4.2769,4.3604,4.4196,4.2831,4.341,4.3885,4.3276,4.3426,4.3499,4.3075,4.3045,4.3273,4.3943,4.3706,4.381,4.4542,4.4615,4.4615,4.4615,4.4987,4.5331,4.5686,4.6464,4.7056,4.7394,4.7394,4.7767,4.8494,4.8832,4.9001,4.9001,4.9001,4.9001,4.9001,4.9001,4.9001,4.9001,4.9001,4.9001,4.9001,4.9001,4.9001,4.9001,4.9001,4.9001,4.9001,4.9001,4.9001,4.9001,4.329,4.329,4.329,4.329,4.329,4.329,4.329,4.3463,4.3596,4.3596,4.3754,4.3832,4.3832,4.3832,4.3856,4.391,4.3949,4.3949,4.3988,4.4281,4.4473,4.4549,4.4587,4.461,4.461,4.461,4.461,4.461,4.461,4.461,4.461,4.461,4.461,4.461,4.461,4.4685,4.4827,4.413,4.3936,4.4037,4.3337,4.3268,4.358,4.358,4.3819,4.4076,4.3532,4.3373,4.3293,4.2717,4.2525,4.2558,4.2703,4.2639,4.2526,4.251,4.2775,4.2953,4.2614,4.2892,4.3136,4.2645,4.2892,4.3136,4.2614,4.335,4.3814,4.2707,4.335,4.396,4.3363,4.3856,4.4281,4.4121,4.4253,4.415,4.3571,4.3512,4.3571,4.3752,4.3752,4.4039,4.4778,4.4869,4.4936,4.5106,4.5635,4.6041,4.621,4.7263,4.7973,4.8142,4.8173,4.8443,4.9001,4.9001,4.9001,4.9001,4.9001,4.9001,4.9001,4.9001,4.9001,4.9001,4.9001,4.9001,4.9001,4.9001,4.9001,4.9001,4.9001,4.9001,4.9001,4.9001,4.9001,4.9001,4.329,4.329,4.329,4.329,4.329,4.329,4.329,4.3329,4.3329,4.3329,4.3329,4.3329,4.3329,4.3329,4.3463,4.369,4.3729,4.3808,4.3988,4.4026,4.4143,4.432,4.4496,4.461,4.461,4.461,4.461,4.461,4.461,4.461,4.461,4.461,4.461,4.461,4.461,4.4971,4.5551,4.4849,4.493,4.5473,4.4734,4.4086,4.3605,4.3605,4.3272,4.2731,4.2685,4.2654,4.2654,4.2592,4.2577,4.272,4.3343,4.3099,4.2596,4.2606,4.2146,4.1771,4.2332,4.2552,4.2552,4.252,4.2552,4.2552,4.252,4.2583,4.2614,4.252,4.2583,4.2645,4.2583,4.3136,4.3393,4.2769,4.3183,4.3571,4.3512,4.3512,4.3735,4.444,4.4514,4.4812,4.5551,4.5618,4.5906,4.6583,4.6684,4.7022,4.7686,4.7838,4.8193,4.89,4.8934,4.8951,4.9001,4.9001,4.9001,4.9001,4.9001,4.9001,4.9001,4.9001,4.9001,4.9001,4.9001,4.9001,4.9001,4.9001,4.9001,4.9001,4.9001,4.9001,4.9001,4.9001,4.9001,4.9001,4.329,4.329,4.329,4.329,4.329,4.329,4.329,4.329,4.329,4.329,4.329,4.329,4.329,4.329,4.3329,4.3423,4.3463,4.3503,4.3581,4.3714,4.391,4.4104,4.4166,4.4281,4.4396,4.4396,4.4473,4.461,4.461,4.461,4.461,4.461,4.461,4.461,4.461,4.4761,4.5008,4.4723,4.4746,4.4993,4.4723,4.4471,4.424,4.424,4.4048,4.3771,4.3356,4.3202,4.314,4.274,4.2602,4.2638,4.2895,4.2803,4.2592,4.2585,4.2377,4.2229,4.2492,4.2222,4.1771,4.136,4.1575,4.1771,4.136,4.1901,4.2269,4.1426,4.1933,4.2363,4.1965,4.2798,4.3626,4.3828,4.4436,4.5009,4.5462,4.5538,4.5644,4.594,4.5957,4.6058,4.6346,4.638,4.6498,4.6769,4.7225,4.7614,4.7872,4.8311,4.8714,4.9001,4.9001,4.9001,4.9001,4.9001,4.9001,4.9001,4.9001,4.9001,4.9001,4.9001,4.9001,4.9001,4.9001,4.9001,4.9001,4.9001,4.9001,4.9001,4.9001,4.9001,4.9001,4.9001,4.9001,4.9001,4.329,4.329,4.329,4.329,4.329,4.329,4.329,4.329,4.329,4.329,4.329,4.329,4.329,4.329,4.329,4.329,4.329,4.329,4.329,4.3463,4.3714,4.3988,4.3988,4.405,4.4205,4.422,4.4281,4.4396,4.4396,4.4435,4.4496,4.4435,4.4435,4.4511,4.4511,4.4511,4.4511,4.4572,4.461,4.461,4.461,4.461,4.461,4.461,4.461,4.4548,4.4086,4.3917,4.3855,4.3371,4.3233,4.3233,4.3233,4.3079,4.291,4.291,4.2771,4.2602,4.2602,4.2233,4.1713,4.1275,4.1503,4.1713,4.1275,4.1868,4.2322,4.1626,4.2037,4.2505,4.2472,4.3084,4.3815,4.4568,4.5057,4.559,4.6364,4.6455,4.6531,4.6756,4.6786,4.6887,4.7124,4.7141,4.7242,4.7462,4.797,4.8257,4.8257,4.8731,4.9001,4.9001,4.9001,4.9001,4.9001,4.9001,4.9001,4.9001,4.9001,4.9001,4.9001,4.9001,4.9001,4.9001,4.9001,4.9001,4.9001,4.9001,4.9001,4.9001,4.9001,4.9001,4.9001,4.9001,4.9001,4.9001,4.329,4.329,4.329,4.329,4.329,4.329,4.329,4.329,4.329,4.329,4.329,4.329,4.329,4.329,4.329,4.329,4.329,4.329,4.329,4.329,4.3503,4.3988,4.3988,4.3988,4.3988,4.3988,4.3988,4.3988,4.3988,4.4089,4.4281,4.4104,4.4104,4.4281,4.4281,4.4281,4.432,4.4511,4.4587,4.461,4.4587,4.4587,4.461,4.4587,4.461,4.461,4.461,4.461,4.4587,4.461,4.461,4.461,4.461,4.4148,4.3624,4.3624,4.3125,4.2633,4.2633,4.2633,4.2617,4.2602,4.2602,4.2602,4.2602,4.2602,4.2767,4.3466,4.3074,4.3003,4.4341,4.4054,4.3831,4.4475,4.4624,4.487,4.5606,4.57,4.5982,4.6697,4.6802,4.7107,4.7821,4.7906,4.8193,4.8951,4.9001,4.9001,4.9001,4.9001,4.9001,4.9001,4.9001,4.9001,4.9001,4.9001,4.9001,4.9001,4.9001,4.9001,4.9001,4.9001,4.9001,4.9001,4.9001,4.9001,4.9001,4.9001,4.9001,4.9001,4.9001,4.9001,4.9001,4.9001,4.9001,4.9001,4.329,4.329,4.329,4.329,4.329,4.329,4.329,4.329,4.329,4.329,4.329,4.329,4.329,4.329,4.329,4.329,4.329,4.329,4.329,4.329,4.3369,4.3503,4.3503,4.3581,4.3808,4.3808,4.3871,4.3988,4.3988,4.4026,4.4104,4.4026,4.4026,4.4104,4.4104,4.4181,4.4281,4.4205,4.4243,4.4396,4.4243,4.4243,4.4358,4.4243,4.4281,4.4396,4.4396,4.4281,4.4205,4.4358,4.4396,4.4396,4.4549,4.4471,4.4317,4.4317,4.4178,4.3987,4.3987,4.3987,4.3771,4.2848,4.2602,4.2602,4.2602,4.2602,4.2674,4.2875,4.2731,4.271,4.3129,4.3412,4.3816,4.4564,4.5066,4.5629,4.6383,4.6914,4.7142,4.6832,4.7703,4.8225,4.7923,4.8368,4.8765,4.8984,4.9001,4.9001,4.9001,4.9001,4.9001,4.9001,4.9001,4.9001,4.9001,4.9001,4.9001,4.9001,4.9001,4.9001,4.9001,4.9001,4.9001,4.9001,4.9001,4.9001,4.9001,4.9001,4.9001,4.9001,4.9001,4.9001,4.9001,4.9001,4.9001,4.9001,4.329,4.329,4.329,4.329,4.329,4.329,4.329,4.329,4.329,4.329,4.329,4.329,4.329,4.329,4.329,4.329,4.329,4.329,4.329,4.329,4.329,4.329,4.329,4.3384,4.3557,4.3557,4.3596,4.3699,4.3699,4.3778,4.3871,4.3778,4.3778,4.3871,4.3871,4.3949,4.4065,4.4026,4.4065,4.4166,4.4065,4.405,4.4181,4.4065,4.4065,4.4166,4.4166,4.4089,4.4026,4.4127,4.4166,4.4205,4.432,4.4358,4.4396,4.4473,4.4473,4.4511,4.4587,4.461,4.4425,4.3587,4.3387,4.3387,4.3387,4.3387,4.3387,4.3387,4.3387,4.3387,4.3387,4.371,4.4143,4.4591,4.5008,4.5531,4.6253,4.6761,4.6967,4.6811,4.7605,4.7934,4.7522,4.8129,4.8688,4.897,4.9001,4.9001,4.9001,4.9001,4.9001,4.9001,4.9001,4.9001,4.9001,4.9001,4.9001,4.9001,4.9001,4.9001,4.9001,4.9001,4.9001,4.9001,4.9001,4.9001,4.9001,4.9001,4.9001,4.9001,4.9001,4.9001,4.9001,4.9001,4.9001,4.9001,4.329,4.329,4.329,4.329,4.329,4.329,4.329,4.329,4.329,4.329,4.329,4.329,4.329,4.329,4.329,4.329,4.329,4.329,4.329,4.329,4.329,4.329,4.329,4.329,4.329,4.329,4.329,4.329,4.329,4.3423,4.3651,4.3423,4.3423,4.3651,4.3651,4.369,4.3729,4.3871,4.3949,4.3988,4.3949,4.3949,4.3988,4.3949,4.3949,4.3988,4.3988,4.3949,4.3949,4.3988,4.3988,4.3988,4.3988,4.3988,4.4026,4.4205,4.4281,4.4358,4.4534,4.4587,4.461,4.461,4.461,4.461,4.461,4.461,4.461,4.461,4.461,4.461,4.461,4.461,4.461,4.461,4.461,4.4821,4.5531,4.566,4.5897,4.6534,4.6708,4.6777,4.6708,4.7422,4.8161,4.8861,4.897,4.9001,4.9001,4.9001,4.9001,4.9001,4.9001,4.9001,4.9001,4.9001,4.9001,4.9001,4.9001,4.9001,4.9001,4.9001,4.9001,4.9001,4.9001,4.9001,4.9001,4.9001,4.9001,4.9001,4.9001,4.9001,4.9001,4.9001,4.9001,4.9001,4.329,4.329,4.329,4.329,4.329,4.329,4.329,4.329,4.329,4.329,4.329,4.329,4.329,4.329,4.329,4.329,4.329,4.329,4.329,4.329,4.329,4.329,4.329,4.329,4.329,4.329,4.329,4.329,4.329,4.3329,4.3384,4.3329,4.3329,4.3384,4.3384,4.3518,4.369,4.3503,4.3581,4.3769,4.3542,4.3581,4.3729,4.3542,4.3581,4.3769,4.3769,4.3636,4.3488,4.3675,4.3769,4.3808,4.3949,4.3988,4.4026,4.4065,4.4166,4.432,4.4358,4.4473,4.461,4.461,4.461,4.461,4.461,4.461,4.461,4.461,4.461,4.461,4.461,4.461,4.461,4.461,4.461,4.4648,4.4836,4.5348,4.5567,4.5142,4.6076,4.6569,4.5969,4.7137,4.795,4.8129,4.8688,4.9001,4.9001,4.9001,4.9001,4.9001,4.9001,4.9001,4.9001,4.9001,4.9001,4.9001,4.9001,4.9001,4.9001,4.9001,4.9001,4.9001,4.9001,4.9001,4.9001,4.9001,4.9001,4.9001,4.9001,4.9001,4.9001,4.9001,4.9001,4.9001,4.329,4.329,4.329,4.329,4.329,4.329,4.329,4.329,4.329,4.329,4.329,4.329,4.329,4.329,4.329,4.329,4.329,4.329,4.329,4.329,4.329,4.329,4.329,4.329,4.329,4.329,4.329,4.329,4.329,4.329,4.329,4.329,4.329,4.329,4.329,4.3384,4.3518,4.3384,4.3384,4.3518,4.3384,4.3384,4.3503,4.3344,4.3384,4.3518,4.3518,4.3423,4.3329,4.3463,4.3518,4.3518,4.3621,4.366,4.3699,4.3832,4.3949,4.4011,4.4143,4.4243,4.432,4.432,4.4396,4.4473,4.4587,4.461,4.461,4.461,4.461,4.461,4.461,4.461,4.461,4.461,4.461,4.461,4.461,4.4933,4.503,4.4648,4.5274,4.5733,4.5697,4.6413,4.7137,4.7852,4.8274,4.8625,4.897,4.9001,4.9001,4.9001,4.9001,4.9001,4.9001,4.9001,4.9001,4.9001,4.9001,4.9001,4.9001,4.9001,4.9001,4.9001,4.9001,4.9001,4.9001,4.9001,4.9001,4.9001,4.9001,4.9001,4.9001,4.9001,4.9001,4.9001,4.329,4.329,4.329,4.329,4.329,4.329,4.329,4.329,4.329,4.329,4.329,4.329,4.329,4.329,4.329,4.329,4.329,4.329,4.329,4.329,4.329,4.329,4.329,4.329,4.329,4.329,4.329,4.329,4.329,4.329,4.329,4.329,4.329,4.329,4.329,4.329,4.329,4.329,4.329,4.329,4.329,4.329,4.329,4.329,4.329,4.329,4.329,4.329,4.329,4.329,4.329,4.329,4.329,4.329,4.3329,4.3557,4.3651,4.3729,4.391,4.3988,4.3988,4.3988,4.4143,4.4281,4.4473,4.4549,4.461,4.461,4.461,4.461,4.461,4.461,4.461,4.461,4.461,4.461,4.461,4.461,4.461,4.461,4.461,4.4821,4.5458,4.5733,4.6394,4.7622,4.7967,4.8338,4.897,4.9001,4.9001,4.9001,4.9001,4.9001,4.9001,4.9001,4.9001,4.9001,4.9001,4.9001,4.9001,4.9001,4.9001,4.9001,4.9001,4.9001,4.9001,4.9001,4.9001,4.9001,4.9001,4.9001,4.9001,4.9001,4.9001,4.9001,4.329,4.329,4.329,4.329,4.329,4.329,4.329,4.329,4.329,4.329,4.329,4.329,4.329,4.329,4.329,4.329,4.329,4.329,4.329,4.329,4.329,4.329,4.329,4.329,4.329,4.329,4.329,4.329,4.329,4.329,4.329,4.329,4.329,4.329,4.329,4.329,4.329,4.329,4.329,4.329,4.329,4.329,4.329,4.329,4.329,4.329,4.329,4.329,4.329,4.329,4.329,4.329,4.329,4.329,4.329,4.3329,4.3518,4.3729,4.3729,4.3871,4.3988,4.3988,4.4026,4.4065,4.405,4.4358,4.461,4.461,4.461,4.461,4.461,4.461,4.461,4.461,4.461,4.461,4.461,4.461,4.461,4.461,4.461,4.4648,4.4761,4.5913,4.6742,4.6949,4.8145,4.8892,4.9001,4.9001,4.9001,4.9001,4.9001,4.9001,4.9001,4.9001,4.9001,4.9001,4.9001,4.9001,4.9001,4.9001,4.9001,4.9001,4.9001,4.9001,4.9001,4.9001,4.9001,4.9001,4.9001,4.9001,4.9001,4.9001,4.9001,4.9001,4.329,4.329,4.329,4.329,4.329,4.329,4.329,4.329,4.329,4.329,4.329,4.329,4.329,4.329,4.329,4.329,4.329,4.329,4.329,4.329,4.329,4.329,4.329,4.329,4.329,4.329,4.329,4.329,4.329,4.329,4.329,4.329,4.329,4.329,4.329,4.329,4.329,4.329,4.329,4.329,4.329,4.329,4.329,4.329,4.329,4.329,4.329,4.329,4.329,4.329,4.329,4.329,4.329,4.329,4.329,4.329,4.3384,4.3463,4.3463,4.3542,4.3621,4.3621,4.3699,4.3832,4.3832,4.4065,4.4281,4.4396,4.4534,4.461,4.461,4.461,4.461,4.461,4.461,4.461,4.461,4.461,4.461,4.461,4.461,4.461,4.461,4.5179,4.5733,4.6147,4.7187,4.7934,4.837,4.8767,4.9001,4.9001,4.9001,4.9001,4.9001,4.9001,4.9001,4.9001,4.9001,4.9001,4.9001,4.9001,4.9001,4.9001,4.9001,4.9001,4.9001,4.9001,4.9001,4.9001,4.9001,4.9001,4.9001,4.9001,4.9001,4.9001]}]]